[[{"header":{"parameterUnit":"m.s-1","parameterCategory":1,"la1":31.0,"la2":29.5877,"lo1":-88.7671,"lo2":-86.6584,"dy":0.0162,"dx":0.0185,"nx":115,"ny":88,"refTime":"2026-03-13T12:00:00:Z","depth":0,"parameterNumber":2,"parameterNumberName":"U-component_of_WINDS"},"data":[0.0,0.0,0.0,0.0,0.0,0.0,0.0,0.0,0.0,0.0,0.0,0.0,0.0,0.0,0.0,0.0,0.0,0.0,0.0,0.0,0.0,0.0,0.0,0.0,0.0,0.0,0.0,0.0,0.0,0.0,0.0,0.0,0.0,0.0,0.0,0.0,0.0,0.0,0.0,0.0,0.0,0.0,0.0,0.0,0.0,0.0,0.0,0.0,0.0,0.0,0.0,0.0,0.0,0.0,0.0,0.0,0.0,0.0,0.0,0.0,0.0,0.0,0.0,0.0,0.0,0.0,0.0,0.0,0.0,0.0,0.0,0.0,0.0,0.0,0.0,0.0,0.0,0.0,0.0,0.0,0.0,0.0,0.0,0.0,0.0,0.0,0.0,0.0,0.0,0.0,0.0,0.0,0.0,0.0,0.0,0.0,0.0,0.0,0.0,0.0,0.0,0.0,0.0,0.0,0.0,0.0,0.0,0.0,0.0,0.0,0.0,0.0,0.0,0.0,0.0,0.0,0.0,0.0,0.0,0.0,0.0,0.0,0.0,0.0,0.0,0.0,0.0,0.0,0.0,0.0,0.0,0.0,0.0,0.0,0.0,0.0,0.0,0.0,0.0,0.0,0.0,0.0,0.0,0.0,0.0,0.0,0.0,0.0,0.0,0.0,0.0,0.0,0.0,0.0,0.0,0.0,0.0,0.0,0.0,0.0,0.0,0.0,0.0,0.0,0.0,0.0,0.0,0.0,0.0,0.0,0.0,0.0,0.0,0.0,0.0,0.0,0.0,0.0,0.0,0.0,0.0,0.0,0.0,0.0,0.0,0.0,0.0,0.0,0.0,0.0,0.0,0.0,0.0,0.0,0.0,0.0,0.0,0.0,0.0,0.0,0.0,0.0,0.0,0.0,0.0,0.0,0.0,0.0,0.0,0.0,0.0,0.0,0.0,0.0,0.0,0.0,0.0,0.0,0.0,0.0,0.0,0.0,0.0,0.0,0.0,0.0,0.0,0.0,0.0,0.0,0.0,0.0,0.0,0.0,0.0,0.0,0.0,0.0,0.0,0.0,0.0,0.0,0.0,0.0,0.0,0.0,0.0,0.0,0.0,0.0,0.0,0.0,0.0,0.0,0.0,0.0,0.0,0.0,0.0,0.0,0.0,0.0,0.0,0.0,0.0,0.0,0.0,0.0,0.0,0.0,0.0,0.0,0.0,0.0,0.0,0.0,0.0,0.0,0.0,0.0,0.0,0.0,0.0,0.0,0.0,0.0,0.0,0.0,0.0,0.0,0.0,0.0,0.0,0.0,0.0,0.0,0.0,0.0,0.0,0.0,0.0,0.0,0.0,0.0,0.0,0.0,0.0,0.0,0.0,0.0,0.0,0.0,0.0,0.0,0.0,0.0,0.0,0.0,0.0,0.0,0.0,0.0,0.0,0.0,0.0,0.0,0.0,0.0,0.0,0.0,0.0,0.0,0.0,0.0,0.0,0.0,0.0,0.0,0.0,0.0,0.0,0.0,0.0,0.0,0.0,0.0,0.0,0.0,0.0,0.0,0.0,0.0,0.0,0.0,0.0,0.0,0.0,0.0,0.0,0.0,0.0,0.0,0.0,0.0,0.0,0.0,0.0,0.0,0.0,0.0,0.0,0.0,0.0,0.0,0.0,0.0,0.0,0.0,0.0,0.0,0.0,0.0,0.0,0.0,0.0,0.0,0.0,0.0,0.0,0.0,0.0,0.0,0.0,0.0,0.0,0.0,0.0,0.0,0.0,0.0,0.0,0.0,0.0,0.0,0.0,0.0,0.0,0.0,0.0,0.0,0.0,0.0,0.0,0.0,0.0,0.0,0.0,0.0,0.0,0.0,0.0,0.0,0.0,0.0,0.0,0.0,0.0,0.0,0.0,0.0,0.0,0.0,0.0,0.0,0.0,0.0,0.0,0.0,0.0,0.0,0.0,0.0,0.0,0.0,0.0,0.0,0.0,0.0,0.0,0.0,0.0,0.0,0.0,0.0,0.0,0.0,0.0,0.0,0.0,0.0,0.0,0.0,0.0,0.0,0.0,0.0,0.0,0.0,0.0,0.0,0.0,0.0,0.0,0.0,0.0,0.0,0.0,0.0,0.0,0.0,0.0,0.0,0.0,0.0,0.0,0.0,0.0,0.0,0.0,0.0,0.0,0.0,0.0,0.0,0.0,0.0,0.0,0.0,0.0,0.0,0.0,0.0,0.0,0.0,0.0,0.0,0.0,0.0,0.0,0.0,0.0,0.0,0.0,0.0,0.0,0.0,0.0,0.0,0.0,0.0,0.0,0.0,0.0,0.0,0.0,0.0,0.0,0.0,0.0,0.0,0.0,0.0,0.0,0.0,0.0,0.0,0.0,0.0,0.0,0.0,0.0,0.0,0.0,0.0,0.0,0.0,0.0,0.0,0.0,0.0,0.0,0.0,0.0,0.0,0.0,0.0,0.0,0.0,0.0,0.0,0.0,0.0,0.0,0.0,0.0,0.0,0.0,0.0,0.0,0.0,0.0,0.0,0.0,0.0,0.0,0.0,0.0,0.0,0.0,0.0,0.0,0.0,0.0,0.0,0.0,0.0,0.0,0.0,0.0,0.0,0.0,0.0,0.0,0.0,0.0,0.0,0.0,0.0,0.0,0.0,0.0,0.0,0.0,0.0,0.0,0.0,0.0,0.0,0.0,0.0,0.0,0.0,0.0,0.0,0.0,0.0,0.0,0.0,0.0,0.0,0.0,0.0,0.0,0.0,0.0,0.0,0.0,0.0,0.0,0.0,0.0,0.0,0.0,0.0,0.0,0.0,0.0,0.0,0.0,0.0,0.0,0.0,0.0,0.0,0.0,0.0,0.0,0.0,0.0,0.0,0.0,0.0,0.0,0.0,0.0,0.0,0.0,0.0,0.0,0.0,0.0,0.0,0.0,0.0,0.0,0.0,0.0,0.0,0.0,0.0,0.0,0.0,0.0,0.0,0.0,0.0,0.0,0.0,0.0,0.0,0.0,0.0,0.0,0.0,0.0,0.0,0.0,0.0,0.0,0.0,0.0,0.0,0.0,0.0,0.0,0.0,0.0,0.0,0.0,0.0,0.0,0.0,0.0,0.0,0.0,0.0,0.0,0.0,0.0,0.0,0.0,0.0,0.0,0.0,0.0,0.0,0.0,0.0,0.0,0.0,0.0,0.0,0.0,0.0,0.0,0.0,0.0,0.0,0.0,0.0,0.0,0.0,0.0,0.0,0.0,0.0,0.0,0.0,0.0,0.0,0.0,0.0,0.0,0.0,0.0,0.0,0.0,0.0,0.0,0.0,0.0,0.0,0.0,0.0,0.0,0.0,0.0,0.0,0.0,0.0,0.0,0.0,0.0,0.0,0.0,0.0,0.0,0.0,0.0,0.0,0.0,0.0,0.0,0.0,0.0,0.0,0.0,0.0,0.0,0.0,0.0,0.0,0.0,0.0,0.0,0.0,0.0,0.0,0.0,0.0,0.0,0.0,0.0,0.0,0.0,0.0,0.0,0.0,0.0,0.0,0.0,0.0,0.0,0.0,0.0,0.0,0.0,0.0,0.0,0.0,0.0,0.0,0.0,0.0,0.0,0.0,0.0,0.0,0.0,0.0,0.0,0.0,0.0,0.0,0.0,0.0,0.0,0.0,0.0,0.0,0.0,0.0,0.0,0.0,0.0,0.0,0.0,0.0,0.0,0.0,0.0,0.0,0.0,0.0,0.0,0.0,0.0,0.0,0.0,0.0,0.0,0.0,0.0,0.0,0.0,0.0,0.0,0.0,0.0,0.0,0.0,0.0,0.0,0.0,0.0,0.0,0.0,0.0,0.0,0.0,0.0,0.0,0.0,0.0,0.0,0.0,0.0,0.0,0.0,0.0,0.0,0.0,0.0,0.0,0.0,0.0,0.0,0.0,0.0,0.0,0.0,0.0,0.0,0.0,0.0,0.0,0.0,0.0,0.0,0.0,0.0,0.0,0.0,0.0,0.0,0.0,0.0,0.0,0.0,0.0,0.0,0.0,0.0,0.0,0.0,0.0,0.0,0.0,0.0,0.0,0.0,0.0,0.0,0.0,0.0,0.0,0.0,0.0,0.0,0.0,0.0,0.0,0.0,0.0,0.0,0.0,0.0,0.0,0.0,0.0,0.0,0.0,0.0,0.0,0.0,0.0,0.0,0.0,0.0,0.0,0.0,0.0,0.0,0.0,0.0,0.0,0.0,0.0,0.0,0.0,0.0,0.0,0.0,0.0,0.0,0.0,-5.5351,0.0,0.0,0.0,0.0,0.0,0.0,0.0,0.0,0.0,0.0,0.0,0.0,0.0,0.0,0.0,0.0,0.0,0.0,0.0,0.0,0.0,0.0,0.0,0.0,0.0,0.0,0.0,0.0,0.0,0.0,0.0,0.0,0.0,0.0,0.0,0.0,0.0,0.0,0.0,0.0,0.0,0.0,0.0,0.0,0.0,0.0,0.0,0.0,0.0,0.0,0.0,0.0,0.0,0.0,0.0,0.0,0.0,0.0,0.0,0.0,0.0,0.0,0.0,0.0,0.0,0.0,0.0,0.0,0.0,0.0,0.0,0.0,0.0,0.0,0.0,0.0,0.0,0.0,0.0,0.0,0.0,0.0,0.0,0.0,0.0,0.0,0.0,0.0,0.0,0.0,0.0,0.0,0.0,0.0,0.0,0.0,0.0,0.0,0.0,0.0,0.0,0.0,0.0,0.0,0.0,0.0,0.0,0.0,0.0,0.0,-5.9844,-5.9844,-5.9062,-5.7812,-5.6055,0.0,0.0,0.0,0.0,0.0,0.0,0.0,0.0,0.0,0.0,0.0,0.0,0.0,0.0,0.0,0.0,0.0,0.0,0.0,0.0,0.0,0.0,0.0,0.0,0.0,0.0,0.0,0.0,0.0,0.0,0.0,0.0,0.0,0.0,0.0,0.0,0.0,0.0,0.0,0.0,0.0,0.0,0.0,0.0,0.0,0.0,0.0,0.0,0.0,0.0,0.0,0.0,0.0,0.0,0.0,0.0,0.0,0.0,0.0,0.0,0.0,0.0,0.0,0.0,0.0,0.0,0.0,0.0,0.0,0.0,0.0,0.0,0.0,0.0,0.0,0.0,0.0,0.0,0.0,0.0,0.0,0.0,0.0,0.0,0.0,0.0,0.0,0.0,0.0,0.0,0.0,0.0,0.0,0.0,0.0,0.0,0.0,0.0,0.0,0.0,0.0,0.0,0.0,0.0,0.0,0.0,0.0,0.0,0.0,0.0,0.0,0.0,-6.0195,-5.875,-5.664,0.0,0.0,0.0,0.0,0.0,0.0,0.0,0.0,0.0,0.0,0.0,0.0,0.0,0.0,0.0,0.0,0.0,0.0,0.0,0.0,0.0,0.0,0.0,0.0,0.0,0.0,0.0,0.0,0.0,0.0,0.0,0.0,0.0,0.0,0.0,0.0,0.0,0.0,0.0,0.0,0.0,0.0,0.0,0.0,0.0,0.0,0.0,0.0,0.0,0.0,0.0,0.0,0.0,0.0,0.0,0.0,0.0,0.0,0.0,0.0,0.0,0.0,0.0,0.0,0.0,0.0,0.0,0.0,0.0,0.0,0.0,0.0,0.0,0.0,0.0,0.0,0.0,0.0,0.0,0.0,0.0,0.0,0.0,0.0,0.0,0.0,0.0,0.0,0.0,0.0,0.0,0.0,0.0,0.0,0.0,0.0,0.0,0.0,0.0,0.0,0.0,0.0,0.0,0.0,0.0,0.0,0.0,0.0,0.0,0.0,-5.9609,-6.2656,-6.1914,0.0,-5.6836,0.0,0.0,0.0,0.0,0.0,0.0,0.0,0.0,0.0,0.0,0.0,0.0,0.0,0.0,0.0,0.0,0.0,0.0,0.0,0.0,0.0,0.0,0.0,0.0,0.0,0.0,0.0,0.0,0.0,0.0,0.0,0.0,0.0,0.0,0.0,0.0,0.0,0.0,0.0,0.0,0.0,0.0,0.0,0.0,0.0,0.0,0.0,0.0,0.0,0.0,0.0,0.0,0.0,0.0,0.0,0.0,0.0,0.0,0.0,0.0,0.0,0.0,0.0,0.0,0.0,0.0,0.0,0.0,0.0,0.0,0.0,0.0,0.0,0.0,0.0,0.0,0.0,0.0,0.0,0.0,0.0,0.0,0.0,0.0,0.0,0.0,0.0,0.0,0.0,0.0,0.0,0.0,0.0,0.0,0.0,0.0,0.0,0.0,0.0,0.0,0.0,0.0,0.0,0.0,0.0,0.0,0.0,0.0,0.0,0.0,-6.082,-6.2187,-6.043,-5.8555,0.0,0.0,0.0,0.0,0.0,0.0,0.0,0.0,0.0,0.0,0.0,0.0,0.0,0.0,0.0,0.0,0.0,0.0,0.0,0.0,0.0,0.0,0.0,0.0,0.0,0.0,0.0,0.0,0.0,0.0,0.0,0.0,0.0,0.0,0.0,0.0,0.0,0.0,0.0,0.0,0.0,0.0,0.0,0.0,0.0,0.0,0.0,0.0,0.0,0.0,0.0,0.0,0.0,0.0,0.0,0.0,0.0,0.0,0.0,0.0,0.0,0.0,0.0,0.0,0.0,0.0,0.0,0.0,0.0,0.0,0.0,0.0,0.0,0.0,0.0,0.0,0.0,0.0,0.0,0.0,0.0,0.0,0.0,0.0,0.0,0.0,0.0,0.0,0.0,0.0,0.0,0.0,0.0,0.0,0.0,0.0,0.0,0.0,0.0,0.0,0.0,0.0,0.0,0.0,0.0,0.0,0.0,0.0,0.0,0.0,-6.0586,-6.1562,-6.1953,-6.0508,-5.8476,-5.5976,0.0,0.0,0.0,0.0,0.0,0.0,0.0,0.0,0.0,0.0,0.0,0.0,0.0,0.0,0.0,0.0,0.0,0.0,0.0,0.0,0.0,0.0,0.0,0.0,0.0,0.0,0.0,0.0,0.0,0.0,0.0,0.0,0.0,0.0,0.0,0.0,0.0,0.0,0.0,0.0,0.0,0.0,0.0,0.0,0.0,0.0,0.0,0.0,0.0,0.0,0.0,0.0,0.0,0.0,0.0,0.0,0.0,0.0,0.0,0.0,0.0,0.0,0.0,0.0,0.0,0.0,0.0,0.0,0.0,0.0,0.0,0.0,0.0,0.0,0.0,0.0,0.0,0.0,0.0,0.0,0.0,0.0,0.0,0.0,0.0,0.0,0.0,0.0,0.0,0.0,0.0,0.0,0.0,0.0,0.0,0.0,0.0,0.0,0.0,0.0,0.0,0.0,0.0,0.0,0.0,0.0,0.0,0.0,-6.4648,-6.1992,-6.125,-6.289,-6.3633,-6.0898,0.0,0.0,0.0,0.0,0.0,0.0,0.0,0.0,0.0,0.0,0.0,0.0,0.0,0.0,0.0,0.0,0.0,0.0,0.0,0.0,0.0,0.0,0.0,0.0,0.0,0.0,0.0,0.0,0.0,0.0,0.0,0.0,0.0,0.0,0.0,0.0,0.0,0.0,0.0,0.0,0.0,0.0,0.0,0.0,0.0,0.0,0.0,0.0,0.0,0.0,0.0,0.0,0.0,0.0,0.0,0.0,0.0,0.0,0.0,0.0,0.0,0.0,0.0,0.0,0.0,0.0,0.0,0.0,0.0,0.0,0.0,0.0,0.0,0.0,0.0,0.0,0.0,0.0,0.0,0.0,0.0,0.0,0.0,0.0,0.0,0.0,0.0,0.0,0.0,0.0,0.0,0.0,0.0,0.0,0.0,0.0,0.0,0.0,0.0,0.0,0.0,0.0,0.0,0.0,0.0,0.0,0.0,0.0,0.0,-5.8086,-5.8555,-6.0703,-6.4336,-6.0195,-5.7305,0.0,0.0,0.0,0.0,0.0,0.0,0.0,0.0,0.0,0.0,0.0,0.0,0.0,0.0,0.0,0.0,0.0,0.0,0.0,0.0,0.0,0.0,0.0,0.0,0.0,0.0,0.0,0.0,0.0,0.0,0.0,0.0,0.0,0.0,0.0,0.0,0.0,0.0,0.0,0.0,0.0,0.0,0.0,0.0,0.0,0.0,0.0,0.0,0.0,0.0,0.0,0.0,0.0,0.0,0.0,0.0,0.0,0.0,0.0,0.0,0.0,0.0,0.0,0.0,0.0,0.0,0.0,0.0,0.0,0.0,0.0,0.0,0.0,0.0,0.0,0.0,0.0,0.0,0.0,0.0,0.0,0.0,0.0,0.0,0.0,0.0,0.0,0.0,0.0,0.0,0.0,0.0,0.0,0.0,0.0,0.0,0.0,0.0,0.0,0.0,0.0,0.0,0.0,0.0,0.0,0.0,0.0,0.0,0.0,-5.6523,0.0,-6.1562,-6.3594,-5.8867,-5.5742,0.0,0.0,0.0,0.0,0.0,0.0,0.0,0.0,0.0,0.0,0.0,0.0,0.0,0.0,0.0,0.0,0.0,0.0,0.0,0.0,0.0,0.0,0.0,0.0,0.0,0.0,0.0,0.0,0.0,0.0,0.0,0.0,0.0,0.0,0.0,0.0,0.0,0.0,0.0,0.0,0.0,0.0,0.0,0.0,0.0,0.0,0.0,0.0,0.0,0.0,0.0,0.0,0.0,0.0,0.0,0.0,0.0,0.0,0.0,0.0,0.0,0.0,0.0,0.0,0.0,0.0,0.0,0.0,0.0,0.0,0.0,0.0,0.0,0.0,0.0,0.0,0.0,0.0,0.0,0.0,0.0,0.0,0.0,0.0,0.0,0.0,0.0,0.0,0.0,0.0,0.0,0.0,0.0,0.0,0.0,0.0,0.0,0.0,0.0,0.0,0.0,0.0,0.0,0.0,0.0,0.0,0.0,0.0,-5.6523,-6.1328,-6.3906,-6.3711,-6.0664,-6.0234,-5.6719,0.0,0.0,0.0,0.0,0.0,0.0,0.0,0.0,0.0,0.0,0.0,0.0,0.0,0.0,0.0,0.0,0.0,0.0,0.0,0.0,0.0,0.0,0.0,0.0,0.0,0.0,0.0,0.0,0.0,0.0,0.0,0.0,0.0,0.0,0.0,0.0,0.0,0.0,0.0,0.0,0.0,0.0,0.0,0.0,0.0,0.0,0.0,0.0,0.0,0.0,0.0,0.0,0.0,0.0,0.0,0.0,0.0,0.0,0.0,0.0,0.0,0.0,0.0,0.0,0.0,0.0,0.0,0.0,0.0,0.0,0.0,0.0,0.0,0.0,0.0,0.0,0.0,0.0,0.0,0.0,0.0,0.0,0.0,0.0,0.0,0.0,0.0,0.0,0.0,0.0,0.0,0.0,0.0,0.0,0.0,0.0,0.0,0.0,0.0,0.0,0.0,0.0,0.0,0.0,0.0,0.0,0.0,0.0,0.0,-5.7344,-6.039,-6.293,-6.457,-5.9101,-5.625,0.0,0.0,0.0,0.0,0.0,0.0,0.0,0.0,0.0,0.0,0.0,0.0,0.0,0.0,0.0,0.0,0.0,0.0,0.0,0.0,0.0,0.0,0.0,0.0,0.0,0.0,0.0,0.0,0.0,0.0,0.0,0.0,0.0,0.0,0.0,0.0,0.0,0.0,0.0,0.0,0.0,0.0,0.0,0.0,0.0,0.0,0.0,0.0,0.0,0.0,0.0,0.0,0.0,0.0,0.0,0.0,0.0,0.0,0.0,0.0,0.0,0.0,0.0,0.0,0.0,0.0,0.0,0.0,0.0,0.0,0.0,0.0,0.0,0.0,0.0,0.0,0.0,0.0,0.0,0.0,0.0,0.0,0.0,0.0,0.0,0.0,0.0,0.0,0.0,0.0,0.0,0.0,0.0,0.0,0.0,0.0,0.0,0.0,0.0,0.0,0.0,0.0,0.0,0.0,0.0,0.0,0.0,0.0,0.0,-6.1211,-6.4101,-6.6367,-6.7812,-6.164,-5.8047,-5.7422,0.0,0.0,0.0,0.0,0.0,0.0,0.0,0.0,0.0,0.0,0.0,0.0,0.0,0.0,0.0,0.0,0.0,0.0,0.0,0.0,0.0,0.0,0.0,0.0,0.0,0.0,0.0,0.0,0.0,0.0,0.0,0.0,0.0,0.0,0.0,0.0,0.0,0.0,0.0,0.0,0.0,0.0,0.0,0.0,0.0,0.0,0.0,0.0,0.0,0.0,0.0,0.0,0.0,0.0,0.0,0.0,0.0,0.0,0.0,0.0,0.0,0.0,0.0,0.0,0.0,0.0,0.0,0.0,0.0,0.0,0.0,0.0,0.0,0.0,0.0,0.0,0.0,0.0,0.0,0.0,0.0,0.0,0.0,0.0,0.0,0.0,0.0,0.0,0.0,0.0,0.0,0.0,0.0,0.0,0.0,0.0,0.0,0.0,0.0,0.0,0.0,0.0,0.0,0.0,0.0,0.0,0.0,0.0,-7.1172,-7.4023,-7.3906,-7.0469,-6.7383,-6.1953,0.0,0.0,0.0,0.0,0.0,0.0,0.0,0.0,0.0,0.0,0.0,0.0,0.0,0.0,0.0,0.0,0.0,0.0,0.0,0.0,0.0,0.0,0.0,0.0,0.0,0.0,0.0,0.0,0.0,0.0,0.0,0.0,0.0,0.0,0.0,0.0,0.0,0.0,0.0,0.0,0.0,0.0,0.0,0.0,0.0,0.0,0.0,0.0,0.0,0.0,0.0,0.0,0.0,0.0,0.0,0.0,0.0,0.0,0.0,0.0,0.0,0.0,0.0,0.0,0.0,0.0,0.0,0.0,0.0,0.0,0.0,0.0,0.0,0.0,0.0,0.0,0.0,0.0,0.0,0.0,0.0,0.0,0.0,0.0,0.0,0.0,0.0,0.0,0.0,0.0,0.0,0.0,0.0,0.0,0.0,0.0,0.0,0.0,0.0,0.0,0.0,0.0,0.0,0.0,0.0,0.0,0.0,0.0,0.0,-7.7226,-8.3633,-8.4961,-8.082,-7.2773,-6.6797,0.0,0.0,0.0,0.0,0.0,0.0,0.0,0.0,0.0,0.0,0.0,0.0,0.0,0.0,0.0,0.0,0.0,0.0,0.0,0.0,0.0,0.0,0.0,0.0,0.0,0.0,0.0,0.0,0.0,0.0,0.0,0.0,0.0,0.0,0.0,0.0,0.0,0.0,0.0,0.0,0.0,0.0,0.0,0.0,0.0,0.0,0.0,0.0,0.0,0.0,0.0,0.0,0.0,0.0,0.0,0.0,0.0,0.0,0.0,0.0,0.0,0.0,0.0,0.0,0.0,0.0,0.0,0.0,0.0,0.0,0.0,0.0,0.0,0.0,0.0,0.0,0.0,0.0,0.0,0.0,0.0,0.0,0.0,0.0,0.0,0.0,0.0,0.0,0.0,0.0,0.0,0.0,0.0,0.0,0.0,0.0,0.0,0.0,0.0,0.0,0.0,0.0,0.0,0.0,0.0,0.0,0.0,0.0,-7.5,-8.2344,-9.039,-9.3359,-9.0859,-8.1172,-7.2851,0.0,0.0,0.0,0.0,0.0,0.0,0.0,0.0,0.0,0.0,0.0,0.0,0.0,0.0,0.0,0.0,0.0,0.0,0.0,0.0,0.0,0.0,0.0,0.0,0.0,0.0,0.0,0.0,0.0,0.0,0.0,0.0,0.0,0.0,0.0,0.0,0.0,0.0,0.0,0.0,0.0,0.0,0.0,0.0,0.0,0.0,0.0,0.0,0.0,0.0,0.0,0.0,0.0,0.0,0.0,0.0,0.0,0.0,0.0,0.0,0.0,0.0,0.0,0.0,0.0,0.0,0.0,0.0,0.0,0.0,0.0,0.0,0.0,0.0,0.0,0.0,0.0,0.0,0.0,0.0,0.0,0.0,0.0,0.0,0.0,0.0,0.0,0.0,0.0,0.0,0.0,0.0,0.0,0.0,0.0,0.0,0.0,0.0,0.0,0.0,0.0,0.0,0.0,0.0,0.0,0.0,0.0,0.0,-7.9531,-8.6523,-9.4883,-9.9179,-9.875,-8.9765,-7.9023,0.0,0.0,0.0,0.0,0.0,0.0,0.0,0.0,0.0,0.0,0.0,0.0,0.0,0.0,0.0,0.0,0.0,0.0,0.0,0.0,0.0,0.0,0.0,0.0,0.0,0.0,0.0,0.0,0.0,0.0,0.0,0.0,0.0,0.0,0.0,0.0,0.0,0.0,0.0,0.0,0.0,0.0,0.0,0.0,0.0,0.0,0.0,0.0,0.0,0.0,0.0,0.0,0.0,0.0,0.0,0.0,0.0,0.0,0.0,0.0,0.0,0.0,0.0,0.0,0.0,0.0,0.0,0.0,0.0,0.0,0.0,0.0,0.0,0.0,0.0,0.0,0.0,0.0,0.0,0.0,0.0,0.0,0.0,0.0,0.0,0.0,0.0,0.0,0.0,0.0,0.0,0.0,0.0,0.0,0.0,0.0,0.0,0.0,0.0,0.0,0.0,0.0,0.0,0.0,0.0,0.0,0.0,0.0,-8.1601,-8.9062,-9.6953,-10.039,-9.8984,-8.9179,-8.0039,0.0,0.0,0.0,0.0,0.0,0.0,0.0,0.0,0.0,0.0,0.0,0.0,0.0,0.0,0.0,0.0,0.0,0.0,0.0,0.0,0.0,0.0,0.0,0.0,0.0,0.0,0.0,0.0,0.0,0.0,0.0,0.0,0.0,0.0,0.0,0.0,0.0,0.0,0.0,0.0,0.0,0.0,0.0,0.0,0.0,0.0,0.0,0.0,-4.9844,0.0,0.0,0.0,0.0,0.0,0.0,0.0,0.0,0.0,0.0,0.0,0.0,0.0,0.0,0.0,0.0,0.0,0.0,0.0,0.0,0.0,0.0,0.0,0.0,0.0,0.0,0.0,0.0,0.0,0.0,0.0,0.0,0.0,0.0,0.0,0.0,0.0,0.0,0.0,0.0,0.0,0.0,0.0,0.0,0.0,0.0,0.0,0.0,0.0,0.0,0.0,0.0,0.0,0.0,0.0,0.0,0.0,0.0,0.0,-8.4453,-9.1719,-9.8242,-10.0976,-9.9414,-9.1562,-8.3008,0.0,0.0,0.0,0.0,0.0,0.0,0.0,0.0,0.0,0.0,0.0,0.0,0.0,0.0,0.0,0.0,0.0,0.0,0.0,0.0,0.0,0.0,0.0,0.0,0.0,0.0,0.0,0.0,0.0,0.0,0.0,0.0,0.0,0.0,0.0,0.0,0.0,0.0,0.0,0.0,0.0,0.0,0.0,0.0,0.0,0.0,0.0,0.0,0.0,0.0,0.0,0.0,0.0,0.0,0.0,0.0,0.0,0.0,0.0,0.0,0.0,0.0,0.0,0.0,0.0,0.0,0.0,0.0,0.0,0.0,0.0,0.0,0.0,0.0,0.0,0.0,0.0,0.0,0.0,0.0,0.0,0.0,0.0,0.0,0.0,0.0,0.0,0.0,0.0,0.0,0.0,0.0,0.0,0.0,0.0,0.0,0.0,0.0,0.0,0.0,0.0,0.0,0.0,0.0,0.0,0.0,0.0,-7.7461,-8.6406,-9.4062,-9.8945,-10.0898,-9.9687,-9.4375,-8.6172,-7.5039,0.0,0.0,0.0,0.0,0.0,0.0,0.0,0.0,0.0,0.0,0.0,0.0,0.0,0.0,0.0,0.0,0.0,0.0,0.0,0.0,0.0,0.0,0.0,0.0,0.0,0.0,0.0,0.0,0.0,0.0,0.0,0.0,0.0,0.0,0.0,0.0,0.0,0.0,-4.543,-4.8008,0.0,0.0,0.0,0.0,0.0,0.0,0.0,0.0,-5.0078,0.0,0.0,0.0,0.0,0.0,0.0,0.0,0.0,0.0,0.0,0.0,0.0,0.0,0.0,0.0,0.0,0.0,0.0,0.0,0.0,0.0,0.0,0.0,0.0,0.0,0.0,0.0,0.0,0.0,0.0,0.0,0.0,0.0,0.0,0.0,0.0,0.0,0.0,0.0,0.0,0.0,0.0,0.0,0.0,0.0,0.0,0.0,0.0,0.0,0.0,0.0,0.0,0.0,0.0,0.0,0.0,-7.5039,-7.7265,-8.4023,-9.5742,-9.8984,-9.9414,-9.7148,-9.4062,-8.6797,-7.5156,0.0,0.0,0.0,0.0,0.0,0.0,0.0,0.0,0.0,0.0,0.0,0.0,0.0,0.0,0.0,0.0,0.0,0.0,0.0,0.0,0.0,0.0,0.0,0.0,0.0,0.0,0.0,0.0,0.0,0.0,0.0,0.0,0.0,0.0,0.0,0.0,0.0,0.0,0.0,-5.3711,-5.4414,0.0,0.0,0.0,0.0,0.0,0.0,0.0,0.0,-5.0793,0.0,0.0,0.0,0.0,0.0,0.0,0.0,0.0,0.0,0.0,0.0,0.0,0.0,0.0,0.0,0.0,0.0,0.0,0.0,0.0,0.0,0.0,0.0,0.0,0.0,0.0,0.0,0.0,0.0,0.0,0.0,0.0,0.0,0.0,0.0,0.0,0.0,0.0,0.0,0.0,0.0,0.0,0.0,0.0,0.0,0.0,0.0,0.0,0.0,0.0,0.0,0.0,0.0,0.0,0.0,-7.3476,-8.0429,-8.7929,-9.6172,-9.8125,-9.8164,-9.6445,-9.0937,-8.3945,0.0,0.0,0.0,0.0,0.0,0.0,0.0,0.0,0.0,0.0,0.0,0.0,0.0,0.0,0.0,0.0,0.0,0.0,0.0,0.0,0.0,0.0,0.0,0.0,0.0,0.0,0.0,0.0,0.0,0.0,0.0,0.0,0.0,0.0,0.0,0.0,0.0,0.0,0.0,0.0,-5.625,-5.7422,-6.1328,0.0,0.0,0.0,0.0,0.0,0.0,-5.2888,-5.1202,0.0,0.0,0.0,0.0,0.0,0.0,0.0,0.0,0.0,0.0,0.0,0.0,0.0,0.0,0.0,0.0,0.0,0.0,0.0,0.0,0.0,0.0,0.0,0.0,0.0,0.0,0.0,0.0,0.0,0.0,0.0,0.0,0.0,0.0,0.0,0.0,0.0,0.0,0.0,0.0,0.0,0.0,0.0,0.0,0.0,0.0,0.0,0.0,0.0,0.0,0.0,0.0,0.0,0.0,0.0,-7.0586,-8.2304,-9.0898,-9.5742,-9.6953,-9.6992,-9.5859,-8.8437,-8.1562,0.0,0.0,0.0,0.0,0.0,0.0,0.0,0.0,0.0,0.0,0.0,0.0,0.0,0.0,0.0,0.0,0.0,0.0,0.0,0.0,0.0,0.0,0.0,0.0,0.0,0.0,0.0,0.0,0.0,0.0,0.0,0.0,0.0,0.0,0.0,0.0,0.0,0.0,0.0,0.0,0.0,-6.0625,-6.3789,-6.0469,0.0,0.0,0.0,0.0,-5.6015,-5.5585,0.0,0.0,0.0,0.0,0.0,0.0,0.0,0.0,0.0,0.0,0.0,0.0,0.0,0.0,0.0,0.0,0.0,0.0,0.0,0.0,0.0,0.0,0.0,0.0,0.0,0.0,0.0,0.0,0.0,0.0,0.0,0.0,0.0,0.0,0.0,0.0,0.0,0.0,0.0,0.0,0.0,0.0,0.0,0.0,0.0,0.0,0.0,0.0,0.0,0.0,0.0,0.0,0.0,0.0,0.0,0.0,-6.9531,-7.8515,-8.6758,-9.3828,-9.5781,-9.5859,-9.4219,-8.9531,-8.2812,0.0,0.0,0.0,0.0,0.0,0.0,0.0,0.0,0.0,0.0,0.0,0.0,0.0,0.0,0.0,0.0,0.0,0.0,0.0,0.0,0.0,0.0,0.0,0.0,0.0,0.0,0.0,0.0,0.0,0.0,0.0,0.0,0.0,0.0,0.0,0.0,0.0,0.0,0.0,0.0,0.0,-6.4609,-6.4336,-6.25,-6.0703,0.0,0.0,-6.0508,-6.375,-6.593,0.0,0.0,0.0,0.0,0.0,0.0,0.0,0.0,0.0,0.0,0.0,0.0,0.0,0.0,0.0,0.0,0.0,0.0,0.0,0.0,0.0,0.0,0.0,0.0,0.0,0.0,0.0,0.0,0.0,0.0,0.0,0.0,0.0,0.0,0.0,0.0,0.0,0.0,0.0,0.0,0.0,0.0,0.0,0.0,0.0,0.0,0.0,0.0,0.0,0.0,0.0,0.0,0.0,0.0,0.0,-6.375,-6.957,-8.0781,-8.9023,-9.3711,-9.4648,-9.4414,-9.3164,-8.5703,-7.8555,0.0,0.0,0.0,0.0,0.0,0.0,0.0,0.0,0.0,0.0,0.0,0.0,0.0,0.0,0.0,0.0,0.0,0.0,0.0,0.0,0.0,0.0,0.0,0.0,0.0,0.0,0.0,0.0,0.0,0.0,0.0,0.0,0.0,0.0,0.0,0.0,0.0,0.0,0.0,0.0,0.0,0.0,-6.6367,-6.6289,0.0,0.0,0.0,-6.4258,-6.4765,0.0,0.0,0.0,0.0,0.0,0.0,0.0,0.0,0.0,0.0,0.0,0.0,0.0,0.0,0.0,0.0,0.0,0.0,0.0,0.0,0.0,0.0,0.0,0.0,0.0,0.0,0.0,0.0,0.0,0.0,0.0,0.0,0.0,0.0,0.0,0.0,0.0,0.0,0.0,0.0,0.0,0.0,0.0,0.0,0.0,0.0,0.0,0.0,0.0,0.0,0.0,0.0,0.0,0.0,0.0,0.0,0.0,-6.957,-8.3008,-9.1133,-9.3476,-9.3789,-9.3359,-9.2148,-8.3711,0.0,0.0,0.0,0.0,0.0,0.0,0.0,0.0,0.0,0.0,0.0,0.0,0.0,0.0,0.0,0.0,0.0,0.0,0.0,0.0,0.0,0.0,0.0,0.0,0.0,0.0,0.0,-3.3633,0.0,0.0,0.0,0.0,0.0,0.0,0.0,0.0,0.0,0.0,0.0,0.0,0.0,0.0,-6.5664,-6.7617,-6.9336,-7.0156,0.0,0.0,-6.789,-6.7031,-6.9433,-6.8304,0.0,0.0,0.0,0.0,0.0,0.0,0.0,0.0,0.0,0.0,0.0,0.0,0.0,0.0,0.0,0.0,0.0,0.0,0.0,0.0,0.0,0.0,0.0,0.0,0.0,0.0,0.0,0.0,0.0,0.0,0.0,0.0,0.0,0.0,0.0,0.0,0.0,0.0,0.0,0.0,0.0,0.0,0.0,0.0,0.0,0.0,0.0,0.0,0.0,0.0,0.0,0.0,0.0,0.0,-6.6015,-6.9805,-8.3047,-9.082,-9.2656,-9.3476,-9.3086,-9.1367,-8.6836,-7.9648,0.0,0.0,0.0,0.0,0.0,0.0,0.0,0.0,0.0,0.0,0.0,0.0,0.0,0.0,0.0,0.0,0.0,0.0,0.0,0.0,0.0,0.0,0.0,0.0,0.0,0.0,0.0,0.0,0.0,0.0,0.0,0.0,0.0,0.0,0.0,0.0,0.0,0.0,0.0,0.0,0.0,-6.6797,-6.6953,-7.0469,-7.3555,0.0,-7.3242,-7.2187,-7.3633,-7.7829,-7.6581,-6.3362,0.0,0.0,0.0,0.0,0.0,0.0,0.0,0.0,0.0,0.0,0.0,0.0,0.0,0.0,0.0,0.0,0.0,0.0,0.0,0.0,0.0,0.0,0.0,0.0,0.0,0.0,0.0,0.0,0.0,0.0,0.0,0.0,0.0,0.0,0.0,0.0,0.0,0.0,0.0,0.0,0.0,0.0,0.0,0.0,0.0,0.0,0.0,0.0,0.0,0.0,0.0,0.0,0.0,-6.4414,-6.9492,-8.1445,-8.8984,-9.1679,-9.2656,-9.2265,-9.0547,-8.6328,-7.9492,0.0,0.0,0.0,0.0,0.0,0.0,0.0,0.0,0.0,0.0,0.0,0.0,0.0,0.0,0.0,0.0,0.0,0.0,0.0,0.0,0.0,0.0,0.0,0.0,0.0,0.0,0.0,0.0,-4.2422,-4.2656,-4.0898,0.0,0.0,0.0,0.0,0.0,0.0,0.0,0.0,0.0,0.0,-6.7422,-7.1133,-7.4453,0.0,0.0,-7.6162,-7.5438,-7.4547,-7.4982,-7.199,-6.2091,-5.7688,0.0,0.0,0.0,0.0,0.0,0.0,0.0,0.0,0.0,0.0,0.0,0.0,0.0,0.0,0.0,0.0,0.0,0.0,0.0,0.0,0.0,0.0,0.0,0.0,0.0,0.0,0.0,0.0,0.0,0.0,0.0,0.0,0.0,0.0,0.0,0.0,0.0,0.0,0.0,0.0,0.0,0.0,0.0,0.0,0.0,0.0,0.0,0.0,0.0,0.0,0.0,0.0,-6.3398,-6.9414,-8.0234,-8.7461,-9.0859,-9.1523,-9.1133,-8.957,-8.5976,-7.9648,0.0,0.0,0.0,0.0,0.0,0.0,0.0,0.0,0.0,0.0,0.0,0.0,0.0,0.0,0.0,0.0,0.0,0.0,0.0,0.0,0.0,0.0,0.0,0.0,0.0,0.0,0.0,0.0,-4.4766,-4.3789,-4.0391,0.0,0.0,0.0,0.0,0.0,0.0,0.0,0.0,0.0,0.0,-6.8476,-7.3164,-7.5859,-7.7109,-7.6523,-7.5835,-7.4971,-7.3732,-7.2238,-6.8751,-6.1368,0.0,0.0,0.0,0.0,0.0,0.0,0.0,0.0,0.0,0.0,0.0,0.0,0.0,0.0,0.0,0.0,0.0,0.0,0.0,0.0,0.0,0.0,0.0,0.0,0.0,0.0,0.0,-4.965,0.0,0.0,-4.7413,0.0,0.0,0.0,0.0,0.0,0.0,0.0,0.0,0.0,0.0,0.0,0.0,0.0,0.0,0.0,0.0,0.0,0.0,0.0,0.0,0.0,0.0,-6.3398,-6.9492,-7.9687,-8.6601,-8.9883,-9.0078,-8.9648,-8.875,-8.6211,-8.0781,-7.2031,0.0,0.0,0.0,0.0,0.0,0.0,0.0,0.0,0.0,0.0,0.0,0.0,0.0,0.0,0.0,0.0,0.0,0.0,0.0,0.0,0.0,0.0,0.0,0.0,0.0,0.0,-4.2344,-4.25,-4.1211,0.0,0.0,0.0,0.0,0.0,0.0,0.0,0.0,0.0,-5.582,-6.3984,-7.0039,-7.1836,-7.3594,-7.4805,-7.4726,-7.1819,-7.0063,-7.1627,-7.1414,-6.8887,0.0,0.0,0.0,0.0,0.0,0.0,0.0,0.0,0.0,0.0,0.0,0.0,0.0,0.0,0.0,0.0,0.0,0.0,0.0,0.0,0.0,0.0,0.0,0.0,0.0,0.0,0.0,-5.7235,-5.5426,0.0,0.0,0.0,0.0,0.0,0.0,0.0,0.0,0.0,0.0,0.0,-6.3515,-6.5195,0.0,0.0,0.0,0.0,0.0,0.0,0.0,0.0,0.0,0.0,0.0,0.0,-6.3672,-7.039,-7.9375,-8.5703,-8.9023,-8.9687,-8.9609,-8.8711,-8.6211,-7.9492,-6.8086,0.0,0.0,0.0,0.0,0.0,0.0,0.0,0.0,0.0,0.0,0.0,0.0,0.0,0.0,0.0,0.0,0.0,0.0,0.0,0.0,0.0,0.0,0.0,0.0,0.0,-4.1211,0.0,0.0,0.0,0.0,0.0,0.0,0.0,0.0,0.0,0.0,-4.7266,-5.2578,-5.914,-6.3984,-6.8164,-7.1523,-7.3476,-7.4805,0.0,0.0,0.0,0.0,0.0,0.0,0.0,0.0,0.0,0.0,0.0,0.0,0.0,0.0,-5.7664,-5.0327,-4.8279,-4.7778,-4.8095,0.0,0.0,0.0,0.0,0.0,0.0,0.0,0.0,0.0,0.0,0.0,0.0,0.0,0.0,-6.1874,-6.061,-5.8897,0.0,0.0,0.0,0.0,0.0,0.0,0.0,0.0,-6.6601,-6.9805,-7.0117,-7.207,-7.164,-6.914,-6.7148,-6.2226,0.0,0.0,0.0,0.0,0.0,0.0,0.0,0.0,-6.3789,-7.0703,-7.8594,-8.4219,-8.7226,-8.7929,-8.7969,-8.7344,-8.4336,-7.8164,-6.8594,-6.25,-5.6914,0.0,0.0,0.0,0.0,0.0,0.0,0.0,0.0,0.0,0.0,0.0,0.0,0.0,0.0,0.0,0.0,0.0,0.0,0.0,0.0,0.0,0.0,0.0,-4.2812,0.0,0.0,0.0,0.0,0.0,0.0,0.0,0.0,0.0,-4.6758,-5.1289,-5.664,-6.2305,-6.5547,-6.8281,-7.0742,0.0,0.0,0.0,0.0,0.0,0.0,0.0,-6.4364,-6.2546,-6.098,-5.996,-5.9954,-6.1929,-6.3196,-6.2309,0.0,0.0,-5.6088,-5.3972,-5.3549,-5.4098,-5.4857,-5.5472,-5.578,-5.7627,-5.8885,0.0,0.0,0.0,0.0,-6.4897,0.0,0.0,0.0,-6.6898,-6.6151,0.0,-6.3632,0.0,0.0,0.0,0.0,-5.4922,-6.2851,0.0,0.0,-7.5195,-7.8437,-7.6328,-7.7109,-7.7031,-7.6133,-7.5117,-7.1562,-6.5586,-5.832,0.0,0.0,0.0,0.0,0.0,0.0,-6.3945,-7.082,-7.7617,-8.2304,-8.4844,-8.4961,-8.4922,-8.4765,-8.082,-7.6914,-7.3281,-6.7539,-6.207,-5.6953,-5.1953,0.0,0.0,0.0,0.0,0.0,0.0,0.0,0.0,0.0,0.0,0.0,0.0,0.0,0.0,0.0,0.0,0.0,0.0,0.0,0.0,-4.5234,0.0,0.0,0.0,0.0,0.0,0.0,0.0,0.0,0.0,-5.1328,-5.082,-5.625,-6.168,-6.5039,0.0,0.0,0.0,0.0,-7.0117,-6.8633,-6.7484,-6.7177,-6.7997,-6.7876,-6.7436,-6.6596,0.0,0.0,-6.5862,-6.5856,-6.5535,-6.3103,-6.5368,-6.6705,-6.4946,-6.2394,-6.0896,-6.0935,-6.0358,-6.0127,-6.0935,-6.2474,-6.3551,-7.9131,0.0,0.0,0.0,0.0,-7.1822,-7.4514,-7.8784,-7.7977,-7.5837,-7.2861,-7.1308,0.0,0.0,0.0,0.0,0.0,0.0,-6.875,-7.2187,-7.7344,-8.0625,-8.2344,-8.3203,-8.2851,-8.1367,-7.9258,-7.6094,-7.1992,-6.8555,-6.125,-5.0547,0.0,0.0,0.0,0.0,-6.7187,-7.3359,-7.8437,-8.2265,-8.4844,-8.4883,-8.4297,-8.3086,-8.0664,-7.7461,-7.3437,-7.043,-6.6211,-6.0508,-5.7695,0.0,0.0,0.0,0.0,0.0,0.0,0.0,0.0,0.0,0.0,0.0,0.0,0.0,0.0,0.0,0.0,0.0,0.0,0.0,-4.1601,-4.3984,-4.457,0.0,0.0,0.0,0.0,0.0,0.0,0.0,0.0,0.0,-5.8203,-6.0078,-6.2148,0.0,0.0,-6.6758,-6.5859,-6.8047,-6.9844,-6.9961,-7.0233,0.0,-7.0777,-6.965,-6.8723,-6.865,-6.9631,-7.0025,-6.896,-6.9434,-6.9741,-6.8932,-6.9616,-6.9878,-6.8743,-6.6791,-6.5589,-6.6013,-6.6013,-6.6167,-6.6974,-6.8013,-6.8526,-8.7632,-8.0708,-7.6823,-7.6361,-7.8207,-7.8207,-8.1054,-8.5517,-8.4324,-8.2453,-8.0123,-7.8311,-7.3776,-6.7415,-6.5812,0.0,0.0,0.0,-7.3711,-7.7773,-8.0508,-8.3086,-8.539,-8.6328,-8.5976,-8.457,-8.2344,-7.9844,-7.7109,-7.4726,-6.8515,-5.8867,0.0,-5.8594,-5.8281,-6.375,-6.9414,-7.4961,-7.8633,-8.1562,-8.3789,-8.3515,-8.2851,-8.1797,-8.0117,-7.7695,-7.4453,-7.2656,-6.9414,-6.4492,-6.1992,-5.789,0.0,0.0,0.0,0.0,0.0,0.0,0.0,0.0,0.0,0.0,0.0,-3.6016,-3.2461,0.0,0.0,0.0,-3.9023,-4.2109,-4.457,-4.6445,0.0,0.0,0.0,0.0,0.0,0.0,0.0,-5.3086,-5.7578,-6.1133,-6.3008,-6.3867,-6.4805,-6.6172,-6.6797,-6.7031,-6.6836,0.0,-7.0351,-7.1562,-7.2187,-7.2656,-7.2969,-7.1792,-7.085,-7.0976,-7.1008,-7.1217,-7.1445,-7.1585,-7.1583,-7.1577,-7.153,-7.1329,-7.083,-6.9649,-6.8865,-6.9048,-6.9125,-6.9396,-7.0247,-7.0827,-7.0971,-9.421,-9.2018,-8.4286,-8.2324,-8.4286,-8.4379,-8.6209,-8.8902,-8.7401,-8.6686,-8.6391,-8.4272,-8.1026,-7.6958,-7.4016,0.0,-7.414,-7.7422,-8.0195,-8.2656,-8.4258,-8.5469,-8.6328,-8.7109,-8.6992,-8.6054,-8.4453,-8.2773,-8.0859,-7.7812,-7.414,-7.0,-6.6797,-6.5,-6.4687,-6.7148,-7.0937,-7.582,-7.8281,-8.0351,-8.2031,-8.1289,-8.082,-8.0664,-7.9219,-7.75,-7.5625,-7.4023,-7.164,-6.832,-6.5078,-6.1015,-5.5976,0.0,0.0,0.0,0.0,0.0,0.0,0.0,0.0,0.0,0.0,0.0,0.0,0.0,0.0,0.0,-4.6055,0.0,-5.0234,-5.1016,0.0,0.0,0.0,-4.8242,-4.8555,-5.2812,-5.6055,-5.6992,0.0,0.0,-6.5781,-6.7344,-6.8711,-6.957,-6.957,-6.9765,-7.0508,-7.0703,-7.1484,-7.3008,-7.332,-7.3672,-7.4258,-7.3672,-7.3047,-7.3047,-7.2578,-7.2226,-7.2812,-7.2365,-7.1783,-7.1741,-7.1619,-7.153,-7.1524,-7.1381,-7.129,-7.0446,-7.0298,-7.0551,-7.1262,-7.1449,-7.1442,-9.5942,-9.4249,-9.221,-9.1018,-9.0441,-9.1018,-9.1748,-9.2441,-9.2056,-9.0492,-8.8058,-8.6549,-8.3738,-7.9956,-7.9218,-7.9336,-8.0234,-8.1719,-8.3437,-8.5234,-8.5703,-8.6367,-8.7187,-8.7383,-8.6679,-8.5234,-8.4804,-8.3359,-8.1054,-8.0195,-7.793,-7.4492,-7.3555,-7.082,-6.6562,-6.9492,-7.2656,-7.5898,-7.7148,-7.8633,-8.0234,-8.0117,-7.9375,-7.8164,-7.7695,-7.6055,-7.3047,-7.2539,-7.1015,-6.8359,-6.6758,-6.4219,-6.0312,-5.3047,0.0,0.0,0.0,0.0,0.0,0.0,0.0,0.0,0.0,-4.1016,-3.4531,0.0,-4.2812,0.0,-4.7383,-5.0898,-5.1094,-5.1875,0.0,0.0,-5.3398,-5.3789,-5.6992,-5.8437,-5.9765,-6.1289,-6.4297,-6.6836,-6.832,-6.9414,-7.043,-7.125,-7.082,-7.0234,-6.9844,-7.1484,-7.2812,-7.3281,-7.3867,-7.4336,-7.4453,-7.3867,-7.3281,-7.332,-7.2539,-7.2109,-7.2265,-7.2108,-7.191,-7.1949,-7.1906,-7.1898,-7.1875,-7.1898,-7.1836,-7.1622,-7.1374,-7.1251,-7.1446,-7.1523,-7.1523,-9.6749,-9.5595,-9.5557,-9.4826,-9.3633,-9.3672,-9.3757,-9.3846,-9.346,-9.2102,-9.0069,-8.8706,-8.6515,-8.3984,-8.4258,-8.4297,-8.4101,-8.4922,-8.5859,-8.6758,-8.6797,-8.7031,-8.75,-8.75,-8.6797,-8.5508,-8.5078,-8.3945,-8.2187,-8.1367,-7.9844,-7.7617,-7.7226,-7.5,-7.1133,-7.2031,-7.3672,-7.5859,-7.7148,-7.8398,-7.9609,-7.9336,-7.8164,-7.6133,-7.5664,-7.3828,-7.043,-6.9922,-6.8711,-6.6562,-6.5625,-6.3789,-6.0664,-5.5078,-5.0937,0.0,0.0,0.0,0.0,0.0,0.0,0.0,0.0,0.0,0.0,0.0,-4.5547,-4.5859,-5.0625,-5.3867,-5.4258,-5.5742,-5.7305,-5.8711,-5.8359,-5.9101,-6.1836,-6.2851,-6.3828,-6.5156,-6.7226,-6.8945,-6.9883,-7.0742,-7.1445,-7.1953,-7.1914,-7.168,-7.1328,-7.2422,-7.3437,-7.3828,-7.4297,-7.4453,-7.4101,-7.3633,-7.3164,-7.2773,-7.2305,-7.1992,-7.1992,-7.1992,-7.1992,-7.1992,-7.1992,-7.1992,-7.1992,-7.1992,-7.1992,-7.1992,-7.1852,-7.176,-7.171,-7.171,-7.171,-9.6942,-9.6288,-9.6288,-9.5749,-9.4788,-9.4018,-9.382,-9.3988,-9.3153,-9.241,-9.17,-9.0334,-8.8912,-8.7695,-8.8281,-8.7734,-8.6445,-8.7148,-8.75,-8.75,-8.75,-8.75,-8.75,-8.75,-8.6992,-8.6015,-8.5273,-8.4414,-8.3398,-8.1914,-8.0625,-7.957,-7.8867,-7.7578,-7.5742,-7.4219,-7.4219,-7.5703,-7.7344,-7.8515,-7.918,-7.8398,-7.6758,-7.4258,-7.3359,-7.1328,-6.7851,-6.707,-6.5937,-6.4258,-6.3515,-6.2148,-5.9922,-5.6445,-5.3398,0.0,-4.75,0.0,0.0,0.0,0.0,0.0,0.0,0.0,0.0,-4.8476,-4.9609,-5.1211,-5.5039,-5.7695,-5.832,-6.0586,-6.207,-6.2226,-6.2969,-6.3867,-6.4883,-6.6289,-6.7578,-6.8437,-6.9805,-7.0703,-7.0898,-7.1523,-7.1992,-7.2031,-7.25,-7.2851,-7.3047,-7.3164,-7.3555,-7.4336,-7.4336,-7.3828,-7.3281,-7.3125,-7.2851,-7.2187,-7.2031,-7.1992,-7.1992,-7.1992,-7.1992,-7.1992,-7.1992,-7.1992,-7.1992,-7.1992,-7.1992,-7.1992,-7.1992,-7.1953,-7.1953,-7.1953,-7.1992,-9.6442,-9.6288,-9.6288,-9.5403,-9.3941,-9.3749,-9.3725,-9.3714,-9.3079,-9.2169,-9.1125,-9.0135,-8.9222,-8.8437,-8.7929,-8.7578,-8.7265,-8.7422,-8.75,-8.75,-8.75,-8.75,-8.75,-8.75,-8.6679,-8.5195,-8.5,-8.4101,-8.2539,-8.2187,-8.0898,-7.875,-7.8555,-7.7265,-7.4961,0.0,0.0,0.0,-7.5859,-7.6445,-7.6601,-7.5781,-7.4101,-7.1562,-7.1289,0.0,-6.5312,-6.5547,-6.5039,-6.3398,-6.375,0.0,0.0,0.0,0.0,0.0,0.0,0.0,0.0,0.0,0.0,0.0,-5.25,-5.0937,-4.8984,-5.3125,-5.6367,-5.7461,-6.0117,-6.1562,-6.1055,-6.2695,-6.4101,-6.4805,-6.5664,-6.6758,-6.8281,-6.875,-6.9258,-7.0117,-7.0508,-7.0976,-7.164,-7.1914,-7.1992,-7.1992,-7.2148,-7.2265,-7.2265,-7.2851,-7.332,-7.3476,-7.3047,-7.25,-7.2265,-7.2265,-7.2265,-7.2031,-7.1992,-7.1992,-7.1992,-7.1992,-7.1992,-7.1992,-7.1992,-7.1992,-7.1953,-7.1992,-7.1914,-7.1992,-7.1953,-7.1992,-7.1992,-7.1992,-7.1992,-9.6057,-9.5672,-9.5672,-9.4672,0.0,-9.3095,-9.2864,-9.2455,-9.2393,-9.2145,-9.1734,-9.0874,-9.0069,-8.9297,-8.8476,-8.789,-8.75,-8.75,-8.75,-8.75,-8.75,-8.75,-8.75,-8.75,-8.6601,-8.4922,-8.4883,-8.3984,-8.2383,-8.2304,-8.1211,-7.914,-7.9101,-7.8008,-7.5937,-7.5898,-7.5664,-7.5234,-7.5664,-7.6094,-7.6523,-7.6133,-7.4414,-7.1484,-7.0898,0.0,0.0,0.0,0.0,0.0,0.0,0.0,0.0,0.0,0.0,-5.8437,-5.6406,-5.5234,-5.5234,-5.5234,-5.6133,-5.8281,-5.8828,-5.7656,-5.4258,-5.7539,-6.0156,-6.1015,-6.3047,-6.4297,-6.4336,-6.5859,-6.7031,-6.7461,-6.789,-6.8711,-6.9844,-7.0039,-7.039,-7.1172,-7.1328,-7.1523,-7.1914,-7.1992,-7.1992,-7.1992,-7.1992,-7.1992,-7.2031,-7.2383,-7.2656,-7.2656,-7.2344,-7.1992,-7.1992,-7.1992,-7.1992,-7.1992,-7.1992,-7.1992,-7.1992,-7.1992,-7.1992,-7.1992,-7.1992,-7.1914,-7.1445,-7.1367,-7.1211,-7.082,-7.0703,-7.0703,-7.0781,-7.1094,-7.1367,-9.5634,-9.4998,-9.4844,-9.3864,-9.2518,-9.2518,-9.2066,-9.1338,-9.1728,0.0,0.0,-9.1523,-9.0664,-8.9922,-8.8945,-8.8125,-8.75,-8.75,-8.75,-8.75,-8.75,-8.75,-8.75,-8.75,-8.6562,-8.4961,-8.4883,-8.3984,-8.2344,-8.2304,-8.1406,-7.9844,-7.9726,-7.8867,-7.7305,-7.7226,-7.6836,-7.6172,-7.5976,-7.625,-7.6953,-7.6836,-7.5156,-7.1836,-7.1094,-6.875,-6.4687,-6.332,-6.2148,-6.1133,-6.0586,-6.0625,-6.125,-6.1328,-6.164,-6.2305,-6.2383,-6.2383,-6.2383,-6.2383,-6.2539,-6.2812,-6.4297,-6.3867,-6.0781,-6.1953,-6.3203,-6.4101,-6.5469,-6.6601,-6.7265,-6.8594,-6.9531,-6.9609,-6.9687,-7.0,-7.0781,-7.0937,-7.1211,-7.1836,-7.1953,-7.1992,-7.1992,-7.1992,-7.1992,-7.1992,-7.1992,-7.1992,-7.1992,-7.2031,-7.207,-7.207,-7.2031,-7.1992,-7.1992,-7.1992,-7.1992,-7.1992,-7.1992,-7.1992,-7.1992,-7.1875,-7.1797,-7.168,-7.168,-7.1211,-7.0625,-7.0469,-7.0234,-6.9531,-6.9414,-6.9414,-6.9492,-6.9883,-7.0273,-9.5095,-9.4941,-9.4172,-9.3364,-9.2518,-9.2518,-9.2248,-9.1811,-9.1849,-9.2167,-9.25,-9.0898,-9.0117,-8.9922,-8.8359,-8.7617,-8.75,-8.75,-8.75,-8.75,-8.75,-8.75,-8.75,-8.75,-8.6601,-8.5,-8.4883,-8.3984,-8.2461,-8.2304,-8.1406,-7.9922,-7.9726,-7.8867,-7.7344,-7.7226,-7.7148,-7.6992,-7.6289,-7.5937,-7.6055,-7.5351,-7.3672,-7.1055,-7.082,-6.9062,-6.5586,-6.5859,-6.543,-6.3867,-6.4336,-6.4765,-6.4844,-6.4844,-6.4922,-6.5039,-6.5039,-6.5039,-6.5039,-6.5039,-6.5703,-6.7148,-6.8164,-6.7851,-6.6055,-6.6719,-6.7656,-6.8476,-6.8711,-6.8945,-6.9062,-6.9297,-6.9805,-7.039,-7.0508,-7.0859,-7.164,-7.1758,-7.1836,-7.1953,-7.1992,-7.1992,-7.1992,-7.1992,-7.1992,-7.1992,-7.1992,-7.1992,-7.1992,-7.1992,-7.1992,-7.1992,-7.1992,-7.1992,-7.1992,-7.1992,-7.1953,-7.1992,-7.1953,-7.1875,-7.1758,-7.1289,-7.0937,-7.0898,-7.039,-6.9883,-6.9609,-6.957,-6.9492,-6.9258,-6.918,-6.9258,-6.9219,-6.8945,-6.8828,-9.448,-9.3633,-9.321,-9.2556,-9.1787,-9.1787,-9.1842,-9.1905,-9.1875,-9.1894,-9.1758,-9.0547,-8.9726,-8.9219,-8.8047,-8.75,-8.75,-8.75,-8.75,-8.75,-8.75,-8.75,-8.75,-8.75,-8.6562,-8.4961,-8.4883,-8.4023,-8.2422,-8.2304,-8.1679,-8.039,-7.9531,-7.8672,-7.793,-7.7461,-7.7226,-7.7187,-7.6797,-7.6601,-7.6601,-7.6211,-7.5195,-7.3555,-7.2656,-7.0937,-6.8476,-6.7851,-6.7031,-6.5742,-6.6094,-6.6523,-6.6992,-6.7031,-6.7187,-6.7617,-6.7656,-6.7656,-6.7656,-6.7695,-6.8242,-6.9453,-6.9883,-7.0,-6.9687,-6.918,-6.9062,-6.9414,-6.9844,-7.0156,-7.0117,-7.0508,-7.0976,-7.1367,-7.1406,-7.1562,-7.1914,-7.1992,-7.1992,-7.1992,-7.1992,-7.1992,-7.1992,-7.1992,-7.1992,-7.1992,-7.1992,-7.1992,-7.1992,-7.1992,-7.1992,-7.1992,-7.1992,-7.1992,-7.1992,-7.1992,-7.1797,-7.1406,-7.1289,-7.1094,-7.0742,-7.0195,-7.0078,-7.0039,-6.9687,-6.9297,-6.8867,-6.875,-6.8594,-6.8086,-6.8047,-6.8047,-6.7969,-6.7734,-6.7695,-9.3672,-9.2518,-9.2287,-9.171,-9.0941,-9.1133,-9.1353,-9.1633,-9.1798,-9.1582,-9.0937,-9.0273,-8.9531,-8.8672,-8.7851,-8.75,-8.75,-8.75,-8.75,-8.75,-8.75,-8.75,-8.75,-8.75,-8.6601,-8.5078,-8.4883,-8.3984,-8.2461,-8.2304,-8.1875,-8.0898,-7.9336,-7.8476,-7.8476,-7.7617,-7.7226,-7.7226,-7.7226,-7.7226,-7.7226,-7.7226,-7.6797,-7.5859,-7.4609,-7.3164,-7.164,-7.0117,-6.8945,-6.8125,-6.7851,-6.8047,-6.8711,-6.875,-6.914,-6.9883,-7.0,-7.0,-7.0,-7.0039,-7.0312,-7.0937,-7.0976,-7.1289,-7.1797,-7.082,-7.0039,-7.0078,-7.0625,-7.1015,-7.1055,-7.1562,-7.1992,-7.1992,-7.1992,-7.1953,-7.1992,-7.1992,-7.1992,-7.1992,-7.1992,-7.1992,-7.1992,-7.1992,-7.1992,-7.1992,-7.1992,-7.1992,-7.1992,-7.1992,-7.1992,-7.1992,-7.1992,-7.1992,-7.1992,-7.1992,-7.164,-7.0859,-7.0742,-7.043,-6.9805,-6.9336,-6.914,-6.918,-6.8984,-6.8555,-6.8008,-6.789,-6.7656,-6.7187,-6.7109,-6.6992,-6.7031,-6.6992,-6.6914,-9.2633,-9.2402,-9.1672,-9.0825,-9.0171,-9.0864,-9.1005,-9.0846,-9.1534,-9.1192,-9.0195,-9.0039,-8.9531,-8.8672,-8.789,-8.7539,-8.7539,-8.75,-8.75,-8.75,-8.75,-8.75,-8.75,-8.75,-8.6601,-8.5078,-8.4922,-8.4023,-8.2461,-8.2304,-8.1875,-8.0898,-7.9336,-7.8555,-7.8398,-7.7656,-7.7226,-7.7226,-7.7226,-7.7226,-7.7226,-7.7226,-7.6797,-7.5937,-7.5742,-7.5234,-7.414,-7.332,-7.2422,-7.1562,-7.0742,-7.039,-7.0469,-7.0469,-7.0859,-7.164,-7.1719,-7.1758,-7.1719,-7.1758,-7.1797,-7.1875,-7.1914,-7.1953,-7.2031,-7.1914,-7.1758,-7.1758,-7.1797,-7.1797,-7.1875,-7.1953,-7.1992,-7.1992,-7.1992,-7.1992,-7.1992,-7.1992,-7.1992,-7.1992,-7.1992,-7.1992,-7.1992,-7.1992,-7.1992,-7.1992,-7.1992,-7.1992,-7.1992,-7.1992,-7.1992,-7.1992,-7.1992,-7.1992,-7.1992,-7.1992,-7.1523,-7.082,-7.0625,-7.0117,-6.9336,-6.8672,-6.832,-6.8242,-6.7773,-6.7344,-6.7226,-6.7031,-6.707,-6.6992,-6.6914,-6.6914,-6.6914,-6.6914,-6.6914,-9.221,-9.171,-9.1364,-9.071,-9.0017,-9.0287,-9.0179,-8.9921,-9.0756,-9.0724,-9.0117,-9.0547,-9.0,-8.8711,-8.8359,-8.8203,-8.8164,-8.7734,-8.75,-8.75,-8.75,-8.75,-8.75,-8.75,-8.6836,-8.5664,-8.5156,-8.4258,-8.3164,-8.2578,-8.2109,-8.1679,-8.0547,-7.9726,-7.918,-7.8398,-7.7734,-7.7226,-7.7226,-7.7226,-7.7226,-7.7226,-7.7031,-7.664,-7.6172,-7.5781,-7.5351,-7.4531,-7.3906,-7.3555,-7.3203,-7.2773,-7.2265,-7.2226,-7.2148,-7.2031,-7.1992,-7.1992,-7.1992,-7.25,-7.2539,-7.2031,-7.2969,-7.332,-7.2851,-7.3242,-7.332,-7.2812,-7.2305,-7.1992,-7.1992,-7.1992,-7.1992,-7.1992,-7.1992,-7.1992,-7.1992,-7.1992,-7.1992,-7.1992,-7.1992,-7.1992,-7.1992,-7.1992,-7.1992,-7.1992,-7.1992,-7.1992,-7.1992,-7.1992,-7.1992,-7.1992,-7.1992,-7.1992,-7.1953,-7.1523,-7.0937,-7.0195,-6.9531,-6.8906,-6.8203,-6.7734,-6.7422,-6.7461,-6.7148,-6.6914,-6.6953,-6.6914,-6.6914,-6.6914,-6.6914,-6.6914,-6.6914,-6.6914,-6.6914,-9.1787,-9.121,-9.0941,-9.0364,-8.9594,-8.9594,-8.9328,-8.9164,-9.0133,-9.0222,-8.9765,-9.082,-9.0469,-8.9179,-8.9062,-8.8945,-8.8672,-8.8086,-8.7695,-8.7539,-8.75,-8.75,-8.75,-8.75,-8.7031,-8.6172,-8.5312,-8.4336,-8.332,-8.2656,-8.2304,-8.2187,-8.1406,-8.0703,-8.0,-7.9062,-7.8203,-7.7578,-7.7344,-7.7226,-7.7226,-7.7226,-7.7226,-7.7148,-7.6601,-7.625,-7.625,-7.539,-7.4961,-7.4961,-7.4726,-7.4336,-7.3711,-7.3633,-7.3359,-7.2812,-7.2695,-7.2695,-7.2734,-7.332,-7.3398,-7.289,-7.3945,-7.4336,-7.3906,-7.4258,-7.4297,-7.375,-7.3086,-7.2656,-7.2031,-7.1992,-7.1992,-7.1992,-7.1992,-7.1992,-7.1992,-7.1992,-7.1992,-7.1992,-7.1992,-7.1992,-7.1992,-7.1992,-7.1992,-7.1992,-7.1992,-7.1992,-7.1992,-7.1992,-7.1992,-7.1992,-7.1992,-7.1875,-7.168,-7.1211,-7.0351,-6.9375,-6.8633,-6.8086,-6.7109,-6.6953,-6.6914,-6.7148,-6.6953,-6.6914,-6.6914,-6.6914,-6.6914,-6.6914,-6.6914,-6.6914,-6.6914,-6.6914,-6.6914,-9.1248,-9.1056,-9.0287,-8.9517,-8.8748,-8.8786,-8.853,-8.8343,-8.986,-8.9905,-8.9179,-9.0547,-9.0781,-8.9961,-8.9961,-8.9492,-8.8789,-8.8633,-8.8164,-8.7539,-8.75,-8.75,-8.75,-8.75,-8.707,-8.6289,-8.5351,-8.4062,-8.25,-8.2344,-8.2304,-8.2265,-8.1484,-8.1015,-8.0664,-7.9336,-7.8515,-7.832,-7.7578,-7.7226,-7.7226,-7.7226,-7.7226,-7.7187,-7.7148,-7.707,-7.7031,-7.6328,-7.5859,-7.5859,-7.5156,-7.4648,-7.4531,-7.4531,-7.4453,-7.4375,-7.4414,-7.4414,-7.4375,-7.4453,-7.4453,-7.4453,-7.4609,-7.4609,-7.457,-7.4726,-7.4765,-7.457,-7.4453,-7.3789,-7.2461,-7.2305,-7.2226,-7.2187,-7.207,-7.207,-7.2031,-7.207,-7.1992,-7.1992,-7.1992,-7.1992,-7.1992,-7.1992,-7.1992,-7.1992,-7.1992,-7.1992,-7.1992,-7.1992,-7.1992,-7.1992,-7.1953,-7.1719,-7.0976,-7.0586,-6.9883,-6.9023,-6.8437,-6.789,-6.7344,-6.6914,-6.6914,-6.6914,-6.6914,-6.6914,-6.6914,-6.6914,-6.6914,-6.6914,-6.6914,-6.6914,-6.6914,-6.6914,-6.6914,-9.0864,-9.0287,-8.9479,-8.8632,-8.794,-8.844,-8.8491,-8.8218,-8.9277,-8.9671,-8.9648,-9.0195,-9.0586,-9.0859,-9.082,-9.0351,-8.9531,-8.8984,-8.8281,-8.7578,-8.75,-8.75,-8.75,-8.75,-8.7383,-8.6875,-8.5586,-8.4023,-8.2461,-8.2304,-8.2304,-8.2265,-8.1992,-8.1562,-8.0898,-7.9883,-7.9023,-7.8476,-7.7617,-7.7226,-7.7226,-7.7226,-7.7226,-7.7226,-7.7226,-7.7226,-7.7226,-7.6875,-7.6719,-7.6719,-7.6406,-7.6015,-7.5469,-7.4922,-7.457,-7.457,-7.457,-7.457,-7.4648,-7.5117,-7.5195,-7.4726,-7.5664,-7.5937,-7.5664,-7.5898,-7.6055,-7.5586,-7.543,-7.4844,-7.4023,-7.3672,-7.3672,-7.3594,-7.3164,-7.2812,-7.2734,-7.2344,-7.1992,-7.1992,-7.1992,-7.1992,-7.1992,-7.1992,-7.1992,-7.1992,-7.1992,-7.1992,-7.1992,-7.1992,-7.1992,-7.1992,-7.1953,-7.1523,-7.0078,-6.9922,-6.957,-6.8945,-6.832,-6.7578,-6.6953,-6.6914,-6.6914,-6.6914,-6.6914,-6.6914,-6.6914,-6.6914,-6.6914,-6.6914,-6.6914,-6.6914,-6.6914,-6.6914,-6.6914,-9.021,-8.9787,-8.9017,-8.8517,-8.8248,-8.8556,-8.8646,-8.8551,-8.9043,-8.9398,-8.957,-8.957,-8.9922,-9.039,-9.0469,-9.0156,-8.9609,-8.9219,-8.8554,-8.7578,-8.75,-8.75,-8.75,-8.75,-8.75,-8.7226,-8.5742,-8.4101,-8.2851,-8.2422,-8.2304,-8.2304,-8.2304,-8.2031,-8.1367,-8.0547,-7.9726,-7.8906,-7.8047,-7.75,-7.7265,-7.7226,-7.7226,-7.7226,-7.7226,-7.7226,-7.7226,-7.7226,-7.7226,-7.7226,-7.7226,-7.6953,-7.6328,-7.5781,-7.543,-7.543,-7.5469,-7.543,-7.5508,-7.5976,-7.6055,-7.5547,-7.6445,-7.6914,-7.6406,-7.6875,-7.6836,-7.6484,-7.6328,-7.6015,-7.5625,-7.543,-7.5234,-7.4726,-7.4062,-7.375,-7.3672,-7.2969,-7.2383,-7.207,-7.1992,-7.1992,-7.1992,-7.1992,-7.1992,-7.1992,-7.1992,-7.1992,-7.1992,-7.1992,-7.1992,-7.1992,-7.1992,-7.1601,-7.0664,-7.0234,-6.9062,-6.8281,-6.793,-6.7226,-6.6914,-6.6914,-6.6914,-6.6914,-6.6914,-6.6914,-6.6914,-6.6914,-6.6914,-6.6914,-6.6914,-6.6914,-6.6914,-6.6914,-6.6914,-8.9248,-8.9748,-8.9017,-8.9056,-8.944,-8.894,-8.8903,-8.9158,-8.9182,-8.9042,-8.8828,-8.875,-8.8789,-8.8828,-8.9023,-8.8789,-8.8945,-8.9414,-8.8906,-8.7617,-8.75,-8.75,-8.75,-8.75,-8.7422,-8.7265,-8.5703,-8.4453,-8.3476,-8.2734,-8.2304,-8.2304,-8.2304,-8.2265,-8.2265,-8.1289,-8.0508,-7.9687,-7.8867,-7.8047,-7.7344,-7.7265,-7.7226,-7.7226,-7.7226,-7.7226,-7.7226,-7.7226,-7.7226,-7.7226,-7.7226,-7.7226,-7.7109,-7.6992,-7.7109,-7.6992,-7.707,-7.7109,-7.707,-7.707,-7.7031,-7.6953,-7.7148,-7.7187,-7.707,-7.7148,-7.7148,-7.707,-7.707,-7.707,-7.7031,-7.6953,-7.6406,-7.5,-7.4726,-7.4609,-7.4453,-7.3828,-7.2969,-7.2305,-7.207,-7.1992,-7.1992,-7.1992,-7.1992,-7.1992,-7.1992,-7.1992,-7.1992,-7.1992,-7.1992,-7.1992,-7.1992,-7.1719,-7.1172,-7.0508,-6.8906,-6.7539,-6.7305,-6.6914,-6.6914,-6.6914,-6.6914,-6.6914,-6.6914,-6.6914,-6.6914,-6.6914,-6.6914,-6.6914,-6.6914,-6.6914,-6.6914,-6.6914,-6.6914,-8.9671,-8.9787,-8.9017,-8.8825,-8.9017,-8.8786,-8.8851,-8.9011,-8.8682,-8.8482,-8.8396,-8.8043,-8.8164,-8.8594,-8.8672,-8.8672,-8.8711,-8.8984,-8.8515,-8.7656,-8.75,-8.75,-8.75,-8.75,-8.7187,-8.6523,-8.5469,-8.4453,-8.3594,-8.2734,-8.2304,-8.2304,-8.2304,-8.2304,-8.2265,-8.1445,-8.082,-8.0469,-7.918,-7.8359,-7.8047,-7.75,-7.7226,-7.7226,-7.7226,-7.7226,-7.7226,-7.7226,-7.7226,-7.7226,-7.7226,-7.7226,-7.7226,-7.7226,-7.7226,-7.7226,-7.7226,-7.7226,-7.7226,-7.7226,-7.7226,-7.7226,-7.7226,-7.7226,-7.7226,-7.7226,-7.7226,-7.7226,-7.7226,-7.7226,-7.7226,-7.7226,-7.6914,-7.6406,-7.5859,-7.5508,-7.5312,-7.4219,-7.3281,-7.289,-7.2383,-7.2031,-7.1992,-7.1992,-7.1992,-7.1992,-7.1992,-7.1992,-7.1992,-7.1992,-7.1992,-7.1992,-7.1953,-7.1836,-7.125,-7.0625,-6.9414,-6.8086,-6.75,-6.6953,-6.6914,-6.6914,-6.6914,-6.6914,-6.6914,-6.6914,-6.6914,-6.6914,-6.6914,-6.6914,-6.6914,-6.6914,-6.6914,-6.6914,-6.6914,-8.9633,-8.9825,-8.9363,-8.9325,-8.9594,-8.9633,-8.9725,-8.9759,-8.8925,-8.8676,-8.8674,-8.7883,-8.7773,-8.8164,-8.8242,-8.8242,-8.8242,-8.8242,-8.7969,-8.7539,-8.75,-8.75,-8.75,-8.75,-8.7265,-8.664,-8.5781,-8.4922,-8.4062,-8.3242,-8.2617,-8.2383,-8.2304,-8.2304,-8.2265,-8.1797,-8.1367,-8.0898,-8.0,-7.9297,-7.8906,-7.8398,-7.8125,-7.8125,-7.8125,-7.8125,-7.8125,-7.7851,-7.7539,-7.7265,-7.7226,-7.7226,-7.7226,-7.7226,-7.7226,-7.7226,-7.7226,-7.7226,-7.7226,-7.7226,-7.7226,-7.7226,-7.7226,-7.7226,-7.7226,-7.7226,-7.7226,-7.7226,-7.7226,-7.7226,-7.7226,-7.7226,-7.7226,-7.7187,-7.6719,-7.625,-7.5859,-7.4961,-7.3945,-7.3437,-7.2812,-7.2383,-7.2109,-7.1992,-7.1992,-7.1992,-7.1992,-7.1992,-7.1992,-7.1992,-7.1992,-7.1992,-7.1992,-7.1719,-7.1289,-7.0625,-6.9883,-6.8867,-6.793,-6.7305,-6.6914,-6.6914,-6.6914,-6.6914,-6.6914,-6.6914,-6.6914,-6.6914,-6.6914,-6.6914,-6.6914,-6.6914,-6.6914,-6.6914,-6.6914,-8.9286,-8.994,-8.9979,-9.0437,-9.1048,-9.101,-9.0921,-9.0959,-8.977,-8.9164,-8.9064,-8.8,-8.75,-8.7539,-8.7617,-8.7617,-8.7539,-8.7617,-8.7617,-8.75,-8.75,-8.75,-8.75,-8.75,-8.7422,-8.7265,-8.6523,-8.5664,-8.4726,-8.3906,-8.3164,-8.2383,-8.2304,-8.2304,-8.2265,-8.2265,-8.1836,-8.125,-8.0976,-8.0429,-7.9805,-7.9609,-7.957,-7.9531,-7.9531,-7.9492,-7.9375,-7.8867,-7.8125,-7.7344,-7.7226,-7.7226,-7.7226,-7.7226,-7.7226,-7.7226,-7.7226,-7.7226,-7.7226,-7.7383,-7.7305,-7.7226,-7.7344,-7.7226,-7.7226,-7.7226,-7.7226,-7.7226,-7.7226,-7.7226,-7.7226,-7.7226,-7.7226,-7.7226,-7.7109,-7.6758,-7.6133,-7.5859,-7.5078,-7.3945,-7.3437,-7.3125,-7.2461,-7.2305,-7.2187,-7.2148,-7.2109,-7.1992,-7.1992,-7.1992,-7.1992,-7.1992,-7.1992,-7.1875,-7.1523,-7.0859,-7.0195,-6.9726,-6.875,-6.7969,-6.7187,-6.707,-6.6914,-6.6914,-6.7031,-6.6992,-6.6914,-6.6914,-6.6914,-6.6914,-6.6914,-6.6914,-6.6914,-6.6914,-6.6953,-9.0671,-9.0864,-9.0864,-9.1088,-9.1311,-9.0798,-9.03,-8.9848,-8.9047,-8.8472,-8.7865,-8.7609,-8.75,-8.75,-8.75,-8.75,-8.75,-8.75,-8.75,-8.75,-8.75,-8.75,-8.75,-8.75,-8.7461,-8.7344,-8.6523,-8.5742,-8.4883,-8.4101,-8.3203,-8.2344,-8.2383,-8.2344,-8.2304,-8.2304,-8.2226,-8.1875,-8.1289,-8.0937,-8.0625,-8.0039,-7.9726,-7.9726,-7.9765,-7.9765,-7.9726,-7.9492,-7.8672,-7.7344,-7.7226,-7.7226,-7.7305,-7.7305,-7.7383,-7.7344,-7.7305,-7.7265,-7.7383,-7.7812,-7.7851,-7.7344,-7.7851,-7.789,-7.7265,-7.7226,-7.7226,-7.7226,-7.7226,-7.7226,-7.7226,-7.7226,-7.7226,-7.7226,-7.7226,-7.7109,-7.6797,-7.625,-7.5664,-7.5234,-7.4648,-7.414,-7.375,-7.332,-7.2969,-7.289,-7.25,-7.207,-7.2187,-7.1992,-7.1992,-7.1992,-7.1992,-7.1992,-7.1758,-7.1094,-7.0625,-7.043,-6.9687,-6.8828,-6.8047,-6.7461,-6.7148,-6.6914,-6.7344,-6.7461,-6.7109,-6.6914,-6.6914,-6.6992,-6.6914,-6.6914,-6.6914,-6.6953,-6.707,-9.121,-9.1189,-9.0934,-9.1074,-9.1399,-9.0734,-9.0382,-9.0189,-8.9348,-8.8704,-8.8181,-8.7649,-8.75,-8.75,-8.75,-8.75,-8.75,-8.75,-8.75,-8.75,-8.75,-8.75,-8.7422,-8.7226,-8.6953,-8.6836,-8.6094,-8.5429,-8.4883,-8.4375,-8.3711,-8.3047,-8.2851,-8.2656,-8.2304,-8.2304,-8.2304,-8.2226,-8.1758,-8.1562,-8.1484,-8.1094,-8.0859,-8.0781,-8.0781,-8.0703,-8.0351,-8.0234,-7.9609,-7.8555,-7.8281,-7.8242,-7.8242,-7.8242,-7.8281,-7.8242,-7.8242,-7.8281,-7.832,-7.875,-7.875,-7.8437,-7.8789,-7.8711,-7.8437,-7.8242,-7.8203,-7.7812,-7.7773,-7.7578,-7.7265,-7.7226,-7.7226,-7.7226,-7.7226,-7.7226,-7.7226,-7.6758,-7.6289,-7.5937,-7.5469,-7.4961,-7.4687,-7.414,-7.3945,-7.3672,-7.3125,-7.2812,-7.2578,-7.2265,-7.1992,-7.1992,-7.1992,-7.1992,-7.1992,-7.1523,-7.125,-7.1055,-7.0586,-6.9726,-6.9023,-6.8242,-6.8047,-6.789,-6.793,-6.7851,-6.7617,-6.7344,-6.7226,-6.7226,-6.7031,-6.7109,-6.7265,-6.7461,-6.75,-9.121,-9.1168,-9.0639,-9.0856,-9.1423,-9.1024,-9.1124,-9.1442,-9.0403,-8.9665,-8.9213,-8.8159,-8.7656,-8.75,-8.75,-8.75,-8.75,-8.75,-8.75,-8.75,-8.75,-8.75,-8.7422,-8.6953,-8.6679,-8.6484,-8.5508,-8.5078,-8.4922,-8.4844,-8.4375,-8.375,-8.3594,-8.3242,-8.2773,-8.2539,-8.2422,-8.2304,-8.2226,-8.2148,-8.2148,-8.2031,-8.1953,-8.1953,-8.1992,-8.1719,-8.1289,-8.1094,-8.0742,-8.0,-7.9805,-7.9531,-7.957,-7.9648,-7.9609,-7.9531,-7.9453,-7.9492,-7.9648,-7.9648,-7.9726,-7.957,-7.9648,-7.9765,-7.9531,-7.9414,-7.918,-7.8672,-7.8633,-7.8242,-7.7617,-7.7383,-7.7344,-7.7265,-7.7226,-7.7226,-7.7226,-7.7187,-7.6875,-7.6211,-7.6055,-7.5625,-7.5156,-7.4765,-7.4726,-7.4648,-7.4023,-7.3398,-7.3086,-7.2695,-7.2305,-7.1992,-7.1992,-7.1992,-7.1992,-7.1914,-7.1836,-7.1719,-7.1289,-7.0625,-7.0117,-6.957,-6.9375,-6.918,-6.8789,-6.8555,-6.8398,-6.8125,-6.793,-6.7851,-6.793,-6.8008,-6.8086,-6.8281,-6.8359,-9.121,-9.1206,-9.1233,-9.1471,-9.1782,-9.1834,-9.1683,-9.1445,-9.1094,-9.0117,-8.9062,-8.8554,-8.8047,-8.75,-8.75,-8.75,-8.75,-8.75,-8.75,-8.75,-8.75,-8.75,-8.7461,-8.7226,-8.7187,-8.6914,-8.6289,-8.5586,-8.5117,-8.4922,-8.4492,-8.3867,-8.4336,-8.4179,-8.3437,-8.332,-8.2929,-8.2461,-8.2344,-8.2344,-8.2304,-8.2304,-8.2304,-8.2304,-8.2304,-8.2226,-8.2109,-8.2031,-8.1914,-8.1484,-8.0547,-7.9922,-7.9922,-7.9883,-7.9883,-7.9922,-7.9844,-7.9765,-7.9844,-8.0351,-8.0429,-8.0,-8.039,-8.0429,-7.9765,-7.9805,-7.9687,-7.9453,-7.9414,-7.9101,-7.8359,-7.8242,-7.793,-7.75,-7.7305,-7.7265,-7.7226,-7.7226,-7.707,-7.6953,-7.6836,-7.6836,-7.6601,-7.5898,-7.5703,-7.5547,-7.4922,-7.4101,-7.3633,-7.3242,-7.2734,-7.2305,-7.1992,-7.1992,-7.1992,-7.1992,-7.1992,-7.1992,-7.168,-7.1445,-7.0937,-7.0508,-7.0156,-6.9765,-6.9375,-6.9219,-6.9258,-6.918,-6.9023,-6.8945,-6.8789,-6.8867,-6.8984,-6.914,-6.9414,-9.121,-9.1202,-9.1115,-9.1402,-9.184,-9.1796,-9.1826,-9.1719,-9.0976,-9.0195,-8.9258,-8.8554,-8.789,-8.7539,-8.75,-8.75,-8.75,-8.75,-8.75,-8.75,-8.75,-8.75,-8.75,-8.7422,-8.7344,-8.6875,-8.5976,-8.5469,-8.5508,-8.5469,-8.5351,-8.4883,-8.5273,-8.5,-8.4336,-8.4219,-8.375,-8.3125,-8.289,-8.2734,-8.2383,-8.2304,-8.2304,-8.2304,-8.2304,-8.2304,-8.2265,-8.2304,-8.2304,-8.207,-8.1445,-8.0898,-8.0898,-8.0937,-8.0898,-8.0937,-8.0937,-8.0937,-8.1094,-8.1289,-8.1445,-8.0937,-8.1367,-8.1289,-8.1054,-8.0937,-8.0664,-8.0429,-8.0234,-7.9961,-7.918,-7.9062,-7.8633,-7.8047,-7.7773,-7.7656,-7.7344,-7.7226,-7.7226,-7.7226,-7.7148,-7.7148,-7.6953,-7.6601,-7.6562,-7.6367,-7.5781,-7.5,-7.457,-7.4101,-7.3281,-7.2734,-7.2226,-7.2031,-7.1992,-7.1992,-7.1992,-7.1992,-7.1914,-7.1797,-7.1601,-7.1211,-7.082,-7.0547,-7.0351,-7.0273,-7.0273,-7.0195,-6.9883,-6.9414,-6.9297,-6.9609,-6.9844,-7.0,-7.039,-9.121,-9.1164,-9.0862,-9.1178,-9.1747,-9.1477,-9.1678,-9.2031,-9.0703,-8.9922,-8.957,-8.8242,-8.7773,-8.75,-8.75,-8.75,-8.75,-8.75,-8.75,-8.75,-8.75,-8.75,-8.75,-8.7422,-8.7187,-8.6367,-8.5703,-8.5625,-8.6015,-8.6211,-8.5976,-8.6133,-8.6367,-8.5898,-8.5312,-8.5078,-8.4648,-8.3906,-8.3789,-8.3554,-8.3047,-8.289,-8.2851,-8.2617,-8.2344,-8.2304,-8.2304,-8.2304,-8.2304,-8.2304,-8.2304,-8.2304,-8.2304,-8.2304,-8.2304,-8.2226,-8.207,-8.2031,-8.1992,-8.2148,-8.2187,-8.2304,-8.2265,-8.2265,-8.2187,-8.2031,-8.1758,-8.1445,-8.1133,-8.082,-8.0039,-7.9922,-7.9492,-7.8867,-7.8594,-7.8125,-7.7617,-7.7305,-7.7226,-7.7226,-7.7226,-7.7226,-7.7226,-7.7031,-7.7148,-7.7109,-7.6484,-7.5937,-7.5469,-7.4922,-7.4101,-7.3242,-7.2695,-7.2148,-7.207,-7.1992,-7.1992,-7.1992,-7.1992,-7.1992,-7.1992,-7.1719,-7.1406,-7.164,-7.1562,-7.1328,-7.1094,-7.1015,-7.0586,-6.9922,-7.0,-7.0547,-7.0781,-7.0898,-7.1211,-9.121,-9.1206,-9.1304,-9.159,-9.1784,-9.1291,-9.1228,-9.1328,-9.0429,-8.957,-8.8945,-8.8594,-8.8008,-8.7656,-8.75,-8.75,-8.75,-8.75,-8.75,-8.75,-8.75,-8.75,-8.75,-8.75,-8.7383,-8.7109,-8.6445,-8.6133,-8.6211,-8.6211,-8.6367,-8.6406,-8.6875,-8.6758,-8.6211,-8.5937,-8.5547,-8.4804,-8.4687,-8.4531,-8.4297,-8.4179,-8.3945,-8.3398,-8.289,-8.2539,-8.2383,-8.2344,-8.2304,-8.2304,-8.2304,-8.2304,-8.2304,-8.2304,-8.2304,-8.2304,-8.2304,-8.2304,-8.2304,-8.2304,-8.2304,-8.2304,-8.2304,-8.2304,-8.2304,-8.2304,-8.2148,-8.2109,-8.1914,-8.1679,-8.0898,-8.0781,-8.0351,-7.9648,-7.9023,-7.8594,-7.8242,-7.7773,-7.7383,-7.7383,-7.7344,-7.7226,-7.7226,-7.7226,-7.7226,-7.7226,-7.6914,-7.6445,-7.6015,-7.5547,-7.4922,-7.4062,-7.3203,-7.2617,-7.2148,-7.207,-7.1992,-7.1992,-7.1992,-7.1992,-7.1992,-7.1992,-7.1992,-7.1992,-7.1992,-7.1797,-7.168,-7.164,-7.1484,-7.0976,-7.125,-7.1523,-7.1484,-7.1445,-7.1562,-9.121,-9.1206,-9.1427,-9.1661,-9.1737,-9.1265,-9.1099,-9.1094,-8.9922,-8.9101,-8.8672,-8.8281,-8.789,-8.7578,-8.75,-8.75,-8.75,-8.75,-8.75,-8.75,-8.75,-8.75,-8.75,-8.75,-8.75,-8.7383,-8.707,-8.6836,-8.6875,-8.6914,-8.6836,-8.6953,-8.7344,-8.7265,-8.6992,-8.6836,-8.6367,-8.5781,-8.5547,-8.5351,-8.5,-8.4922,-8.4609,-8.4258,-8.3867,-8.3476,-8.3008,-8.2969,-8.2734,-8.2422,-8.2304,-8.2304,-8.2304,-8.2304,-8.2304,-8.2304,-8.2304,-8.2304,-8.2304,-8.2304,-8.2304,-8.2304,-8.2304,-8.2304,-8.2304,-8.2304,-8.2304,-8.2304,-8.2304,-8.2148,-8.1679,-8.164,-8.125,-8.0547,-7.9961,-7.957,-7.9062,-7.8359,-7.7969,-7.7734,-7.75,-7.7344,-7.7226,-7.7226,-7.7226,-7.7226,-7.7226,-7.6914,-7.6484,-7.6055,-7.5586,-7.4844,-7.3945,-7.3242,-7.2734,-7.2539,-7.2422,-7.2344,-7.2305,-7.2305,-7.2187,-7.2265,-7.2109,-7.1992,-7.1992,-7.1992,-7.1953,-7.1836,-7.1914,-7.1992,-7.1875,-7.1797,-7.1914,-7.1992,-7.1992,-9.121,-9.1206,-9.1353,-9.1604,-9.1704,-9.1171,-9.0914,-9.0657,-8.9375,-8.8633,-8.8359,-8.7851,-8.7539,-8.75,-8.75,-8.75,-8.75,-8.75,-8.75,-8.75,-8.75,-8.75,-8.75,-8.75,-8.75,-8.75,-8.7422,-8.75,-8.7383,-8.7383,-8.7461,-8.7422,-8.7461,-8.75,-8.7422,-8.7344,-8.6953,-8.6719,-8.6445,-8.6054,-8.5586,-8.5273,-8.5156,-8.5078,-8.5,-8.4492,-8.3945,-8.3594,-8.3242,-8.2773,-8.2461,-8.2304,-8.2304,-8.2304,-8.2304,-8.2304,-8.2304,-8.2304,-8.2304,-8.2304,-8.2304,-8.2304,-8.2304,-8.2304,-8.2304,-8.2304,-8.2304,-8.2304,-8.2304,-8.2304,-8.2187,-8.2265,-8.1953,-8.1445,-8.1015,-8.0703,-8.0,-7.9297,-7.8633,-7.8281,-7.7773,-7.7461,-7.7344,-7.7226,-7.7226,-7.7226,-7.7226,-7.7226,-7.6836,-7.6601,-7.6133,-7.5508,-7.4765,-7.3945,-7.3476,-7.3203,-7.3164,-7.3164,-7.3164,-7.3164,-7.2851,-7.2617,-7.25,-7.2422,-7.1992,-7.1992,-7.1992,-7.1992,-7.1992,-7.1992,-7.1992,-7.1992,-7.1992,-7.1992,-7.1992,-9.121,-9.1171,-9.1224,-9.1346,-9.1449,-9.0926,-9.0353,-8.9821,-8.9057,-8.8281,-8.7734,-8.7578,-8.75,-8.75,-8.75,-8.75,-8.75,-8.75,-8.75,-8.75,-8.75,-8.75,-8.75,-8.75,-8.75,-8.75,-8.75,-8.75,-8.75,-8.75,-8.75,-8.75,-8.75,-8.75,-8.75,-8.75,-8.7461,-8.7344,-8.7304,-8.7226,-8.6992,-8.6406,-8.6094,-8.5859,-8.5469,-8.5,-8.4726,-8.4258,-8.3672,-8.3359,-8.2695,-8.2383,-8.2304,-8.2304,-8.2304,-8.2304,-8.2304,-8.2304,-8.2304,-8.2304,-8.2304,-8.2304,-8.2304,-8.2304,-8.2304,-8.2304,-8.2304,-8.2304,-8.2304,-8.2304,-8.2304,-8.2304,-8.2187,-8.1914,-8.1484,-8.1211,-8.0703,-8.0117,-7.9492,-7.8906,-7.8476,-7.7851,-7.75,-7.7344,-7.7226,-7.7226,-7.7226,-7.7226,-7.7148,-7.6914,-7.6719,-7.6133,-7.5469,-7.4687,-7.4258,-7.3984,-7.3828,-7.3906,-7.3906,-7.3906,-7.3633,-7.3359,-7.3242,-7.3047,-7.2617,-7.2226,-7.2265,-7.2226,-7.207,-7.1992,-7.1992,-7.1992,-7.1992,-7.1992,-7.1992,-9.121,-9.121,-9.121,-9.1307,-9.1412,-9.0868,-9.0273,-8.9645,-8.8984,-8.8242,-8.7617,-8.75,-8.75,-8.75,-8.75,-8.75,-8.75,-8.75,-8.75,-8.75,-8.75,-8.75,-8.75,-8.75,-8.75,-8.75,-8.75,-8.75,-8.75,-8.75,-8.75,-8.75,-8.75,-8.75,-8.75,-8.75,-8.75,-8.7461,-8.7461,-8.75,-8.7422,-8.7148,-8.6914,-8.6914,-8.6484,-8.6094,-8.5625,-8.5351,-8.4492,-8.3906,-8.3164,-8.2773,-8.2461,-8.2304,-8.2304,-8.2304,-8.2304,-8.2304,-8.2304,-8.2304,-8.2304,-8.2304,-8.2304,-8.2304,-8.2304,-8.2304,-8.2304,-8.2304,-8.2304,-8.2304,-8.2304,-8.2304,-8.2304,-8.2148,-8.1875,-8.1797,-8.1484,-8.0859,-8.0273,-7.9687,-7.914,-7.8555,-7.793,-7.7578,-7.7383,-7.7226,-7.7226,-7.7226,-7.7226,-7.7109,-7.6953,-7.6797,-7.6094,-7.539,-7.5078,-7.4805,-7.4453,-7.4453,-7.4414,-7.4414,-7.4375,-7.4219,-7.4101,-7.4023,-7.3828,-7.3398,-7.2851,-7.2383,-7.2148,-7.207,-7.1992,-7.1992,-7.1992,-7.1992,-7.1992,-9.1018,-9.121,-9.121,-9.1281,-9.1367,-9.0763,-9.0158,-8.9554,-8.8878,-8.8164,-8.7573,-8.7383,-8.7383,-8.7422,-8.7461,-8.75,-8.75,-8.75,-8.75,-8.75,-8.75,-8.75,-8.75,-8.75,-8.75,-8.75,-8.75,-8.75,-8.75,-8.75,-8.75,-8.75,-8.75,-8.75,-8.75,-8.75,-8.75,-8.75,-8.75,-8.75,-8.75,-8.75,-8.7461,-8.7461,-8.7422,-8.7187,-8.664,-8.6172,-8.5312,-8.4687,-8.4062,-8.3554,-8.289,-8.2773,-8.2539,-8.25,-8.2539,-8.2578,-8.2422,-8.2304,-8.2304,-8.2304,-8.2304,-8.2304,-8.2304,-8.2304,-8.2304,-8.2304,-8.2304,-8.2304,-8.2304,-8.2304,-8.2304,-8.2304,-8.2226,-8.2304,-8.2226,-8.1601,-8.1015,-8.0429,-7.9883,-7.9375,-7.8711,-7.8008,-7.7578,-7.7305,-7.7226,-7.7226,-7.7226,-7.7226,-7.7148,-7.6992,-7.6758,-7.6172,-7.6015,-7.5703,-7.5312,-7.5117,-7.5078,-7.5234,-7.539,-7.5195,-7.4961,-7.4883,-7.4844,-7.4297,-7.3633,-7.293,-7.2265,-7.2109,-7.1992,-7.1992,-7.1992,-7.207,-7.2226,-9.0479,-9.121,-9.1171,-9.115,-9.1121,-9.0555,-8.9948,-8.9247,-8.8672,-8.7943,-8.7209,-8.7159,-8.7166,-8.7222,-8.7383,-8.75,-8.75,-8.75,-8.75,-8.75,-8.75,-8.75,-8.75,-8.75,-8.75,-8.75,-8.75,-8.75,-8.75,-8.75,-8.75,-8.75,-8.75,-8.75,-8.75,-8.75,-8.75,-8.75,-8.75,-8.75,-8.75,-8.75,-8.75,-8.75,-8.75,-8.7461,-8.7344,-8.6719,-8.6133,-8.5703,-8.5117,-8.4414,-8.3711,-8.3515,-8.3242,-8.3008,-8.3242,-8.3203,-8.289,-8.2578,-8.2344,-8.2304,-8.2304,-8.2304,-8.2304,-8.2304,-8.2304,-8.2304,-8.2304,-8.2304,-8.2304,-8.2304,-8.2304,-8.2304,-8.2304,-8.2304,-8.2304,-8.2265,-8.1679,-8.1172,-8.0625,-8.0078,-7.957,-7.8867,-7.8086,-7.7734,-7.7226,-7.7226,-7.7226,-7.7226,-7.7226,-7.7148,-7.7187,-7.6992,-7.7031,-7.6719,-7.6328,-7.625,-7.625,-7.6484,-7.6719,-7.6406,-7.582,-7.5703,-7.5586,-7.5,-7.4492,-7.3984,-7.332,-7.2383,-7.2109,-7.2578,-7.2695,-7.2734,-7.293,-8.9363,-8.9671,-8.9671,-8.994,-9.036,-8.9778,-8.9138,-8.8615,-8.8451,-8.7924,-8.7096,-8.7104,-8.7104,-8.717,-8.7383,-8.75,-8.75,-8.75,-8.75,-8.75,-8.75,-8.75,-8.75,-8.75,-8.75,-8.75,-8.75,-8.75,-8.75,-8.75,-8.75,-8.75,-8.75,-8.75,-8.75,-8.75,-8.75,-8.75,-8.75,-8.75,-8.75,-8.75,-8.75,-8.75,-8.75,-8.75,-8.7422,-8.7187,-8.6758,-8.6289,-8.5859,-8.5234,-8.457,-8.4453,-8.4179,-8.3828,-8.4179,-8.4101,-8.3789,-8.3359,-8.289,-8.2344,-8.2304,-8.2344,-8.2422,-8.2304,-8.2304,-8.2304,-8.2304,-8.2304,-8.2304,-8.2304,-8.2304,-8.2304,-8.2304,-8.2304,-8.2304,-8.2304,-8.2226,-8.164,-8.1211,-8.0742,-8.0273,-7.9765,-7.8945,-7.8203,-7.7656,-7.7226,-7.7226,-7.7226,-7.7226,-7.7226,-7.7226,-7.7226,-7.7226,-7.7226,-7.7226,-7.7226,-7.7226,-7.7226,-7.7226,-7.7148,-7.668,-7.6523,-7.6328,-7.5937,-7.5547,-7.5156,-7.4453,-7.3515,-7.3398,-7.3711,-7.3672,-7.3437,-7.3711,-8.844,-8.8632,-8.8402,-8.8786,-8.9398,-8.8813,-8.836,-8.8123,-8.7861,-8.7527,-8.6936,-8.6936,-8.6974,-8.7073,-8.7265,-8.7461,-8.7461,-8.75,-8.75,-8.75,-8.75,-8.75,-8.75,-8.75,-8.75,-8.75,-8.75,-8.75,-8.75,-8.75,-8.75,-8.75,-8.75,-8.75,-8.75,-8.75,-8.75,-8.75,-8.75,-8.75,-8.75,-8.75,-8.75,-8.75,-8.75,-8.75,-8.75,-8.7383,-8.7187,-8.6836,-8.6523,-8.6133,-8.5625,-8.5273,-8.5156,-8.5078,-8.5117,-8.5195,-8.4804,-8.4375,-8.3711,-8.3398,-8.289,-8.2812,-8.2656,-8.25,-8.2304,-8.2304,-8.2304,-8.2304,-8.2304,-8.2304,-8.2304,-8.2304,-8.2304,-8.2304,-8.2304,-8.2304,-8.2304,-8.2109,-8.1758,-8.1445,-8.1133,-8.0586,-7.9531,-7.875,-7.8164,-7.7617,-7.7226,-7.7226,-7.7226,-7.7226,-7.7226,-7.7226,-7.7226,-7.7226,-7.7226,-7.7226,-7.7226,-7.7226,-7.7226,-7.7226,-7.7226,-7.6953,-7.6797,-7.6797,-7.6562,-7.6133,-7.543,-7.4648,-7.457,-7.4492,-7.4297,-7.4101,-7.4492,-8.7863,-8.8556,-8.7748,-8.7902,-8.8479,-8.7803,-8.7627,-8.7808,-8.7103,-8.6665,-8.6599,-8.6549,-8.67,-8.6864,-8.7087,-8.7282,-8.7461,-8.75,-8.75,-8.75,-8.75,-8.75,-8.7422,-8.7383,-8.7383,-8.75,-8.75,-8.75,-8.75,-8.7304,-8.7344,-8.7265,-8.7109,-8.7265,-8.7422,-8.75,-8.75,-8.75,-8.75,-8.75,-8.75,-8.75,-8.75,-8.75,-8.75,-8.75,-8.75,-8.75,-8.7344,-8.7265,-8.7226,-8.6875,-8.6289,-8.6211,-8.5898,-8.5312,-8.5859,-8.5742,-8.5078,-8.4961,-8.4804,-8.4453,-8.3828,-8.3515,-8.3359,-8.2929,-8.2344,-8.2383,-8.2304,-8.2304,-8.2304,-8.2304,-8.2304,-8.2304,-8.2304,-8.2304,-8.2304,-8.2304,-8.2304,-8.2304,-8.2304,-8.2187,-8.1953,-8.1406,-8.0234,-7.9375,-7.8711,-7.8164,-7.7695,-7.7461,-7.7539,-7.7422,-7.7422,-7.7226,-7.7226,-7.7226,-7.7226,-7.7226,-7.7226,-7.7226,-7.7226,-7.7226,-7.7226,-7.7226,-7.7148,-7.7031,-7.707,-7.7109,-7.6328,-7.5586,-7.5156,-7.4961,-7.4765,-7.4883,-7.539,-8.6709,-8.694,-8.6671,-8.6709,-8.694,-8.6671,-8.6728,-8.6964,-8.6645,-8.648,-8.648,-8.648,-8.6616,-8.6786,-8.7003,-8.7226,-8.7461,-8.75,-8.75,-8.75,-8.7461,-8.707,-8.6953,-8.707,-8.7148,-8.6953,-8.707,-8.7422,-8.75,-8.7148,-8.6758,-8.6562,-8.6445,-8.6484,-8.7187,-8.75,-8.75,-8.75,-8.75,-8.75,-8.75,-8.75,-8.75,-8.75,-8.75,-8.75,-8.75,-8.75,-8.75,-8.75,-8.75,-8.7304,-8.7031,-8.6992,-8.6875,-8.6562,-8.6992,-8.6953,-8.6679,-8.6562,-8.6015,-8.5312,-8.4687,-8.4219,-8.3672,-8.3398,-8.2929,-8.2461,-8.2422,-8.2422,-8.2304,-8.2304,-8.2304,-8.2304,-8.2304,-8.2304,-8.2304,-8.2304,-8.2304,-8.2304,-8.2304,-8.2304,-8.2148,-8.1992,-8.1015,-8.039,-7.9844,-7.9336,-7.8867,-7.8359,-7.8164,-7.793,-7.7734,-7.7383,-7.7226,-7.7226,-7.7226,-7.7226,-7.7226,-7.7226,-7.7226,-7.7226,-7.7226,-7.7226,-7.7226,-7.7226,-7.7226,-7.7187,-7.6992,-7.6523,-7.6055,-7.5937,-7.6015,-7.6172,-7.6523,-8.6094,-8.6094,-8.6094,-8.6094,-8.6094,-8.6094,-8.6231,-8.6373,-8.6455,-8.6455,-8.6387,-8.6373,-8.6526,-8.6783,-8.6955,-8.7219,-8.7461,-8.75,-8.75,-8.7461,-8.7109,-8.6719,-8.6523,-8.6484,-8.6367,-8.6328,-8.6679,-8.7031,-8.6992,-8.6797,-8.6562,-8.6211,-8.5664,-8.6172,-8.6758,-8.6953,-8.7187,-8.7304,-8.75,-8.75,-8.75,-8.75,-8.75,-8.75,-8.75,-8.75,-8.75,-8.75,-8.75,-8.75,-8.75,-8.75,-8.75,-8.75,-8.75,-8.75,-8.75,-8.7461,-8.7383,-8.7383,-8.6758,-8.6094,-8.5586,-8.5078,-8.4492,-8.4297,-8.3594,-8.3086,-8.2773,-8.2539,-8.2422,-8.2422,-8.2304,-8.2304,-8.2304,-8.2304,-8.2304,-8.2304,-8.2304,-8.2304,-8.2304,-8.2304,-8.2304,-8.2226,-8.1836,-8.1406,-8.0976,-8.0469,-7.9922,-7.9375,-7.8828,-7.8515,-7.8164,-7.7812,-7.7461,-7.7226,-7.7226,-7.7226,-7.7226,-7.7226,-7.7226,-7.7226,-7.7226,-7.7226,-7.7226,-7.7226,-7.7226,-7.7148,-7.7031,-7.7031,-7.6953,-7.6953,-7.7226,-7.7226,-7.7226,-8.6094,-8.6094,-8.6094,-8.6094,-8.6094,-8.6094,-8.611,-8.6143,-8.6387,-8.6331,-8.6126,-8.6104,-8.6377,-8.6717,-8.6833,-8.7068,-8.7422,-8.75,-8.75,-8.7265,-8.6797,-8.6367,-8.5898,-8.5625,-8.5781,-8.6054,-8.6406,-8.6758,-8.6367,-8.6172,-8.6172,-8.6054,-8.5508,-8.5898,-8.6133,-8.6484,-8.6836,-8.7265,-8.75,-8.75,-8.75,-8.75,-8.75,-8.75,-8.75,-8.75,-8.75,-8.75,-8.75,-8.75,-8.75,-8.75,-8.75,-8.75,-8.75,-8.75,-8.75,-8.75,-8.75,-8.75,-8.7461,-8.6953,-8.6562,-8.6289,-8.582,-8.5195,-8.4531,-8.3867,-8.3437,-8.2969,-8.2656,-8.2461,-8.2304,-8.2304,-8.2304,-8.2304,-8.2304,-8.2304,-8.2304,-8.2304,-8.2304,-8.2304,-8.2304,-8.2265,-8.2226,-8.2031,-8.1601,-8.1289,-8.0703,-8.0156,-7.9609,-7.918,-7.875,-7.8242,-7.793,-7.7734,-7.7578,-7.7695,-7.7305,-7.7226,-7.7226,-7.7265,-7.7226,-7.7226,-7.7226,-7.7226,-7.7226,-7.7226,-7.7187,-7.7226,-7.7226,-7.7226,-7.7226,-7.7226,-7.7226,-8.6094,-8.6094,-8.6094,-8.6094,-8.6094,-8.6094,-8.6094,-8.611,-8.62,-8.6137,-8.6094,-8.6094,-8.6351,-8.6752,-8.6786,-8.7117,-8.7344,-8.75,-8.75,-8.7148,-8.6523,-8.5859,-8.5547,-8.5508,-8.5547,-8.582,-8.625,-8.6601,-8.5976,-8.5664,-8.4844,-8.4336,-8.4844,-8.5273,-8.5898,-8.6211,-8.6836,-8.7265,-8.7461,-8.75,-8.75,-8.75,-8.75,-8.75,-8.75,-8.75,-8.75,-8.75,-8.75,-8.75,-8.75,-8.75,-8.75,-8.75,-8.75,-8.75,-8.75,-8.75,-8.75,-8.75,-8.75,-8.75,-8.7187,-8.6758,-8.6328,-8.5937,-8.539,-8.4765,-8.4179,-8.3711,-8.3125,-8.2812,-8.25,-8.2304,-8.2304,-8.2304,-8.2304,-8.2304,-8.2304,-8.2304,-8.2304,-8.2304,-8.2304,-8.2304,-8.2265,-8.2304,-8.2187,-8.1836,-8.1523,-8.0937,-8.039,-7.9922,-7.957,-7.9101,-7.8828,-7.8633,-7.8359,-7.8125,-7.7812,-7.7539,-7.7539,-7.75,-7.7305,-7.7226,-7.7305,-7.7265,-7.7226,-7.7226,-7.7226,-7.7226,-7.7226,-7.7226,-7.7226,-7.7226,-7.7226,-8.6094,-8.6094,-8.6094,-8.6094,-8.6094,-8.6094,-8.6094,-8.6094,-8.6094,-8.6094,-8.6094,-8.6094,-8.6376,-8.6726,-8.6841,-8.707,-8.7461,-8.75,-8.75,-8.7226,-8.6328,-8.582,-8.5586,-8.5312,-8.5273,-8.5664,-8.6133,-8.6328,-8.5586,-8.457,-8.3711,-8.4297,-8.4336,-8.5195,-8.6015,-8.6601,-8.7031,-8.7344,-8.75,-8.75,-8.75,-8.75,-8.75,-8.75,-8.75,-8.75,-8.75,-8.75,-8.75,-8.75,-8.75,-8.75,-8.75,-8.75,-8.75,-8.75,-8.75,-8.75,-8.75,-8.75,-8.75,-8.75,-8.75,-8.7226,-8.6992,-8.6719,-8.6172,-8.5586,-8.5,-8.4414,-8.375,-8.3164,-8.2734,-8.2344,-8.2304,-8.2304,-8.2304,-8.2304,-8.2304,-8.2304,-8.2304,-8.2304,-8.2304,-8.2304,-8.2304,-8.2304,-8.2304,-8.2187,-8.1992,-8.1758,-8.1172,-8.0625,-8.0351,-8.0039,-7.9765,-7.9453,-7.918,-7.8945,-7.8789,-7.8515,-7.8164,-7.8125,-7.8281,-7.789,-7.7422,-7.7422,-7.7461,-7.7265,-7.7226,-7.7265,-7.7305,-7.7265,-7.7265,-7.7226,-7.7226,-8.5901,-8.5863,-8.5978,-8.6017,-8.6094,-8.6094,-8.6094,-8.6094,-8.6094,-8.6094,-8.6094,-8.6094,-8.6337,-8.6708,-8.6825,-8.7063,-8.7383,-8.75,-8.7344,-8.7344,-8.6094,-8.5508,-8.5273,-8.4804,-8.5312,-8.5898,-8.6289,-8.6367,-8.5156,-8.4258,-8.4062,-8.4961,-8.5625,-8.6172,-8.6523,-8.7031,-8.7344,-8.7422,-8.75,-8.75,-8.75,-8.75,-8.75,-8.75,-8.75,-8.75,-8.75,-8.75,-8.75,-8.75,-8.75,-8.75,-8.75,-8.75,-8.75,-8.75,-8.75,-8.75,-8.75,-8.75,-8.75,-8.75,-8.75,-8.7422,-8.7304,-8.7226,-8.6758,-8.6367,-8.582,-8.5273,-8.4609,-8.375,-8.3125,-8.2695,-8.2539,-8.2422,-8.2304,-8.2304,-8.2304,-8.2304,-8.2304,-8.2304,-8.2304,-8.2304,-8.2304,-8.2304,-8.2304,-8.2304,-8.2265,-8.2187,-8.1875,-8.1289,-8.1172,-8.0898,-8.0547,-8.0234,-7.9961,-7.9765,-7.9648,-7.9375,-7.9023,-7.9101,-7.9336,-7.8828,-7.8281,-7.793,-7.7773,-7.7695,-7.7656,-7.7578,-7.7578,-7.7422,-7.7383,-7.7539,-7.7344,-8.417,-8.4247,-8.4939,-8.5517,-8.6055,-8.6094,-8.6094,-8.6094,-8.6094,-8.6094,-8.6094,-8.612,-8.6337,-8.6765,-8.6778,-8.7013,-8.7304,-8.7265,-8.707,-8.6679,-8.582,-8.5469,-8.5508,-8.5429,-8.5742,-8.625,-8.6601,-8.6562,-8.5664,-8.4687,-8.4414,-8.5703,-8.6289,-8.6523,-8.6914,-8.7344,-8.7344,-8.7187,-8.7304,-8.7344,-8.7383,-8.7461,-8.75,-8.75,-8.75,-8.75,-8.75,-8.75,-8.75,-8.75,-8.75,-8.75,-8.75,-8.75,-8.75,-8.75,-8.75,-8.75,-8.75,-8.75,-8.75,-8.75,-8.75,-8.75,-8.75,-8.75,-8.7344,-8.7031,-8.664,-8.6054,-8.5351,-8.4414,-8.3515,-8.3125,-8.2695,-8.25,-8.2304,-8.2304,-8.2304,-8.2304,-8.2304,-8.2304,-8.2304,-8.2304,-8.2304,-8.2304,-8.2304,-8.2304,-8.2304,-8.2265,-8.2265,-8.1875,-8.1992,-8.1758,-8.1367,-8.1054,-8.0781,-8.0469,-8.0312,-8.0078,-7.9844,-7.9805,-7.9844,-7.9648,-7.9258,-7.8828,-7.8515,-7.8437,-7.8359,-7.8242,-7.8164,-7.8164,-7.8359,-7.8515,-7.8008,-8.3593,-8.367,-8.4093,-8.4555,-8.5016,-8.5401,-8.5555,-8.5632,-8.594,-8.6094,-8.6094,-8.612,-8.6351,-8.6726,-8.6778,-8.674,-8.6953,-8.6914,-8.6328,-8.582,-8.5742,-8.5625,-8.5703,-8.5976,-8.6406,-8.6797,-8.6679,-8.6484,-8.6094,-8.5625,-8.5508,-8.6172,-8.6445,-8.6758,-8.7031,-8.6914,-8.6719,-8.6328,-8.6719,-8.6914,-8.7031,-8.7226,-8.7461,-8.75,-8.75,-8.75,-8.75,-8.75,-8.75,-8.75,-8.75,-8.75,-8.75,-8.75,-8.75,-8.75,-8.75,-8.75,-8.75,-8.75,-8.75,-8.75,-8.75,-8.75,-8.75,-8.75,-8.75,-8.7226,-8.7187,-8.6719,-8.5898,-8.4961,-8.4101,-8.3515,-8.2851,-8.2383,-8.2304,-8.2304,-8.2304,-8.2304,-8.2304,-8.2304,-8.2304,-8.2304,-8.2304,-8.2304,-8.2304,-8.2304,-8.2304,-8.2304,-8.2304,-8.2304,-8.2304,-8.2304,-8.1992,-8.1758,-8.164,-8.1328,-8.0976,-8.1094,-8.1015,-8.0547,-8.0273,-8.0234,-8.0039,-7.957,-7.9336,-7.9297,-7.918,-7.9023,-7.9023,-7.9023,-7.9258,-7.9453,-7.9101,-8.3285,-8.3401,-8.3439,-8.3516,-8.3708,-8.4401,-8.4747,-8.4824,-8.544,-8.5709,-8.5632,-8.5632,-8.612,-8.6642,-8.6638,-8.6449,-8.625,-8.6133,-8.5508,-8.5039,-8.5156,-8.5351,-8.582,-8.6289,-8.6836,-8.6875,-8.6679,-8.664,-8.6484,-8.6054,-8.5937,-8.6328,-8.6601,-8.6875,-8.6289,-8.5976,-8.5781,-8.5547,-8.5703,-8.6094,-8.6484,-8.6992,-8.7344,-8.75,-8.75,-8.75,-8.75,-8.75,-8.75,-8.75,-8.75,-8.75,-8.75,-8.75,-8.75,-8.75,-8.75,-8.75,-8.75,-8.75,-8.75,-8.75,-8.75,-8.75,-8.75,-8.75,-8.75,-8.7265,-8.7265,-8.707,-8.625,-8.5351,-8.4492,-8.3789,-8.3047,-8.2344,-8.2304,-8.2304,-8.2304,-8.2304,-8.2304,-8.2304,-8.2304,-8.2304,-8.2304,-8.2304,-8.2304,-8.2304,-8.2304,-8.2304,-8.2304,-8.2304,-8.2304,-8.2304,-8.2304,-8.2226,-8.2031,-8.1992,-8.1719,-8.207,-8.2148,-8.1523,-8.1133,-8.1094,-8.082,-8.0547,-8.0273,-8.0117,-8.0,-7.9883,-7.9883,-7.9922,-8.0039,-8.0195,-8.0234,-8.1939,-8.2554,-8.2554,-8.2939,-8.3516,-8.3785,-8.3824,-8.3862,-8.4016,-8.4093,-8.4225,-8.4288,-8.4959,-8.6747,-8.6167,-8.5898,-8.5742,-8.5429,-8.4648,-8.4023,-8.4922,-8.5273,-8.5742,-8.6601,-8.7226,-8.7148,-8.6836,-8.6719,-8.6836,-8.6523,-8.625,-8.6367,-8.6289,-8.6094,-8.5351,-8.5117,-8.5,-8.4765,-8.4961,-8.539,-8.6289,-8.6836,-8.7383,-8.75,-8.75,-8.75,-8.75,-8.75,-8.75,-8.75,-8.75,-8.75,-8.75,-8.75,-8.75,-8.75,-8.75,-8.75,-8.75,-8.75,-8.75,-8.75,-8.75,-8.75,-8.75,-8.75,-8.7226,-8.6601,-8.6601,-8.6875,-8.6211,-8.5273,-8.4414,-8.3945,-8.332,-8.2656,-8.2344,-8.2304,-8.2304,-8.2304,-8.2304,-8.2304,-8.2304,-8.2304,-8.2304,-8.2304,-8.2304,-8.2304,-8.2304,-8.2304,-8.2304,-8.2304,-8.2304,-8.2304,-8.2304,-8.2304,-8.2226,-8.2265,-8.2304,-8.2304,-8.2304,-8.2265,-8.2031,-8.1758,-8.1836,-8.1719,-8.1445,-8.0976,-8.0859,-8.0781,-8.0742,-8.0781,-8.0898,-8.1015,-8.1094]},{"header":{"parameterUnit":"m.s-1","parameterCategory":1,"la1":31.0,"la2":29.5877,"lo1":-88.7671,"lo2":-86.6584,"dy":0.0162,"dx":0.0185,"nx":115,"ny":88,"refTime":"2026-03-13T12:00:00:Z","depth":0,"parameterNumber":3,"parameterNumberName":"V-component_of_WINDS"},"data":[0.0,0.0,0.0,0.0,0.0,0.0,0.0,0.0,0.0,0.0,0.0,0.0,0.0,0.0,0.0,0.0,0.0,0.0,0.0,0.0,0.0,0.0,0.0,0.0,0.0,0.0,0.0,0.0,0.0,0.0,0.0,0.0,0.0,0.0,0.0,0.0,0.0,0.0,0.0,0.0,0.0,0.0,0.0,0.0,0.0,0.0,0.0,0.0,0.0,0.0,0.0,0.0,0.0,0.0,0.0,0.0,0.0,0.0,0.0,0.0,0.0,0.0,0.0,0.0,0.0,0.0,0.0,0.0,0.0,0.0,0.0,0.0,0.0,0.0,0.0,0.0,0.0,0.0,0.0,0.0,0.0,0.0,0.0,0.0,0.0,0.0,0.0,0.0,0.0,0.0,0.0,0.0,0.0,0.0,0.0,0.0,0.0,0.0,0.0,0.0,0.0,0.0,0.0,0.0,0.0,0.0,0.0,0.0,0.0,0.0,0.0,0.0,0.0,0.0,0.0,0.0,0.0,0.0,0.0,0.0,0.0,0.0,0.0,0.0,0.0,0.0,0.0,0.0,0.0,0.0,0.0,0.0,0.0,0.0,0.0,0.0,0.0,0.0,0.0,0.0,0.0,0.0,0.0,0.0,0.0,0.0,0.0,0.0,0.0,0.0,0.0,0.0,0.0,0.0,0.0,0.0,0.0,0.0,0.0,0.0,0.0,0.0,0.0,0.0,0.0,0.0,0.0,0.0,0.0,0.0,0.0,0.0,0.0,0.0,0.0,0.0,0.0,0.0,0.0,0.0,0.0,0.0,0.0,0.0,0.0,0.0,0.0,0.0,0.0,0.0,0.0,0.0,0.0,0.0,0.0,0.0,0.0,0.0,0.0,0.0,0.0,0.0,0.0,0.0,0.0,0.0,0.0,0.0,0.0,0.0,0.0,0.0,0.0,0.0,0.0,0.0,0.0,0.0,0.0,0.0,0.0,0.0,0.0,0.0,0.0,0.0,0.0,0.0,0.0,0.0,0.0,0.0,0.0,0.0,0.0,0.0,0.0,0.0,0.0,0.0,0.0,0.0,0.0,0.0,0.0,0.0,0.0,0.0,0.0,0.0,0.0,0.0,0.0,0.0,0.0,0.0,0.0,0.0,0.0,0.0,0.0,0.0,0.0,0.0,0.0,0.0,0.0,0.0,0.0,0.0,0.0,0.0,0.0,0.0,0.0,0.0,0.0,0.0,0.0,0.0,0.0,0.0,0.0,0.0,0.0,0.0,0.0,0.0,0.0,0.0,0.0,0.0,0.0,0.0,0.0,0.0,0.0,0.0,0.0,0.0,0.0,0.0,0.0,0.0,0.0,0.0,0.0,0.0,0.0,0.0,0.0,0.0,0.0,0.0,0.0,0.0,0.0,0.0,0.0,0.0,0.0,0.0,0.0,0.0,0.0,0.0,0.0,0.0,0.0,0.0,0.0,0.0,0.0,0.0,0.0,0.0,0.0,0.0,0.0,0.0,0.0,0.0,0.0,0.0,0.0,0.0,0.0,0.0,0.0,0.0,0.0,0.0,0.0,0.0,0.0,0.0,0.0,0.0,0.0,0.0,0.0,0.0,0.0,0.0,0.0,0.0,0.0,0.0,0.0,0.0,0.0,0.0,0.0,0.0,0.0,0.0,0.0,0.0,0.0,0.0,0.0,0.0,0.0,0.0,0.0,0.0,0.0,0.0,0.0,0.0,0.0,0.0,0.0,0.0,0.0,0.0,0.0,0.0,0.0,0.0,0.0,0.0,0.0,0.0,0.0,0.0,0.0,0.0,0.0,0.0,0.0,0.0,0.0,0.0,0.0,0.0,0.0,0.0,0.0,0.0,0.0,0.0,0.0,0.0,0.0,0.0,0.0,0.0,0.0,0.0,0.0,0.0,0.0,0.0,0.0,0.0,0.0,0.0,0.0,0.0,0.0,0.0,0.0,0.0,0.0,0.0,0.0,0.0,0.0,0.0,0.0,0.0,0.0,0.0,0.0,0.0,0.0,0.0,0.0,0.0,0.0,0.0,0.0,0.0,0.0,0.0,0.0,0.0,0.0,0.0,0.0,0.0,0.0,0.0,0.0,0.0,0.0,0.0,0.0,0.0,0.0,0.0,0.0,0.0,0.0,0.0,0.0,0.0,0.0,0.0,0.0,0.0,0.0,0.0,0.0,0.0,0.0,0.0,0.0,0.0,0.0,0.0,0.0,0.0,0.0,0.0,0.0,0.0,0.0,0.0,0.0,0.0,0.0,0.0,0.0,0.0,0.0,0.0,0.0,0.0,0.0,0.0,0.0,0.0,0.0,0.0,0.0,0.0,0.0,0.0,0.0,0.0,0.0,0.0,0.0,0.0,0.0,0.0,0.0,0.0,0.0,0.0,0.0,0.0,0.0,0.0,0.0,0.0,0.0,0.0,0.0,0.0,0.0,0.0,0.0,0.0,0.0,0.0,0.0,0.0,0.0,0.0,0.0,0.0,0.0,0.0,0.0,0.0,0.0,0.0,0.0,0.0,0.0,0.0,0.0,0.0,0.0,0.0,0.0,0.0,0.0,0.0,0.0,0.0,0.0,0.0,0.0,0.0,0.0,0.0,0.0,0.0,0.0,0.0,0.0,0.0,0.0,0.0,0.0,0.0,0.0,0.0,0.0,0.0,0.0,0.0,0.0,0.0,0.0,0.0,0.0,0.0,0.0,0.0,0.0,0.0,0.0,0.0,0.0,0.0,0.0,0.0,0.0,0.0,0.0,0.0,0.0,0.0,0.0,0.0,0.0,0.0,0.0,0.0,0.0,0.0,0.0,0.0,0.0,0.0,0.0,0.0,0.0,0.0,0.0,0.0,0.0,0.0,0.0,0.0,0.0,0.0,0.0,0.0,0.0,0.0,0.0,0.0,0.0,0.0,0.0,0.0,0.0,0.0,0.0,0.0,0.0,0.0,0.0,0.0,0.0,0.0,0.0,0.0,0.0,0.0,0.0,0.0,0.0,0.0,0.0,0.0,0.0,0.0,0.0,0.0,0.0,0.0,0.0,0.0,0.0,0.0,0.0,0.0,0.0,0.0,0.0,0.0,0.0,0.0,0.0,0.0,0.0,0.0,0.0,0.0,0.0,0.0,0.0,0.0,0.0,0.0,0.0,0.0,0.0,0.0,0.0,0.0,0.0,0.0,0.0,0.0,0.0,0.0,0.0,0.0,0.0,0.0,0.0,0.0,0.0,0.0,0.0,0.0,0.0,0.0,0.0,0.0,0.0,0.0,0.0,0.0,0.0,0.0,0.0,0.0,0.0,0.0,0.0,0.0,0.0,0.0,0.0,0.0,0.0,0.0,0.0,0.0,0.0,0.0,0.0,0.0,0.0,0.0,0.0,0.0,0.0,0.0,0.0,0.0,0.0,0.0,0.0,0.0,0.0,0.0,0.0,0.0,0.0,0.0,0.0,0.0,0.0,0.0,0.0,0.0,0.0,0.0,0.0,0.0,0.0,0.0,0.0,0.0,0.0,0.0,0.0,0.0,0.0,0.0,0.0,0.0,0.0,0.0,0.0,0.0,0.0,0.0,0.0,0.0,0.0,0.0,0.0,0.0,0.0,0.0,0.0,0.0,0.0,0.0,0.0,0.0,0.0,0.0,0.0,0.0,0.0,0.0,0.0,0.0,0.0,0.0,0.0,0.0,0.0,0.0,0.0,0.0,0.0,0.0,0.0,0.0,0.0,0.0,0.0,0.0,0.0,0.0,0.0,0.0,0.0,0.0,0.0,0.0,0.0,0.0,0.0,0.0,0.0,0.0,0.0,0.0,0.0,0.0,0.0,0.0,0.0,0.0,0.0,0.0,0.0,0.0,0.0,0.0,0.0,0.0,0.0,0.0,0.0,0.0,0.0,0.0,0.0,0.0,0.0,0.0,0.0,0.0,0.0,0.0,0.0,0.0,0.0,0.0,0.0,0.0,0.0,0.0,0.0,0.0,0.0,0.0,0.0,0.0,0.0,0.0,0.0,0.0,0.0,0.0,0.0,0.0,0.0,0.0,0.0,0.0,0.0,0.0,0.0,0.0,0.0,0.0,0.0,0.0,0.0,0.0,0.0,0.0,0.0,0.0,0.0,0.0,0.0,0.0,0.0,0.0,0.0,0.0,0.0,0.0,0.0,0.0,0.0,0.0,0.0,0.0,0.0,0.0,0.0,0.0,0.0,0.0,0.0,0.0,0.0,0.0,0.0,0.0,0.0,0.0,0.0,0.0,0.0,0.0,0.0,0.0,0.0,0.0,0.0,0.0,0.0,0.0,0.0,0.0,0.0,0.0,0.0,0.0,0.0,0.0,0.0,0.0,0.0,0.0,0.0,0.0,0.0,0.0,0.0,0.0,0.0,0.0,0.0,0.0,0.0,0.0,0.0,0.0,0.0,0.0,0.0,0.0,0.0,0.0,0.0,0.0,0.0,0.0,0.0,0.0,0.0,0.0,0.0,0.0,0.0,0.0,0.0,0.0,0.0,0.0,0.0,0.0,0.0,0.0,0.0,0.0,0.0,0.0,0.0,0.0,0.0,0.0,0.0,0.0,0.0,0.0,0.0,0.0,0.0,0.0,0.0,0.0,0.0,0.0,0.0,0.0,0.0,0.0,0.0,0.0,0.0,0.0,0.0,0.0,0.0,0.0,0.0,0.0,0.0,0.0,0.0,0.0,0.0,0.0,0.0,0.0,0.0,0.0,0.0,0.0,0.0,0.0,0.0,0.0,0.0,0.0,0.0,0.0,0.0,0.0,0.0,0.0,0.0,0.0,0.0,0.0,0.0,0.0,0.0,0.0,0.0,0.0,0.0,0.0,0.0,0.0,0.0,0.0,0.0,0.0,0.0,0.0,0.0,0.0,0.0,0.0,0.0,0.0,0.0,0.0,0.0,0.0,0.0,0.0,0.0,0.0,0.0,0.0,0.0,0.0,0.0,0.0,0.0,0.0,0.0,0.0,0.0,0.0,0.0,0.0,0.0,0.0,0.0,0.0,0.0,0.0,0.0,0.0,0.0,0.0,0.0,0.0,0.0,0.0,0.0,0.0,0.0,0.0,0.0,0.0,0.0,0.0,0.0,0.0,0.0,0.0,0.0,0.0,0.0,0.0,0.0,0.0,0.0,0.0,0.0,0.0,0.0,0.0,0.0,0.0,0.0,0.0,0.0,0.0,0.0,0.0,0.0,0.0,0.0,0.0,0.0,0.0,0.0,0.0,0.0,0.0,0.0,0.0,0.0,0.0,0.0,0.0,0.0,0.0,0.0,0.0,0.0,0.0,0.0,0.0,0.0,0.0,0.0,0.0,0.0,0.0,0.0,0.0,0.0,0.0,0.0,0.0,0.0,0.0,0.0,0.0,0.0,0.0,0.0,0.0,0.0,0.0,0.0,0.0,0.0,0.0,0.0,0.0,0.0,0.0,0.0,0.0,0.0,0.0,0.0,0.0,0.0,0.0,0.0,0.0,0.0,0.0,0.0,0.0,0.0,0.0,0.0,0.0,0.0,0.0,0.0,0.0,0.0,0.0,0.0,0.0,0.0,0.0,0.0,0.0,0.0,0.0,0.0,0.0,0.0,0.0,0.0,0.0,0.0,0.0,0.0,0.0,0.0,0.0,0.0,0.0,0.0,0.0,0.0,0.0,0.0,0.0,0.0,0.0,0.0,0.0,0.0,0.0,0.0,0.0,0.0,0.0,0.0,0.0,0.0,0.0,0.0,0.0,0.0,0.0,0.0,0.0,0.0,0.0,0.0,0.0,0.0,0.0,0.0,0.0,0.0,0.0,0.0,0.0,0.0,0.0,0.0,0.0,0.0,0.0,0.0,0.0,0.0,0.0,0.0,0.0,0.0,0.0,0.0,0.0,0.0,0.0,0.0,0.0,0.0,0.0,0.0,0.0,0.0,0.0,0.0,0.0,0.0,0.0,0.0,0.0,0.0,0.0,0.0,0.0,0.0,0.0,0.0,0.0,0.0,0.0,0.0,0.0,0.0,0.0,0.0,0.0,0.0,0.0,0.0,0.0,0.0,0.0,0.0,0.0,0.0,0.0,0.0,0.0,0.0,0.0,0.0,0.0,0.0,0.0,0.0,0.0,0.0,0.0,0.0,0.0,0.0,0.0,0.0,0.0,0.0,0.0,0.0,0.0,0.0,0.0,0.0,0.0,0.0,0.0,0.0,0.0,0.0,0.0,0.0,0.0,0.0,0.0,0.0,0.0,0.0,0.0,0.0,0.0,0.0,0.0,0.0,0.0,0.0,0.0,0.0,0.0,0.0,0.0,0.0,0.0,0.0,0.0,0.0,0.0,0.0,0.0,0.0,0.0,0.0,0.0,0.0,0.0,0.0,0.0,0.0,0.0,0.0,0.0,0.0,0.0,0.0,0.0,0.0,0.0,0.0,0.0,0.0,0.0,0.0,0.0,0.0,0.0,0.0,0.0,0.0,0.0,0.0,0.0,0.0,0.0,0.0,0.0,0.0,0.0,0.0,0.0,0.0,0.0,0.0,0.0,0.0,0.0,0.0,0.0,0.0,0.0,0.0,0.0,0.0,0.0,0.0,0.0,0.0,0.0,0.0,0.0,0.0,0.0,0.0,0.0,0.0,0.0,0.0,0.0,0.0,0.0,0.0,0.0,0.0,0.0,0.0,0.0,0.0,0.0,0.0,0.0,0.0,0.0,0.0,0.0,0.0,0.0,0.0,0.0,0.0,0.0,0.0,0.0,0.0,0.0,0.0,0.0,0.0,0.0,0.0,0.0,0.0,0.0,0.0,0.0,0.0,0.0,0.0,0.0,0.0,0.0,0.0,0.0,0.0,0.0,0.0,0.0,0.0,0.0,0.0,0.0,0.0,0.0,0.0,0.0,0.0,0.0,0.0,0.0,0.0,0.0,0.0,0.0,0.0,0.0,0.0,0.0,0.0,0.0,0.0,0.0,0.0,0.0,0.0,0.0,0.0,0.0,0.0,0.0,0.0,0.0,0.0,0.0,0.0,0.0,0.0,0.0,0.0,0.0,0.0,0.0,0.0,0.0,0.0,0.0,0.0,0.0,0.0,0.0,0.0,0.0,0.0,0.0,0.0,0.0,0.0,0.0,0.0,0.0,0.0,0.0,0.0,0.0,0.0,0.0,0.0,0.0,0.0,0.0,0.0,0.0,0.0,0.0,0.0,0.0,0.0,0.0,0.0,0.0,0.0,0.0,0.0,0.0,0.0,0.0,0.0,0.0,0.0,0.0,0.0,0.0,0.0,0.0,0.0,0.0,0.0,0.0,0.0,0.0,0.0,0.0,0.0,0.0,0.0,0.0,0.0,0.0,0.0,0.0,0.0,0.0,0.0,0.0,0.0,0.0,0.0,0.0,0.0,0.0,0.0,0.0,0.0,0.0,0.0,0.0,0.0,0.0,0.0,0.0,0.0,0.0,0.0,0.0,0.0,0.0,0.0,0.0,0.0,0.0,0.0,0.0,0.0,0.0,0.0,0.0,0.0,0.0,0.0,0.0,0.0,0.0,0.0,0.0,0.0,0.0,0.0,0.0,0.0,0.0,0.0,0.0,0.0,0.0,0.0,0.0,0.0,0.0,0.0,0.0,0.0,0.0,0.0,0.0,0.0,0.0,0.0,0.0,0.0,0.0,0.0,0.0,0.0,0.0,0.0,0.0,0.0,0.0,0.0,0.0,0.0,0.0,0.0,0.0,0.0,0.0,0.0,0.0,0.0,0.0,0.0,0.0,0.0,0.0,0.0,0.0,0.0,0.0,0.0,0.0,0.0,0.0,0.0,0.0,0.0,0.0,0.0,0.0,0.0,0.0,0.0,0.0,0.0,0.0,0.0,0.0,0.0,0.0,0.0,0.0,0.0,0.0,0.0,0.0,0.0,0.0,0.0,0.0,0.0,0.0,0.0,0.0,0.0,0.0,0.0,0.0,0.0,0.0,0.0,0.0,0.0,0.0,0.0,0.0,0.0,0.0,0.0,0.0,0.0,0.0,0.0,0.0,0.0,0.0,0.0,0.0,0.0,0.0,0.0,0.0,0.0,0.0,0.0,0.0,0.0,0.0,0.0,0.0,0.0,0.0,0.0,0.0,0.0,0.0,0.0,0.0,0.0,0.0,0.0,0.0,0.0,0.0,0.0,0.0,0.0,0.0,0.0,0.0,0.0,0.0,0.0,0.0,0.0,0.0,0.0,0.0,0.0,0.0,0.0,0.0,0.0,0.0,0.0,0.0,0.0,0.0,0.0,0.0,0.0,0.0,0.0,0.0,0.0,0.0,0.0,0.0,0.0,0.0,0.0,0.0,0.0,0.0,0.0,0.0,0.0,0.0,0.0,0.0,0.0,0.0,0.0,0.0,0.0,0.0,0.0,0.0,0.0,0.0,0.0,0.0,0.0,0.0,0.0,0.0,0.0,0.0,0.0,0.0,0.0,0.0,0.0,0.0,0.0,0.0,0.0,0.0,0.0,0.0,0.0,0.0,0.0,0.0,0.0,0.0,0.0,0.0,0.0,0.0,0.0,0.0,0.0,0.0,0.0,0.0,0.0,0.0,0.0,0.0,0.0,0.0,0.0,0.0,0.0,0.0,0.0,0.0,0.0,0.0,0.0,0.0,0.0,0.0,0.0,0.0,0.0,0.0,0.0,0.0,0.0,0.0,0.0,0.0,0.0,0.0,0.0,0.0,0.0,0.0,0.0,0.0,0.0,0.0,0.0,0.0,0.0,0.0,0.0,0.0,0.0,0.0,0.0,0.0,0.0,0.0,0.0,0.0,0.0,0.0,0.0,0.0,0.0,0.0,0.0,0.0,0.0,0.0,0.0,0.0,0.0,0.0,0.0,0.0,0.0,0.0,0.0,0.0,0.0,0.0,0.0,0.0,0.0,0.0,0.0,0.0,0.0,0.0,0.0,0.0,0.0,0.0,0.0,0.0,0.0,0.0,0.0,0.0,0.0,0.0,0.0,0.0,0.0,0.0,0.0,0.0,0.0,0.0,0.0,0.0,0.0,0.0,0.0,0.0,0.0,0.0,0.0,0.0,0.0,0.0,0.0,0.0,0.0,0.0,0.0,0.0,0.0,0.0,0.0,0.0,0.0,0.0,0.0,0.0,0.0,0.0,0.0,0.0,0.0,0.0,0.0,0.0,0.0,0.0,0.0,0.0,0.0,0.0,0.0,0.0,0.0,0.0,0.0,0.0,0.0,0.0,0.0,0.0,0.0,0.0,0.0,0.0,0.0,0.0,0.0,0.0,0.0,0.0,0.0,0.0,0.0,0.0,0.0,0.0,0.0,0.0,0.0,0.0,0.0,0.0,0.0,0.0,0.0,0.0,0.0,0.0,0.0,0.0,0.0,0.0,0.0,0.0,0.0,0.0,0.0,0.0,0.0,0.0,0.0,0.0,0.0,0.0,0.0,0.0,0.0,0.0,0.0,0.0,0.0,0.0,0.0,0.0,0.0,0.0,0.0,0.0,0.0,0.0,0.0,0.0,0.0,0.0,0.0,0.0,0.0,0.0,0.0,0.0,0.0,0.0,0.0,0.0,0.0,0.0,0.0,0.0,0.0,0.0,0.0,0.0,0.0,0.0,0.0,0.0,0.0,0.0,0.0,0.0,0.0,0.0,0.0,0.0,0.0,0.0,0.0,0.0,0.0,0.0,0.0,0.0,0.0,0.0,0.0,0.0,0.0,0.0,0.0,0.0,0.0,0.0,0.0,0.0,0.0,0.0,0.0,0.0,0.0,0.0,0.0,0.0,0.0,0.0,0.0,0.0,0.0,0.0,0.0,0.0,0.0,0.0,0.0,0.0,0.0,0.0,0.0,0.0,0.0,0.0,0.0,0.0,0.0,0.0,0.0,0.0,0.0,0.0,0.0,0.0,0.0,0.0,0.0,0.0,0.0,0.0,0.0,0.0,0.0,0.0,0.0,0.0,0.0,0.0,0.0,0.0,0.0,0.0,0.0,0.0,0.0,0.0,0.0,0.0,0.0,0.0,0.0,0.0,0.0,0.0,0.0,0.0,0.0,0.0,0.0,0.0,0.0,0.0,0.0,0.0,0.0,0.0,0.0,0.0,0.0,0.0,0.0,0.0,0.0,0.0,0.0,0.0,0.0,0.0,0.0,0.0,0.0,0.0,0.0,0.0,0.0,0.0,0.0,0.0,0.0,0.0,0.0,0.0,0.0,0.0,0.0,0.0,0.0,0.0,0.0,0.0,0.0,0.0,0.0,0.0,0.0,0.0,0.0,0.0,0.0,0.0,0.0,0.0,0.0,0.0,0.0,0.0,0.0,0.0,0.0,0.0,0.0,0.0,0.0,0.0,0.0,0.0,0.0,0.0,0.0,0.0,0.0,0.0,0.0,0.0,0.0,0.0,0.0,0.0,0.0,0.0,0.0,0.0,0.0,0.0,0.0,0.0,0.0,0.0,0.0,0.0,0.0,0.0,0.0,0.0,0.0,0.0,0.0,0.0,0.0,0.0,0.0,0.0,0.0,0.0,0.0,0.0,0.0,0.0,0.0,0.0,0.0,0.0,0.0,0.0,0.0,0.0,0.0,0.0,0.0,0.0,0.0,0.0,0.0,0.0,0.0,0.0,0.0,0.0,0.0,0.0,0.0,0.0,0.0,0.0,0.0,0.0,0.0,0.0,0.0,0.0,0.0,0.0,0.0,0.0,0.0,0.0,0.0,0.0,0.0,0.0,0.0,0.0,0.0,0.0,0.0,0.0,0.0,0.0,0.0,0.0,0.0,0.0,0.0,0.0,0.0,0.0,0.0,0.0,0.0,0.0,0.0,0.0,0.0,0.0,0.0,0.0,0.0,0.0,0.0,0.0,0.0,0.0,0.0,0.0,0.0,0.0,0.0,0.0,0.0,0.0,0.0,0.0,0.0,0.0,0.0,0.0,0.0,0.0,0.0,0.0,0.0,0.0,0.0,0.0,0.0,0.0,0.0,0.0,0.0,0.0,0.0,0.0,0.0,0.0,0.0,0.0,0.0,0.0,0.0,0.0,0.0,0.0,0.0,0.0,0.0,0.0,0.0,0.0,0.0,0.0,0.0,0.0,0.0,0.0,0.0,0.0,0.0,0.0,0.0,0.0,0.0,0.0,0.0,0.0,0.0,0.0,0.0,0.0,0.0,0.0,0.0,0.0,0.0,0.0,0.0,0.0,0.0,0.0,0.0,0.0,0.0,0.0,0.0,0.0,0.0,0.0,0.0,0.0,0.0,0.0,0.0,0.0,0.0,0.0,0.0,0.0,0.0,0.0,0.0,0.0,0.0,0.0,0.0,0.0,0.0,0.0,0.0,0.0,0.0,0.0,0.0,0.0,0.0,0.0,0.0,0.0,0.0,0.0,0.0,0.0,0.0,0.0,0.0,0.0,0.0,0.0,0.0,0.0,0.0,0.0,0.0,0.0,0.0,0.0,0.0,0.0,0.0,0.0,0.0,0.0,0.0,0.0,0.0,0.0,0.0,0.0,0.0,0.0,0.0,0.0,0.0,0.0,0.0,0.0,0.0,0.0,0.0,0.0,0.0,0.0,0.0,0.0,0.0,0.0,0.0,0.0,0.0,0.0,0.0,0.0,0.0,0.0,0.0,0.0,0.0,0.0,0.0,0.0,0.0,0.0,0.0,0.0,0.0,0.0,0.0,0.0,0.0,0.0,0.0,0.0,0.0,0.0,0.0,0.0,0.0,0.0,0.0,0.0,0.0,0.0,0.0,0.0,0.0,0.0,0.0,0.0,0.0,0.0,0.0,0.0,0.0,0.0,0.0,0.0,0.0,0.0,0.0,0.0,0.0,0.0,0.0,0.0,0.0,0.0,0.0,0.0,0.0,0.0,0.0,0.0,0.0,0.0,0.0,0.0,0.0,0.0,0.0,0.0,0.0,0.0,0.0,0.0,0.0,0.0,0.0,0.0,0.0,0.0,0.0,0.0,0.0,0.0,0.0,0.0,0.0,0.0,0.0,0.0,0.0,0.0,0.0,0.0,0.0,0.0,0.0,0.0,0.0,0.0,0.0,0.0,0.0,0.0,0.0,0.0,0.0,0.0,0.0,0.0,0.0,0.0,0.0,0.0,0.0,0.0,0.0,0.0,0.0,0.0,0.0,0.0,0.0,0.0,0.0,0.0,0.0,0.0,0.0,0.0,0.0,0.0,0.0,0.0,0.0,0.0,0.0,0.0,0.0,0.0,0.0,0.0,0.0,0.0,0.0,0.0,0.0,0.0,0.0,0.0,0.0,0.0,0.0,0.0,0.0,0.0,0.0,0.0,0.0,0.0,0.0,0.0,0.0,0.0,0.0,0.0,0.0,0.0,0.0,0.0,0.0,0.0,0.0,0.0,0.0,0.0,0.0,0.0,0.0,0.0,0.0,0.0,0.0,0.0,0.0,0.0,0.0,0.0,0.0,0.0,0.0,0.0,0.0,0.0,0.0,0.0,0.0,0.0,0.0,0.0,0.0,0.0,0.0,0.0,0.0,0.0,0.0,0.0,0.0,0.0,0.0,0.0,0.0,0.0,0.0,0.0,0.0,0.0,0.0,0.0,0.0,0.0,0.0,0.0,0.0,0.0,0.0,0.0,0.0,0.0,0.0,0.0,0.0,0.0,0.0,0.0,0.0,0.0,0.0,0.0,0.0,0.0,0.0,0.0,0.0,0.0,0.0,0.0,0.0,0.0,0.0,0.0,0.0,0.0,0.0,0.0,0.0,0.0,0.0,0.0,0.0,0.0,0.0,0.0,0.0,0.0,0.0,0.0,0.0,0.0,0.0,0.0,0.0,0.0,0.0,0.0,0.0,0.0,0.0,0.0,0.0,0.0,0.0,0.0,0.0,0.0,0.0,0.0,0.0,0.0,0.0,0.0,0.0,0.0,0.0,0.0,0.0,0.0,0.0,0.0,0.0,0.0,0.0,0.0,0.0,0.0,0.0,0.0,0.0,0.0,0.0,0.0,0.0,0.0,0.0,0.0,0.0,0.0,0.0,0.0,0.0,0.0,0.0,0.0,0.0,0.0,0.0,0.0,0.0,0.0,0.0,0.0,0.0,0.0,0.0,0.0,0.0,0.0,0.0,0.0,0.0,0.0,0.0,0.0,0.0,0.0,0.0,0.0,0.0,0.0,0.0,0.0,0.0,0.0,0.0,0.0,0.0,0.0,0.0,0.0,0.0,0.0,0.0,0.0,0.0,0.0,0.0,0.0,0.0,0.0,0.0,0.0,0.0,0.0,0.0,0.0,0.0,0.0,0.0,0.0,0.0,0.0,0.0,0.0,0.0,0.0,0.0,0.0,0.0,0.0,0.0,0.0,0.0,0.0,0.0,0.0,0.0,0.0,0.0,0.0,0.0,0.0,0.0,0.0,0.0,0.0,0.0,0.0,0.0,0.0,0.0,0.0,0.0,0.0,0.0,0.0,0.0,0.0,0.0,0.0,0.0,0.0,0.0,0.0,0.0,0.0,0.0,0.0,0.0,0.0,0.0,0.0,0.0,0.0,0.0,0.0,0.0,0.0,0.0,0.0,0.0,0.0,0.0,0.0,0.0,0.0,0.0,0.0,0.0,0.0,0.0,0.0,0.0,0.0,0.0,0.0,0.0,0.0,0.0,0.0,0.0,0.0,0.0,0.0,0.0,0.0164,0.0,0.0,0.0,0.0,0.0,0.0,0.0,0.0,0.0,0.0,0.0,0.0,0.0,0.0,0.0,0.0,0.0,0.0,0.0,0.0,0.0,0.0,0.0,0.0,0.0,0.0,0.0,0.0,0.0,0.0,0.0,0.0,0.0,0.0,0.0,0.0,0.0,0.0,0.0,0.0,0.0,0.0,0.0,0.0,0.0,0.0,0.0,0.0,0.0,0.0,0.0,0.0,0.0,0.0,0.0,0.0,0.0,0.0,0.0,0.0,0.0,0.0,0.0,0.0,0.0,0.0,0.0,0.0,0.0,0.0,0.0,0.0,0.0,0.0,0.0,0.0,0.0,0.0,0.0,0.0,0.0,0.0,0.0,0.0,0.0,0.0,0.0,0.0,0.0,0.0,0.0,0.0,0.0,0.0,0.0,0.0,0.0,0.0,0.0,0.0,0.0,0.0,0.0,0.0,0.0,0.0,0.0,0.0,0.0,0.0,0.0,0.0,0.0,0.0,0.0,0.1663,0.0,0.0,0.0,0.0,0.0,0.0,0.0,0.0,0.0,0.0,0.0,0.0,0.0,0.0,0.0,0.0,0.0,0.0,0.0,0.0,0.0,0.0,0.0,0.0,0.0,0.0,0.0,0.0,0.0,0.0,0.0,0.0,0.0,0.0,0.0,0.0,0.0,0.0,0.0,0.0,0.0,0.0,0.0,0.0,0.0,0.0,0.0,0.0,0.0,0.0,0.0,0.0,0.0,0.0,0.0,0.0,0.0,0.0,0.0,0.0,0.0,0.0,0.0,0.0,0.0,0.0,0.0,0.0,0.0,0.0,0.0,0.0,0.0,0.0,0.0,0.0,0.0,0.0,0.0,0.0,0.0,0.0,0.0,0.0,0.0,0.0,0.0,0.0,0.0,0.0,0.0,0.0,0.0,0.0,0.0,0.0,0.0,0.0,0.0,0.0,0.0,0.0,0.0,0.0,0.0,0.0,0.0,0.0,0.0,0.0,0.0,0.0,0.0,0.0519,0.095,0.0,0.0,0.0,0.0,0.0,0.0,0.0,0.0,0.0,0.0,0.0,0.0,0.0,0.0,0.0,0.0,0.0,0.0,0.0,0.0,0.0,0.0,0.0,0.0,0.0,0.0,0.0,0.0,0.0,0.0,0.0,0.0,0.0,0.0,0.0,0.0,0.0,0.0,0.0,0.0,0.0,0.0,0.0,0.0,0.0,0.0,0.0,0.0,0.0,0.0,0.0,0.0,0.0,0.0,0.0,0.0,0.0,0.0,0.0,0.0,0.0,0.0,0.0,0.0,0.0,0.0,0.0,0.0,0.0,0.0,0.0,0.0,0.0,0.0,0.0,0.0,0.0,0.0,0.0,0.0,0.0,0.0,0.0,0.0,0.0,0.0,0.0,0.0,0.0,0.0,0.0,0.0,0.0,0.0,0.0,0.0,0.0,0.0,0.0,0.0,0.0,0.0,0.0,0.0,0.0,0.0,0.0,0.0,0.0,0.0,0.0,0.0,0.0,0.0243,0.0,0.0,0.0,0.0,0.0,0.0,0.0,0.0,0.0,0.0,0.0,0.0,0.0,0.0,0.0,0.0,0.0,0.0,0.0,0.0,0.0,0.0,0.0,0.0,0.0,0.0,0.0,0.0,0.0,0.0,0.0,0.0,0.0,0.0,0.0,0.0,0.0,0.0,0.0,0.0,0.0,0.0,0.0,0.0,0.0,0.0,0.0,0.0,0.0,0.0,0.0,0.0,0.0,0.0,0.0,0.0,0.0,0.0,0.0,0.0,0.0,0.0,0.0,0.0,0.0,0.0,0.0,0.0,0.0,0.0,0.0,0.0,0.0,0.0,0.0,0.0,0.0,0.0,0.0,0.0,0.0,0.0,0.0,0.0,0.0,0.0,0.0,0.0,0.0,0.0,0.0,0.0,0.0,0.0,0.0,0.0,0.0,0.0,0.0,0.0,0.0,0.0,0.0,0.0,0.0,0.0,0.0,0.0,0.0,0.0,0.0,0.0,0.0,0.0,0.1007,0.0,0.0,0.0,0.0,0.0,0.0,0.0,0.0,0.0,0.0,0.0,0.0,0.0,0.0,0.0,0.0,0.0,0.0,0.0,0.0,0.0,0.0,0.0,0.0,0.0,0.0,0.0,0.0,0.0,0.0,0.0,0.0,0.0,0.0,0.0,0.0,0.0,0.0,0.0,0.0,0.0,0.0,0.0,0.0,0.0,0.0,0.0,0.0,0.0,0.0,0.0,0.0,0.0,0.0,0.0,0.0,0.0,0.0,0.0,0.0,0.0,0.0,0.0,0.0,0.0,0.0,0.0,0.0,0.0,0.0,0.0,0.0,0.0,0.0,0.0,0.0,0.0,0.0,0.0,0.0,0.0,0.0,0.0,0.0,0.0,0.0,0.0,0.0,0.0,0.0,0.0,0.0,0.0,0.0,0.0,0.0,0.0,0.0,0.0,0.0,0.0,0.0,0.0,0.0,0.0,0.0,0.0,0.0,0.0,0.0,0.0,0.0,0.0,0.0,0.0,0.0,0.0,0.0,0.0,0.0,0.0,0.0,0.0,0.0,0.0,0.0,0.0,0.0,0.0,0.0,0.0,0.0,0.0,0.0,0.0,0.0,0.0,0.0,0.0,0.0,0.0,0.0,0.0,0.0,0.0,0.0,0.0,0.0,0.0,0.0,0.0,0.0,0.0,0.0,0.0,0.0,0.0,0.0,0.0,0.0,0.0,0.0,0.0,0.0,0.0,0.0,0.0,0.0,0.0,0.0,0.0,0.0,0.0,0.0,0.0,0.0,0.0,0.0,0.0,0.0,0.0,0.0,0.0,0.0,0.0,0.0,0.0,0.0,0.0,0.0,0.0,0.0,0.0,0.0,0.0,0.0,0.0,0.0,0.0,0.0,0.0,0.0,0.0,0.0,0.0,0.0,0.0,0.0,0.0,0.0,0.0,0.0,0.0,0.0,0.0,0.0,0.0,0.0,0.0,0.0,0.0,0.0,0.0,0.0,0.0,0.0,0.0,0.0,0.0,0.1667,0.2758,0.0,0.0,0.0,0.0,0.0,0.0,0.0,0.0,0.0,0.0,0.0,0.0,0.0,0.0,0.0,0.0,0.0,0.0,0.0,0.0,0.0,0.0,0.0,0.0,0.0,0.0,0.0,0.0,0.0,0.0,0.0,0.0,0.0,0.0,0.0,0.0,0.0,0.0,0.0,0.0,0.0,0.0,0.0,0.0,0.0,0.0,0.0,0.0,0.0,0.0,0.0,0.0,0.0,0.0,0.0,0.0,0.0,0.0,0.0,0.0,0.0,0.0,0.0,0.0,0.0,0.0,0.0,0.0,0.0,0.0,0.0,0.0,0.0,0.0,0.0,0.0,0.0,0.0,0.0,0.0,0.0,0.0,0.0,0.0,0.0,0.0,0.0,0.0,0.0,0.0,0.0,0.0,0.0,0.0,0.0,0.0,0.0,0.0,0.0,0.0,0.0,0.0,0.0,0.0,0.0,0.0,0.0,0.0,0.0,0.0,0.0,0.0,0.0,0.1868,0.3009,0.2143,0.0,0.0,0.0,0.0,0.0,0.0,0.0,0.0,0.0,0.0,0.0,0.0,0.0,0.0,0.0,0.0,0.0,0.0,0.0,0.0,0.0,0.0,0.0,0.0,0.0,0.0,0.0,0.0,0.0,0.0,0.0,0.0,0.0,0.0,0.0,0.0,0.0,0.0,0.0,0.0,0.0,0.0,0.0,0.0,0.0,0.0,0.0,0.0,0.0,0.0,0.0,0.0,0.0,0.0,0.0,0.0,0.0,0.0,0.0,0.0,0.0,0.0,0.0,0.0,0.0,0.0,0.0,0.0,0.0,0.0,0.0,0.0,0.0,0.0,0.0,0.0,0.0,0.0,0.0,0.0,0.0,0.0,0.0,0.0,0.0,0.0,0.0,0.0,0.0,0.0,0.0,0.0,0.0,0.0,0.0,0.0,0.0,0.0,0.0,0.0,0.0,0.0,0.0,0.0,0.0,0.0,0.0,0.0,0.0,0.1246,0.214,0.1871,0.4504,0.6298,0.5159,0.6445,0.0,0.0,0.0,0.0,0.0,0.0,0.0,0.0,0.0,0.0,0.0,0.0,0.0,0.0,0.0,0.0,0.0,0.0,0.0,0.0,0.0,0.0,0.0,0.0,0.0,0.0,0.0,0.0,0.0,0.0,0.0,0.0,0.0,0.0,0.0,0.0,0.0,0.0,0.0,0.0,0.0,0.0,0.0,0.0,0.0,0.0,0.0,0.0,0.0,0.0,0.0,0.0,0.0,0.0,0.0,0.0,0.0,0.0,0.0,0.0,0.0,0.0,0.0,0.0,0.0,0.0,0.0,0.0,0.0,0.0,0.0,0.0,0.0,0.0,0.0,0.0,0.0,0.0,0.0,0.0,0.0,0.0,0.0,0.0,0.0,0.0,0.0,0.0,0.0,0.0,0.0,0.0,0.0,0.0,0.0,0.0,0.0,0.0,0.0,0.0,0.0,0.0,0.0,0.0,0.0,0.0,0.0,0.0,0.1903,0.3191,0.2897,0.6161,0.8365,0.7263,0.0,0.0,0.0,0.0,0.0,0.0,0.0,0.0,0.0,0.0,0.0,0.0,0.0,0.0,0.0,0.0,0.0,0.0,0.0,0.0,0.0,0.0,0.0,0.0,0.0,0.0,0.0,-0.6536,0.0,0.0,-0.2122,0.0,0.0,0.0,0.0,0.0,0.0,0.0,0.0,0.0,0.0,0.0,0.0,0.0,0.0,0.0,0.0,0.0,0.0,0.0,0.0,0.0,0.0,0.0,0.0,0.0,0.0,0.0,0.0,0.0,0.0,0.0,0.0,0.0,0.0,0.0,0.0,0.0,0.0,0.0,0.0,0.0,0.0,0.0,0.0,0.0,0.0,0.0,0.0,0.0,0.0,0.0,0.0,0.0,0.0,0.0,0.0,0.0,0.0,0.0,0.0,0.0,0.0,0.0,0.0,0.0,0.0,0.0,0.0,0.0,0.0,0.0,0.0,0.0,0.0,0.0,0.0,0.0,0.0,0.1567,0.2753,0.2736,0.6169,0.8535,0.0,0.0,0.0,0.0,0.0,0.0,0.0,0.0,0.0,0.0,0.0,0.0,0.0,0.0,0.0,0.0,0.0,0.0,0.0,0.0,0.0,0.0,0.0,0.0,0.0,0.0,0.0,-0.9193,-0.7543,0.0,0.0,0.0,0.0,0.0,0.0,0.0,0.0,0.0,0.0,0.0,0.0,0.0,0.0,0.0,0.0,0.0,0.0,0.0,0.0,0.0,0.0,0.0,0.0,0.0,0.0,0.0,0.0,0.0,0.0,0.0,0.0,0.0,0.0,0.0,0.0,0.0,0.0,0.0,0.0,0.0,0.0,0.0,0.0,0.0,0.0,0.0,0.0,0.0,0.0,0.0,0.0,0.0,0.0,0.0,0.0,0.0,0.0,0.0,0.0,0.0,0.0,0.0,0.0,0.0,0.0,0.0,0.0,0.0,0.0,0.0,0.0,0.0,0.0,0.0,0.0,0.0,0.0,0.0,0.0,0.0,0.0,0.0,0.0,0.0,0.0,0.0,0.0,0.0,0.0,0.0,0.0,0.0,0.0,0.9714,0.8817,0.8513,0.8425,0.8426,0.0,0.0,0.0,0.0,0.0,0.0,0.0,0.0,0.0,0.0,0.0,0.0,0.0,0.0,-0.9869,-0.7979,-0.7819,0.0,0.0,0.0,0.0,0.0,0.0,0.0,0.0,0.0,0.0,0.0,0.0,0.0,0.0,0.0,0.0,0.0,0.0,0.0,0.0,0.0,0.0,0.0,0.0,0.0,0.0,0.0,0.0,0.0,0.0,0.0,0.0,0.0,0.0,0.0,0.0,0.0,0.0,0.0,0.0,0.0,0.0,0.0,0.0,0.0,0.0,0.0,0.0,0.0,0.0,0.0,0.0,0.0,0.0,0.0,0.0,0.0,0.0,0.0,0.0,0.0,0.0,0.0,0.0,0.0,0.0,0.0,0.0,0.0,0.0,0.0,0.0,0.0,0.0,0.0,0.0,0.0,0.0,0.0,0.0,0.0,0.0,0.0,0.0,0.6836,0.5335,0.688,0.7827,0.6566,0.8428,1.0009,0.9869,0.0,0.0,0.989,0.9517,0.9442,0.9478,0.9673,0.9781,0.9836,1.0161,1.0449,0.0,0.0,0.0,0.0,-1.1443,0.0,0.0,0.0,-1.1796,-1.0329,0.0,-0.7743,0.0,0.0,0.0,0.0,0.0,0.0,0.0,0.0,0.0,0.0,0.0,0.0,0.0,0.0,0.0,0.0,0.0,0.0,0.0,0.0,0.0,0.0,0.0,0.0,0.0,0.0,0.0,0.0,0.0,0.0,0.0,0.0,0.0,0.0,0.0,0.0,0.0,0.0,0.0,0.0,0.0,0.0,0.0,0.0,0.0,0.0,0.0,0.0,0.0,0.0,0.0,0.0,0.0,0.0,0.0,0.0,0.0,0.0,0.0,0.0,0.0,0.0,0.0,0.0,0.0,0.0,0.0,0.0,0.0,0.0,0.0,0.0,0.0,0.0,0.0,0.0,0.0,0.0,0.0,0.0,0.1473,0.2566,0.2597,0.4226,0.5455,0.5168,0.0,0.0,0.5039,0.6849,0.8265,0.7888,0.9769,1.1537,1.116,1.0791,1.0738,1.0744,1.0643,1.0602,1.0744,1.1016,1.1206,-1.3953,0.0,0.0,0.0,0.0,-1.2664,-1.3139,-1.3892,-1.3749,-1.2351,-1.0078,-0.8361,0.0,0.0,0.0,0.0,0.0,0.0,0.0,0.0,0.0,0.0,0.0,0.0,0.0,0.0,0.0,0.0,0.0,0.0,0.0,0.0,0.0,0.0,0.0,0.0,0.0,0.0,0.0,0.0,0.0,0.0,0.0,0.0,0.0,0.0,0.0,0.0,0.0,0.0,0.0,0.0,0.0,0.0,0.0,0.0,0.0,0.0,0.0,0.0,0.0,0.0,0.0,0.0,0.0,0.0,0.0,0.0,0.0,0.0,0.0,0.0,0.0,0.0,0.0,0.0,0.0,0.0,0.0,0.0,0.0,0.0,0.0,0.0,0.0,0.0,0.0,0.0,0.0,0.0,0.0,0.0,0.046,0.0,0.0772,0.228,0.3001,0.1723,0.2812,0.4283,0.5503,0.638,0.6869,0.6713,0.7317,0.7807,0.7756,0.9759,1.1344,1.164,1.164,1.1667,1.1809,1.1993,1.2006,-1.5452,-1.4231,-1.3546,-1.3464,-1.379,-1.379,-1.4292,-1.5079,-1.4869,-1.3521,-1.1171,-0.8663,-0.6049,-0.3386,-0.1005,0.0,0.0,0.0,0.0,0.0,0.0,0.0,0.0,0.0,0.0,0.0,0.0,0.0,0.0,0.0,0.0,0.0,0.0,0.0,0.0,0.0,0.0,0.0,0.0,0.0,0.0,0.0,0.0,0.0,0.0,0.0,0.0,0.0,0.0,0.0,0.0,0.0,0.0,0.0,0.0,0.0,0.0,0.0,0.0,0.0,0.0,0.0,0.0,0.0,0.0,0.0,0.0,0.0,0.0,0.0,0.0,0.0,0.0,0.0,0.0,0.0,0.0,0.0,0.0,0.0,0.0,0.0,0.0,0.0,0.0,0.0,0.0,0.0,0.0,0.0,0.0,0.0,0.0,0.0,0.0,0.0861,0.1159,0.0155,0.1007,0.2176,0.3354,0.4378,0.5006,0.5084,0.5708,0.624,0.6119,0.8089,0.9602,0.9704,0.9715,0.9753,0.9873,0.9954,1.0053,-1.6612,-1.6225,-1.4862,-1.4516,-1.4862,-1.4783,-1.5201,-1.5676,-1.5411,-1.4021,-1.1757,-0.8764,-0.6021,-0.336,-0.105,0.0,0.0,0.0,0.0,0.0,0.0,0.0,0.0,0.0,0.0,0.0,0.0,0.0,0.0,0.0,0.0,0.0,0.0,0.0,0.0,0.0,0.0,0.0,0.0,0.0,0.0,0.0,0.0,0.0,0.0,0.0,0.0,0.0,0.0,0.0,0.0,0.0,0.0,0.0,0.0,0.0,0.0,0.0,0.0,0.0,0.0,0.0,0.0,0.0,0.0,0.0,0.0,0.0,0.0,0.0,0.0,0.0,0.0,0.0,0.0,0.0,0.0,0.0,0.0,0.0,0.0,0.0,0.0,0.0,0.0,0.0,0.0,0.0,0.0,0.0,0.0,0.0,0.0,0.0,0.0,0.0,0.0,0.0,0.0,0.0,0.0,0.1579,0.2742,0.2819,0.4459,0.5708,0.5786,0.5618,0.5767,0.5544,0.5919,0.6172,0.6548,0.6644,0.6722,-1.6917,-1.6619,-1.6259,-1.6049,-1.5947,-1.6049,-1.6178,-1.63,-1.6232,-1.5651,-1.4341,-0.9861,-0.5305,-0.0872,-0.0259,0.0,0.0,0.0,0.0,0.0,0.0,0.0,0.0,0.0,0.0,0.0,0.0,0.0,0.0,0.0,0.0,0.0,0.0,0.0,0.0,0.0,0.0,0.0,0.0,0.0,0.0,0.0,0.0,0.0,0.0,0.0,0.0,0.0,0.0,0.0,0.0,0.0,0.0,0.0,0.0,0.0,0.0,0.0,0.0,0.0,0.0,0.0,0.0,0.0,0.0,0.0,0.0,0.0,0.0,0.0,0.0,0.0,0.0,0.0,0.0,0.0,0.0,0.0,0.0,0.0,0.0,0.0,0.0,0.0,0.0,0.0,0.0,0.0,0.0,0.0,0.0,0.0,0.0,0.0,0.0,0.0,0.0,0.0,0.0,0.0,0.0,0.0393,0.0706,0.0706,0.1098,0.149,0.0,0.149,0.0,0.1641,0.3975,0.6234,0.6251,0.6257,0.6257,-1.706,-1.6856,-1.6849,-1.672,-1.651,-1.6517,-1.5795,-1.4759,-1.4698,-1.3765,-1.1958,-0.7956,-0.3872,0.0,0.0,0.0,0.0,0.0,0.0,0.0,0.0,0.0,0.0,0.0,0.0,0.0,0.0,0.0,0.0,0.0,0.0,0.0,0.0,0.0,0.0,0.0,0.0,0.0,0.0,0.0,0.0,0.0,0.0,0.0,0.0,0.0,0.0,0.0,0.0,0.0,0.0,0.0,0.0,0.0,0.0,0.0,0.0,0.0,0.0,0.0,0.0,0.0,0.0,0.0,0.0,0.0,0.0,0.0,0.0,0.0,0.0,0.0,0.0,0.0,0.0,0.0,0.0,0.0,0.0,0.0,0.0,0.0,0.0,0.0,0.0,0.0,0.0,0.0,0.0,0.0,0.0,0.0,0.0,0.0,0.0,0.0,0.0,0.0,0.0,0.0,0.0,0.0,0.0,0.0,0.0,0.0,0.0,0.0,0.0,0.0,0.1803,0.329,0.3523,0.3523,0.3523,-1.7093,-1.6978,-1.6978,-1.6883,-1.6714,-1.6578,-1.5174,-1.3,-1.2471,-1.0529,-0.7318,-0.4932,-0.2425,0.0,0.0,0.0,0.0,0.0,0.0,0.0,0.0,0.0,0.0,0.0,0.0,0.0,0.0,0.0,0.0,0.0,0.0,0.0,0.0,0.0,0.0,0.0,0.0,0.0,0.0,0.0,0.0,0.0,0.0,0.0,0.0,0.0,0.0,0.0,0.0,0.0,0.0,0.0,0.0,0.0,0.0,0.0,0.0,0.0,0.0,0.0,0.0,0.0,0.0,0.0,0.0,0.0,0.0,0.0,0.0,0.0,0.0,0.0,0.0,0.0,0.0,0.0,0.0,0.0,0.0,0.0,0.0,0.0,0.0,0.0,0.0,0.0,0.0,0.0,0.0,0.0,0.0,0.0,0.0,0.0,0.0,0.0,0.0,0.0,0.0,0.0,0.0,0.0,0.0,0.0,0.0,0.0,0.0,0.0,0.0,0.0,0.0,0.0,0.0,0.0,0.0,-1.7005,-1.6978,-1.6978,-1.6822,-1.6564,-1.653,-1.621,-1.5577,-1.3289,-0.9484,-0.4776,-0.4231,-0.2531,0.0,0.0,0.0,0.0,0.0,0.0,0.0,0.0,0.0,0.0,0.0,0.0,0.0,0.0,0.0,0.0,0.0,0.0,0.0,0.0,0.0,0.0,0.0,0.0,0.0,0.0,0.0,0.0,0.0,0.0,0.0,0.0,0.0,0.0,0.0,0.0,0.0,0.0,0.0,0.0,0.0,0.0,0.0,0.0,0.0,0.0,0.0,0.0,0.0,0.0,0.0,0.0,0.0,0.0,0.0,0.0,0.0,0.0,0.0,0.0,0.0,0.0,0.0,0.0,0.0,0.0,0.0,0.0,0.0,0.0,0.0,0.0,0.0,0.0,0.0,0.0,0.0,0.0,0.0,0.0,0.0,0.0,0.0,0.0,0.0,0.0,0.0,0.0,0.0,0.0,0.0,0.0,0.0,0.0,0.0,0.0,0.0,0.0,0.0,0.0,0.0,0.0,-1.6937,-1.687,-1.687,-1.6693,0.0,-1.6415,-1.6374,-1.5991,-1.1959,-0.7151,-0.2102,-0.2082,-0.1277,0.0,0.0,0.0,0.0,0.0,0.0,0.0,0.0,0.0,0.0,0.0,0.0,0.0,0.0,0.0,0.0,0.0,0.0,0.0,0.0,0.0,0.0,0.0,0.0,0.0,0.0,0.0,0.0,0.0,0.0,0.0,0.0,0.0,0.0,0.0,0.0,0.0,0.0,0.0,0.0,0.0,0.0,0.0,0.0,0.0,0.0,0.0,0.0,0.0,0.0,0.0,0.0,0.0,0.0,0.0,0.0,0.0,0.0,0.0,0.0,0.0,0.0,0.0,0.0,0.0,0.0,0.0,0.0,0.0,0.0,0.0,0.0,0.0,0.0,0.0,0.0,0.0,0.0,0.0,0.0,0.0,0.0,0.0,0.0,0.0,0.0,0.0,0.0,0.0,0.0,0.0,0.0,0.0,0.0,0.0,0.0,0.0,0.0,0.0,0.0,0.0,0.0,-1.6863,-1.6644,-1.6617,-1.6551,-1.6313,-1.6313,-1.5717,-1.4364,-0.9945,0.0,0.0,0.0,0.0,0.0,0.0,0.0,0.0,0.0,0.0,0.0,0.0,0.0,0.0,0.0,0.0,0.0,0.0,0.0,0.0,0.0,0.0,0.0,0.0,0.0,0.0,0.0,0.0,0.0,0.0,0.0,0.0,0.0,0.0,0.0,0.0,0.0,0.0,0.0,0.0,0.0,0.0,0.0,0.0,0.0,0.0,0.0,0.0,0.0,0.0,0.0,0.0,0.0,0.0,0.0,0.0,0.0,0.0,0.0,0.0,0.0,0.0,0.0,0.0,0.0,0.0,0.0,0.0,0.0,0.0,0.0,0.0,0.0,0.0,0.0,0.0,0.0,0.0,0.0,0.0,0.0,0.0,0.0,0.0,0.0,0.0,0.0,0.0,0.0,0.0,0.0,0.0,0.0,0.0,0.0,0.0,0.0,0.0,0.0,0.0,0.0,0.0,0.0,0.0,0.0,0.0,-1.6768,-1.6741,-1.6605,-1.6463,-1.6313,-1.6313,-1.3581,-0.9144,-0.8339,-0.5032,0.0,0.0,0.0,0.0,0.0,0.0,0.0,0.0,0.0,0.0,0.0,0.0,0.0,0.0,0.0,0.0,0.0,0.0,0.0,0.0,0.0,0.0,0.0,0.0,0.0,0.0,0.0,0.0,0.0,0.0,0.0,0.0,0.0,0.0,0.0,0.0,0.0,0.0,0.0,0.0,0.0,0.0,0.0,0.0,0.0,0.0,0.0,0.0,0.0,0.0,0.0,0.0,0.0,0.0,0.0,0.0,0.0,0.0,0.0,0.0,0.0,0.0,0.0,0.0,0.0,0.0,0.0,0.0,0.0,0.0,0.0,0.0,0.0,0.0,0.0,0.0,0.0,0.0,0.0,0.0,0.0,0.0,0.0,0.0,0.0,0.0,0.0,0.0,0.0,0.0,0.0,0.0,0.0,0.0,0.0,0.0,0.0,0.0,0.0,0.0,0.0,0.0,0.0,0.0,0.0,-1.6659,-1.651,-1.6435,-1.632,-1.6185,-1.6185,-1.3112,-0.8142,-0.8038,-0.5017,0.0,0.0,0.0,0.0,0.0,0.0,0.0,0.0,0.0,0.0,0.0,0.0,0.0,0.0,0.0,0.0,0.0,0.0,0.0,0.0,0.0,0.0,0.0,0.0,0.0,0.0,0.0,0.0,0.0,0.0,0.0,0.0,0.0,0.0,0.0,0.0,0.0,0.0,0.0,0.0,0.0,0.0,0.0,0.0,0.0,0.0,0.0,0.0,0.0,0.0,0.0,0.0,0.0,0.0,0.0,0.0,0.0,0.0,0.0,0.0,0.0,0.0,0.0,0.0,0.0,0.0,0.0,0.0,0.0,0.0,0.0,0.0,0.0,0.0,0.0,0.0,0.0,0.0,0.0,0.0,0.0,0.0,0.0,0.0,0.0,0.0,0.0,0.0,0.0,0.0,0.0,0.0,0.0,0.0,0.0,0.0,0.0,0.0,0.0,0.0,0.0,0.0,0.0,0.0,0.0,-1.6517,-1.6313,-1.6273,-1.6171,-1.6035,-1.6069,-1.2941,-0.8118,-0.8031,-0.5,0.0,0.0,0.0,0.0,0.0,0.0,0.0,0.0,0.0,0.0,0.0,0.0,0.0,0.0,0.0,0.0,0.0,0.0,0.0,0.0,0.0,0.0,0.0,0.0,0.0,0.0,0.0,0.0,0.0,0.0,0.0,0.0,0.0,0.0,0.0,0.0,0.0,0.0,0.0,0.0,0.0,0.0,0.0,0.0,0.0,0.0,0.0,0.0,0.0,0.0,0.0,0.0,0.0,0.0,0.0,0.0,0.0,0.0,0.0,0.0,0.0,0.0,0.0,0.0,0.0,0.0,0.0,0.0,0.0,0.0,0.0,0.0,0.0,0.0,0.0,0.0,0.0,0.0,0.0,0.0,0.0,0.0,0.0,0.0,0.0,0.0,0.0,0.0,0.0,0.0,0.0,0.0,0.0,0.0,0.0,0.0,0.0,0.0,0.0,0.0,0.0,0.0,0.0,0.0,0.0,-1.6334,-1.6293,-1.6164,-1.6015,-1.59,-1.6022,-1.2891,-0.8148,-0.7908,-0.4979,0.0,0.0,0.0,0.0,0.0,0.0,0.0,0.0,0.0,0.0,0.0,0.0,0.0,0.0,0.0,0.0,0.0,0.0,0.0,0.0,0.0,0.0,0.0,0.0,0.0,0.0,0.0,0.0,0.0,0.0,0.0,0.0,0.0,0.0,0.0,0.0,0.0,0.0,0.0,0.0,0.0,0.0,0.0,0.0,0.0,0.0,0.0,0.0,0.0,0.0,0.0,0.0,0.0,0.0,0.0,0.0,0.0,0.0,0.0,0.0,0.0,0.0,0.0,0.0,0.0,0.0,0.0,0.0,0.0,0.0,0.0,0.0,0.0,0.0,0.0,0.0,0.0,0.0,0.0,0.0,0.0,0.0,0.0,0.0,0.0,0.0,0.0,0.0,0.0,0.0,0.0,0.0,0.0,0.0,0.0,0.0,0.0,0.0,0.0,0.0,0.0,0.0,0.0,0.0,0.0,-1.6259,-1.6171,-1.611,-1.5995,-1.5872,-1.592,-1.2875,-0.7966,-0.784,-0.4953,0.0,0.0,0.0,0.0,0.0,0.0,0.0,0.0,0.0,0.0,0.0,0.0,0.0,0.0,0.0,0.0,0.0,0.0,0.0,0.0,0.0,0.0,0.0,0.0,0.0,0.0,0.0,0.0,0.0,0.0,0.0,0.0,0.0,0.0,0.0,0.0,0.0,0.0,0.0,0.0,0.0,0.0,0.0,0.0,0.0,0.0,0.0,0.0,0.0,0.0,0.0,0.0,0.0,0.0,0.0,0.0,0.0,0.0,0.0,0.0,0.0,0.0,0.0,0.0,0.0,0.0,0.0,0.0,0.0,0.0,0.0,0.0,0.0,0.0,0.0,0.0,0.0,0.0,0.0,0.0,0.0,0.0,0.0,0.0,0.0,0.0,0.0,0.0,0.0,0.0,0.0,0.0,0.0,0.0,0.0,0.0,0.0,0.0,0.0,0.0,0.0,0.0,0.0,0.0,0.0,-1.6185,-1.6083,-1.6035,-1.5934,-1.5798,-1.5798,-1.2753,-0.8095,-0.7787,-0.4827,0.0,0.0,0.0,0.0,0.0,0.0,0.0,0.0,0.0,0.0,0.0,0.0,0.0,0.0,0.0,0.0,0.0,0.0,0.0,0.0,0.0,0.0,0.0,0.0,0.0,0.0,0.0,0.0,0.0,0.0,0.0,0.0,0.0,0.0,0.0,0.0,0.0,0.0,0.0,0.0,0.0,0.0,0.0,0.0,0.0,0.0,0.0,0.0,0.0,0.0,0.0,0.0,0.0,0.0,0.0,0.0,0.0,0.0,0.0,0.0,0.0,0.0,0.0,0.0,0.0,0.0,0.0,0.0,0.0,0.0,0.0,0.0,0.0,0.0,0.0,0.0,0.0,0.0,0.0,0.0,0.0,0.0,0.0,0.0,0.0,0.0,0.0,0.0,0.0,0.0,0.0,0.0,0.0,0.0,0.0,0.0,0.0,0.0,0.0,0.0,0.0,0.0,0.0,0.0,0.0,-1.609,-1.6056,-1.592,-1.5784,-1.5649,-1.5655,-1.2541,-0.7632,-0.7763,-0.4908,0.0,0.0,0.0,0.0,0.0,0.0,0.0,0.0,0.0,0.0,0.0,0.0,0.0,0.0,0.0,0.0,0.0,0.0,0.0,0.0,0.0,0.0,0.0,0.0,0.0,0.0,0.0,0.0,0.0,0.0,0.0,0.0,0.0,0.0,0.0,0.0,0.0,0.0,0.0,0.0,0.0,0.0,0.0,0.0,0.0,0.0,0.0,0.0,0.0,0.0,0.0,0.0,0.0,0.0,0.0,0.0,0.0,0.0,0.0,0.0,0.0,0.0,0.0,0.0,0.0,0.0,0.0,0.0,0.0,0.0,0.0,0.0,0.0,0.0,0.0,0.0,0.0,0.0,0.0,0.0,0.0,0.0,0.0,0.0,0.0,0.0,0.0,0.0,0.0,0.0,0.0,0.0,0.0,0.0,0.0,0.0,0.0,0.0,0.0,0.0,0.0,0.0,0.0,0.0,0.0,-1.6022,-1.592,-1.5778,-1.5628,-1.5506,-1.5594,-1.2535,-0.7718,-0.7713,-0.4896,0.0,0.0,0.0,0.0,0.0,0.0,0.0,0.0,0.0,0.0,0.0,0.0,0.0,0.0,0.0,0.0,0.0,0.0,0.0,0.0,0.0,0.0,0.0,0.0,0.0,0.0,0.0,0.0,0.0,0.0,0.0,0.0,0.0,0.0,0.0,0.0,0.0,0.0,0.0,0.0,0.0,0.0,0.0,0.0,0.0,0.0,0.0,0.0,0.0,0.0,0.0,0.0,0.0,0.0,0.0,0.0,0.0,0.0,0.0,0.0,0.0,0.0,0.0,0.0,0.0,0.0,0.0,0.0,0.0,0.0,0.0,0.0,0.0,0.0,0.0,0.0,0.0,0.0,0.0,0.0,0.0,0.0,0.0,0.0,0.0,0.0,0.0,0.0,0.0,0.0,0.0,0.0,0.0,0.0,0.0,0.0,0.0,0.0,0.0,0.0,0.0,0.0,0.0,0.0,0.0,-1.5906,-1.5832,-1.5696,-1.5608,-1.556,-1.5615,-1.2557,-0.7942,-0.7692,-0.4881,0.0,0.0,0.0,0.0,0.0,0.0,0.0,0.0,0.0,0.0,0.0,0.0,0.0,0.0,0.0,0.0,0.0,0.0,0.0,0.0,0.0,0.0,0.0,0.0,0.0,0.0,0.0,0.0,0.0,0.0,0.0,0.0,0.0,0.0,0.0,0.0,0.0,0.0,0.0,0.0,0.0,0.0,0.0,0.0,0.0,0.0,0.0,0.0,0.0,0.0,0.0,0.0,0.0,0.0,0.0,0.0,0.0,0.0,0.0,0.0,0.0,0.0,0.0,0.0,0.0,0.0,0.0,0.0,0.0,0.0,0.0,0.0,0.0,0.0,0.0,0.0,0.0,0.0,0.0,0.0,0.0,0.0,0.0,0.0,0.0,0.0,0.0,0.0,0.0,0.0,0.0,0.0,0.0,0.0,0.0,0.0,0.0,0.0,0.0,0.0,0.0,0.0,0.0,0.0,0.0,-1.5737,-1.5825,-1.5696,-1.5703,-1.5771,-1.5683,-1.2692,-0.8585,-0.79,-0.4959,0.0,0.0,0.0,0.0,0.0,0.0,0.0,0.0,0.0,0.0,0.0,0.0,0.0,0.0,0.0,0.0,0.0,0.0,0.0,0.0,0.0,0.0,0.0,0.0,0.0,0.0,0.0,0.0,0.0,0.0,0.0,0.0,0.0,0.0,0.0,0.0,0.0,0.0,0.0,0.0,0.0,0.0,0.0,0.0,0.0,0.0,0.0,0.0,0.0,0.0,0.0,0.0,0.0,0.0,0.0,0.0,0.0,0.0,0.0,0.0,0.0,0.0,0.0,0.0,0.0,0.0,0.0,0.0,0.0,0.0,0.0,0.0,0.0,0.0,0.0,0.0,0.0,0.0,0.0,0.0,0.0,0.0,0.0,0.0,0.0,0.0,0.0,0.0,0.0,0.0,0.0,0.0,0.0,0.0,0.0,0.0,0.0,0.0,0.0,0.0,0.0,0.0,0.0,0.0,0.0,-1.5811,-1.5832,-1.5696,-1.5662,-1.5696,-1.5655,-1.3576,-1.0338,-0.8637,-0.5799,-0.2701,-0.0768,0.0,0.0,0.0,0.0,0.0,0.0,0.0,0.0,0.0,0.0,0.0,0.0,0.0,0.0,0.0,0.0,0.0,0.0,0.0,0.0,0.0,0.0,0.0,0.0,0.0,0.0,0.0,0.0,0.0,0.0,0.0,0.0,0.0,0.0,0.0,0.0,0.0,0.0,0.0,0.0,0.0,0.0,0.0,0.0,0.0,0.0,0.0,0.0,0.0,0.0,0.0,0.0,0.0,0.0,0.0,0.0,0.0,0.0,0.0,0.0,0.0,0.0,0.0,0.0,0.0,0.0,0.0,0.0,0.0,0.0,0.0,0.0,0.0,0.0,0.0,0.0,0.0,0.0,0.0,0.0,0.0,0.0,0.0,0.0,0.0,0.0,0.0,0.0,0.0,0.0,0.0,0.0,0.0,0.0,0.0,0.0,0.0,0.0,0.0,0.0,0.0,0.0,0.0,-1.5805,-1.5839,-1.5757,-1.575,-1.5798,-1.5805,-1.4311,-1.1618,-0.8954,-0.6395,-0.3678,-0.115,0.0,0.0,0.0,0.0,0.0,0.0,0.0,0.0,0.0,0.0,0.0,0.0,0.0,0.0,0.0,0.0,0.0,0.0,0.0,0.0,0.0,0.0,0.0,0.0,0.0,0.0,0.0,0.0,0.0,0.0,0.0,0.0,0.0,0.0,0.0,0.0,0.0,0.0,0.0,0.0,0.0,0.0,0.0,0.0,0.0,0.0,0.0,0.0,0.0,0.0,0.0,0.0,0.0,0.0,0.0,0.0,0.0,0.0,0.0,0.0,0.0,0.0,0.0,0.0,0.0,0.0,0.0,0.0,0.0,0.0,0.0,0.0,0.0,0.0,0.0,0.0,0.0,0.0,0.0,0.0,0.0,0.0,0.0,0.0,0.0,0.0,0.0,0.0,0.0,0.0,0.0,0.0,0.0,0.0,0.0,0.0,0.0,0.0,0.0,0.0,0.0,0.0,0.0,-1.5744,-1.5859,-1.5866,-1.5743,-1.5645,-1.5638,-1.3994,-1.1471,-0.8743,-0.6137,-0.3694,-0.1152,0.0,0.0,0.0,0.0,0.0,0.0,0.0,0.0,0.0,0.0,0.0,0.0,0.0,0.0,0.0,0.0,0.0,0.0,0.0,0.0,0.0,0.0,0.0,0.0,0.0,0.0,0.0,0.0,0.0,0.0,0.0,0.0,0.0,0.0,0.0,0.0,0.0,0.0,0.0,0.0,0.0,0.0,0.0,0.0,0.0,0.0,0.0,0.0,0.0,0.0,0.0,0.0,0.0,0.0,0.0,0.0,0.0,0.0,0.0,0.0,0.0,0.0,0.0,0.0,0.0,0.0,0.0,0.0,0.0,0.0,0.0,0.0,0.0,0.0,0.0,0.0,0.0,0.0,0.0,0.0,0.0,0.0,0.0,0.0,0.0,0.0,0.0,0.0,0.0,0.0,0.0,0.0,0.0,0.0,0.0,0.0,0.0,0.0,0.0,0.0,0.0,0.0,0.0,-1.5988,-1.6022,-1.6022,-1.4937,-1.3239,-1.2963,-1.1388,-0.875,-0.6129,-0.4637,-0.3356,-0.1147,0.0,0.0,0.0,0.0,0.0,0.0,0.0,0.0,0.0,0.0,0.0,0.0,0.0,0.0,0.0,0.0,0.0,0.0,0.0,0.0,0.0,0.0,0.0,0.0,0.0,0.0,0.0,0.0,0.0,0.0,0.0,0.0,0.0,0.0,0.0,0.0,0.0,0.0,0.0,0.0,0.0,0.0,0.0,0.0,0.0,0.0,0.0,0.0,0.0,0.0,0.0,0.0,0.0,0.0,0.0,0.0,0.0,0.0,0.0,0.0,0.0,0.0,0.0,0.0,0.0,0.0,0.0,0.0,0.0,0.0,0.0,0.0,0.0,0.0,0.0,0.0,0.0,0.0,0.0,0.0,0.0,0.0,0.0,0.0,0.0,0.0,0.0,0.0,0.0,0.0,0.0,0.0,0.0,0.0,0.0,0.0,0.0,0.0,0.0,0.0,0.0,0.0,0.0,-1.6083,-1.5977,-1.4911,-1.3509,-1.2033,-1.0739,-0.93,-0.7593,-0.5074,-0.3873,-0.3272,-0.1147,0.0,0.0,0.0,0.0,0.0,0.0,0.0,0.0,0.0,0.0,0.0,0.0,0.0,0.0,0.0,0.0,0.0,0.0,0.0,0.0,0.0,0.0,0.0,0.0,0.0,0.0,0.0,0.0,0.0,0.0,0.0,0.0,0.0,0.0,0.0,0.0,0.0,0.0,0.0,0.0,0.0,0.0,0.0,0.0,0.0,0.0,0.0,0.0,0.0,0.0,0.0,0.0,0.0,0.0,0.0,0.0,0.0,0.0,0.0,0.0,0.0,0.0,0.0,0.0,0.0,0.0,0.0,0.0,0.0,0.0,0.0,0.0,0.0,0.0,0.0,0.0,0.0,0.0,0.0,0.0,0.0,0.0,0.0,0.0,0.0,0.0,0.0,0.0,0.0,0.0,0.0,0.0,0.0,0.0,0.0,0.0,0.0,0.0,0.0,0.0,0.0,0.0,0.0,-1.6083,-1.587,-1.3243,-1.1961,-1.1225,-0.8765,-0.7172,-0.6595,-0.4342,-0.3327,-0.2823,-0.0962,0.0,0.0,0.0,0.0,0.0,0.0,0.0,0.0,0.0,0.0,0.0,0.0,0.0,0.0,0.0,0.0,0.0,0.0,0.0,0.0,0.0,0.0,0.0,0.0,0.0,0.0,0.0,0.0,0.0,0.0,0.0,0.0,0.0,0.0,0.0,0.0,0.0,0.0,0.0,0.0,0.0,0.0,0.0,0.0,0.0,0.0,0.0,0.0,0.0,0.0,0.0,0.0,0.0,0.0,0.0,0.0,0.0,0.0,0.0,0.0,0.0,0.0,0.0,0.0,0.0,0.0,0.0,0.0,0.0,0.0,0.0,0.0,0.0,0.0,0.0,0.0,0.0,0.0,0.0,0.0,0.0,0.0,0.0,0.0,0.0,0.0,0.0,0.0,0.0,0.0,0.0,0.0,0.0,0.0,0.0,0.0,0.0,0.0,0.0,0.0,0.0,0.0,0.0,-1.6083,-1.5877,-1.3228,-1.0826,-0.8636,-0.6019,-0.3702,0.0,0.0,0.0,0.0,0.0,0.0,0.0,0.0,0.0,0.0,0.0,0.0,0.0,0.0,0.0,0.0,0.0,0.0,0.0,0.0,0.0,0.0,0.0,0.0,0.0,0.0,0.0,0.0,0.0,0.0,0.0,0.0,0.0,0.0,0.0,0.0,0.0,0.0,0.0,0.0,0.0,0.0,0.0,0.0,0.0,0.0,0.0,0.0,0.0,0.0,0.0,0.0,0.0,0.0,0.0,0.0,0.0,0.0,0.0,0.0,0.0,0.0,0.0,0.0,0.0,0.0,0.0,0.0,0.0,0.0,0.0,0.0,0.0,0.0,0.0,0.0,0.0,0.0,0.0,0.0,0.0,0.0,0.0,0.0,0.0,0.0,0.0,0.0,0.0,0.0,0.0,0.0,0.0,0.0,0.0,0.0,0.0,0.0,0.0,0.0,0.0,0.0,0.0,0.0,0.0,0.0,0.0,0.0,-1.6083,-1.5671,-1.1793,-0.9304,-0.753,-0.3807,-0.1302,0.0,0.0,0.0,0.0,0.0,0.0,0.0,0.0,0.0,0.0,0.0,0.0,0.0,0.0,0.0,0.0,0.0,0.0,0.0,0.0,0.0,0.0,0.0,0.0,0.0,0.0,0.0,0.0,0.0,0.0,0.0,0.0,0.0,0.0,0.0,0.0,0.0,0.0,0.0,0.0,0.0,0.0,0.0,0.0,0.0,0.0,0.0,0.0,0.0,0.0,0.0,0.0,0.0,0.0,0.0,0.0,0.0,0.0,0.0,0.0,0.0,0.0,0.0,0.0,0.0,0.0,0.0,0.0,0.0,0.0,0.0,0.0,0.0,0.0,0.0,0.0,0.0,0.0,0.0,0.0,0.0,0.0,0.0,0.0,0.0,0.0,0.0,0.0,0.0,0.0,0.0,0.0,0.0,0.0,0.0,0.0,0.0,0.0,0.0,0.0,0.0,0.0,0.0,0.0,0.0,0.0,0.0,0.0,-1.6083,-1.5665,-1.0654,-0.8378,-0.7221,-0.2895,-0.06,0.0,0.0,0.0,0.0,0.0,0.0,0.0,0.0,0.0,0.0,0.0,0.0,0.0,0.0,0.0,0.0,0.0,0.0,0.0,0.0,0.0,0.0,0.0,0.0,0.0,0.0,0.0,0.0,0.0,0.0,0.0,0.0,0.0,0.0,0.0,0.0,0.0,0.0,0.0,0.0,0.0,0.0,0.0,0.0,0.0,0.0,0.0,0.0,0.0,0.0,0.0,0.0,0.0,0.0,0.0,0.0,0.0,0.0,0.0,0.0,0.0,0.0,0.0,0.0,0.0,0.0,0.0,0.0,0.0,0.0,0.0,0.0,0.0,0.0,0.0,0.0,0.0,0.0,0.0,0.0,0.0,0.0,0.0,0.0,0.0,0.0,0.0,0.0,0.0,0.0,0.0,0.0,0.0,0.0,0.0,0.0,0.0,0.0,0.0,0.0,0.0,0.0,0.0,0.0,0.0,0.0,0.0,0.0,-1.6083,-1.5877,-1.273,-1.0132,-0.7728,-0.4585,-0.1991,0.0,0.0,0.0,0.0,0.0,0.0,0.0,0.0,0.0,0.0,0.0,0.0,0.0,0.0,0.0,0.0,0.0,0.0,0.0,0.0,0.0,0.0,0.0,0.0,0.0,0.0,0.0,0.0,0.0,0.0,0.0,0.0,0.0,0.0,0.0,0.0,0.0,0.0,0.0,0.0,0.0,0.0,0.0,0.0,0.0,0.0,0.0,0.0,0.0,0.0,0.0,0.0,0.0,0.0,0.0,0.0,0.0,0.0,0.0,0.0,0.0,0.0,0.0,0.0,0.0,0.0,0.0,0.0,0.0,0.0,0.0,0.0,0.0,0.0,0.0,0.0,0.0,0.0,0.0,0.0,0.0,0.0,0.0,0.0,0.0,0.0,0.0,0.0,0.0,0.0,0.0,0.0,0.0,0.0,0.0,0.0,0.0,0.0,0.0,0.0,0.0,0.0,0.0,0.0,0.0,0.0,0.0,0.0,-1.6083,-1.5877,-1.3256,-1.0545,-0.7824,-0.5083,-0.2485,0.0,0.0,0.0,0.0,0.0,0.0,0.0,0.0,0.0,0.0,0.0,0.0,0.0,0.0,0.0,0.0,0.0,0.0,0.0,0.0,0.0,0.0,0.0,0.0,0.0,0.0,0.0,0.0,0.0,0.0,0.0,0.0,0.0,0.0,0.0,0.0,0.0,0.0,0.0,0.0,0.0,0.0,0.0,0.0,0.0,0.0,0.0,0.0,0.0,0.0,0.0,0.0,0.0,0.0,0.0,0.0,0.0,0.0,0.0,0.0,0.0,0.0,0.0,0.0,0.0,0.0,0.0,0.0,0.0,0.0,0.0,0.0,0.0,0.0,0.0,0.0,0.0,0.0,0.0,0.0,0.0,0.0,0.0,0.0,0.0,0.0,0.0,0.0,0.0,0.0,0.0,0.0,0.0,0.0,0.0,0.0,0.0,0.0,0.0,0.0,0.0,0.0,0.0,0.0,0.0,0.0,0.0,0.0,-1.6083,-1.5877,-1.3755,-1.1349,-0.8628,-0.5976,-0.3373,-0.1088,0.0,0.0,0.0,0.0,0.0,0.0,0.0,0.0,0.0,0.0,0.0,0.0,0.0,0.0,0.0,0.0,0.0,0.0,0.0,0.0,0.0,0.0,0.0,0.0,0.0,0.0,0.0,0.0,0.0,0.0,0.0,0.0,0.0,0.0,0.0,0.0,0.0,0.0,0.0,0.0,0.0,0.0,0.0,0.0,0.0,0.0,0.0,0.0,0.0,0.0,0.0,0.0,0.0,0.0,0.0,0.0,0.0,0.0,0.0,0.0,0.0,0.0,0.0,0.0,0.0,0.0,0.0,0.0,0.0,0.0,0.0,0.0,0.0,0.0,0.0,0.0,0.0,0.0,0.0,0.0,0.0,0.0,0.0,0.0,0.0,0.0,0.0,0.0,0.0,0.0,0.0,0.0,0.0,0.0,0.0,0.0,0.0,0.0,0.0,0.0,0.0,0.0,0.0,0.0,0.0,0.0,0.0,-1.6083,-1.6076,-1.5778,-1.4059,-1.133,-0.8555,-0.5922,-0.3333,-0.0971,0.0,0.0,0.0,0.0,0.0,0.0,0.0,0.0,0.0,0.0,0.0,0.0,0.0,0.0,0.0,0.0,0.0,0.0,0.0,0.0,0.0,0.0,0.0,0.0,0.0,0.0,0.0,0.0,0.0,0.0,0.0,0.0,0.0,0.0,0.0,0.0,0.0,0.0,0.0,0.0,0.0,0.0,0.0,0.0,0.0,0.0,0.0,0.0,0.0,0.0,0.0,0.0,0.0,0.0,0.0,0.0,0.0,0.0,0.0,0.0,0.0,0.0,0.0,0.0,0.0,0.0,0.0,0.0,0.0,0.0,0.0,0.0,0.0,0.0,0.0,0.0,0.0,0.0,0.0,0.0,0.0,0.0,0.0,0.0,0.0,0.0,0.0,0.0,0.0,0.0,0.0,0.0,0.0,0.0,0.0,0.0,0.0,0.0,0.0,0.0,0.0,0.0,0.0,0.0,0.0,0.0,-1.6083,-1.6083,-1.6083,-1.4564,-1.1933,-0.915,-0.651,-0.3816,0.0,0.0,0.0,0.0,0.0,0.0,0.0,0.0,0.0,0.0,0.0,0.0,0.0,0.0,0.0,0.0,0.0,0.0,0.0,0.0,0.0,0.0,0.0,0.0,0.0,0.0,0.0,0.0,0.0,0.0,0.0,0.0,0.0,0.0,0.0,0.0,0.0,0.0,0.0,0.0,0.0,0.0,0.0,0.0,0.0,0.0,0.0,0.0,0.0,0.0,0.0,0.0,0.0,0.0,0.0,0.0,0.0,0.0,0.0,0.0,0.0,0.0,0.0,0.0,0.0,0.0,0.0,0.0,0.0,0.0,0.0,0.0,0.0,0.0,0.0,0.0,0.0,0.0,0.0,0.0,0.0,0.0,0.0,0.0,0.0,0.0,0.0,0.0,0.0,0.0,0.0,0.0,0.0,0.0,0.0,0.0,0.0,0.0,0.0,0.0,0.0,0.0,0.0,0.0,0.0,0.0,0.0,-1.6049,-1.6083,-1.6083,-1.4968,-1.2841,-1.0141,-0.7492,-0.4889,-0.223,0.0,-0.0955,0.0,0.0,0.0,0.0,0.0,0.0,0.0,0.0,0.0,0.0,0.0,0.0,0.0,0.0,0.0,0.0,0.0,0.0,0.0,0.0,0.0,0.0,0.0,0.0,0.0,0.0,0.0,0.0,0.0,0.0,0.0,0.0,0.0,0.0,0.0,0.0,0.0,0.0,0.0,0.0,0.0,0.0,0.0,0.0,0.0,0.0,0.0,0.0,0.0,0.0,0.0,0.0,0.0,0.0,0.0,0.0,0.0,0.0,0.0,0.0,0.0,0.0,0.0,0.0,0.0,0.0,0.0,0.0,0.0,0.0,0.0,0.0,0.0,0.0,0.0,0.0,0.0,0.0,0.0,0.0,0.0,0.0,0.0,0.0,0.0,0.0,0.0,0.0,0.0,0.0,0.0,0.0,0.0,0.0,0.0,0.0,0.0,0.0,0.0,0.0,0.0,0.0,0.0,0.0,-1.5954,-1.6083,-1.6076,-1.597,-1.5453,-1.2727,-1.005,-0.7122,-0.455,-0.3359,-0.3141,-0.3424,-0.3234,-0.276,0.0,0.0,0.0,0.0,0.0,0.0,0.0,0.0,0.0,0.0,0.0,0.0,0.0,0.0,0.0,0.0,0.0,0.0,0.0,0.0,0.0,0.0,0.0,0.0,0.0,0.0,0.0,0.0,0.0,0.0,0.0,0.0,0.0,0.0,0.0,0.0,0.0,0.0,0.0,0.0,0.0,0.0,0.0,0.0,0.0,0.0,0.0,0.0,0.0,0.0,0.0,0.0,0.0,0.0,0.0,0.0,0.0,0.0,0.0,0.0,0.0,0.0,0.0,0.0,0.0,0.0,0.0,0.0,0.0,0.0,0.0,0.0,0.0,0.0,0.0,0.0,0.0,0.0,0.0,0.0,0.0,0.0,0.0,0.0,0.0,0.0,0.0,0.0,0.0,0.0,0.0,0.0,0.0,0.0,0.0,0.0,0.0,0.0,0.0,0.0,0.0,-1.5757,-1.5811,-1.5811,-1.5859,-1.573,-1.2917,-1.0255,-0.7655,-0.5023,-0.3839,-0.3993,-0.3803,-0.3803,-0.3139,0.0,0.0,0.0,0.0,0.0,0.0,0.0,0.0,0.0,0.0,0.0,0.0,0.0,0.0,0.0,0.0,0.0,0.0,0.0,0.0,0.0,0.0,0.0,0.0,0.0,0.0,0.0,0.0,0.0,0.0,0.0,0.0,0.0,0.0,0.0,0.0,0.0,0.0,0.0,0.0,0.0,0.0,0.0,0.0,0.0,0.0,0.0,0.0,0.0,0.0,0.0,0.0,0.0,0.0,0.0,0.0,0.0,0.0,0.0,0.0,0.0,0.0,0.0,0.0,0.0,0.0,0.0,0.0,0.0,0.0,0.0,0.0,0.0,0.0,0.0,0.0,0.0,0.0,0.0,0.0,0.0,0.0,0.0,0.0,0.0,0.0,0.0,0.0,0.0,0.0,0.0,0.0,0.0,0.0,0.0,0.0,0.0,0.0,0.0,0.0,0.0,-1.5594,-1.5628,-1.5588,-1.5655,-1.5562,-1.357,-1.0849,-0.7903,-0.6818,-0.6025,-0.6079,-0.6079,-0.551,-0.4468,0.0,0.0,0.0,0.0,0.0,0.0,0.0,0.0,0.0,0.0,0.0,0.0,0.0,0.0,0.0,0.0,0.0,0.0,0.0,0.0,0.0,0.0,0.0,0.0,0.0,0.0,0.0,0.0,0.0,0.0,0.0,0.0,0.0,0.0,0.0,0.0,0.0,0.0,0.0,0.0,0.0,0.0,0.0,0.0,0.0,0.0,0.0,0.0,0.0,0.0,0.0,0.0,0.0,0.0,0.0,0.0,0.0,0.0,0.0,0.0,0.0,0.0,0.0,0.0,0.0,0.0,0.0,0.0,0.0,0.0,0.0,0.0,0.0,0.0,0.0,0.0,0.0,0.0,0.0,0.0,0.0,0.0,0.0,0.0,0.0,0.0,0.0,0.0,0.0,0.0,0.0,0.0,0.0,0.0,0.0,0.0,0.0,0.0,0.0,0.0,0.0,-1.5493,-1.5615,-1.5472,-1.5499,-1.5601,-1.5383,-1.251,-0.8745,-0.9828,-1.0545,-1.0441,-1.0531,-0.9208,-0.7027,-0.4183,-0.2,0.0,0.0,0.0,0.0,0.0,0.0,0.0,0.0,0.0,0.0,0.0,0.0,0.0,0.0,0.0,0.0,0.0,0.0,0.0,0.0,0.0,0.0,0.0,0.0,0.0,0.0,0.0,0.0,0.0,0.0,0.0,0.0,0.0,0.0,0.0,0.0,0.0,0.0,0.0,0.0,0.0,0.0,0.0,0.0,0.0,0.0,0.0,0.0,0.0,0.0,0.0,0.0,0.0,0.0,0.0,0.0,0.0,0.0,0.0,0.0,0.0,0.0,0.0,0.0,0.0,0.0,0.0,0.0,0.0,0.0,0.0,0.0,0.0,0.0,0.0,0.0,0.0,0.0,0.0,0.0,0.0,0.0,0.0,0.0,0.0,0.0,0.0,0.0,0.0,0.0,0.0,0.0,0.0,0.0,0.0,0.0,0.0,0.0,0.0,-1.5289,-1.533,-1.5282,-1.5289,-1.533,-1.5282,-1.3252,-1.0678,-1.1023,-1.1385,-1.1385,-1.1385,-0.9964,-0.7497,-0.5036,0.0,0.0,0.0,0.0,0.0,0.0,0.0,0.0,0.0,0.0,0.0,0.0,0.0,0.0,0.0,0.0,0.0,0.0,0.0,0.0,0.0,0.0,0.0,0.0,0.0,0.0,0.0,0.0,0.0,0.0,0.0,0.0,0.0,0.0,0.0,0.0,0.0,0.0,0.0,0.0,0.0,0.0,0.0,0.0,0.0,0.0,0.0,0.0,0.0,0.0,0.0,0.0,0.0,0.0,0.0,0.0,0.0,0.0,0.0,0.0,0.0,0.0,0.0,0.0,0.0,0.0,0.0,0.0,0.0,0.0,0.0,0.0,0.0,0.0,0.0,0.0,0.0,0.0,0.0,0.0,0.0,0.0,0.0,0.0,0.0,0.0,0.0,0.0,0.0,0.0,0.0,0.0,0.0,0.0,0.0,0.0,0.0,0.0,0.0,0.0,-1.5181,-1.5181,-1.5181,-1.5181,-1.5181,-1.5181,-1.414,-1.2716,-1.1862,-1.1862,-1.2622,-1.2716,-1.072,-0.7974,-0.5795,-0.2855,0.0,0.0,0.0,0.0,0.0,0.0,0.0,0.0,0.0,0.0,0.0,0.0,0.0,0.0,0.0,0.0,0.0,0.0,0.0,0.0,0.0,0.0,0.0,0.0,0.0,0.0,0.0,0.0,0.0,0.0,0.0,0.0,0.0,0.0,0.0,0.0,0.0,0.0,0.0,0.0,0.0,0.0,0.0,0.0,0.0,0.0,0.0,0.0,0.0,0.0,0.0,0.0,0.0,0.0,0.0,0.0,0.0,0.0,0.0,0.0,0.0,0.0,0.0,0.0,0.0,0.0,0.0,0.0,0.0,0.0,0.0,0.0,0.0,0.0,0.0,0.0,0.0,0.0,0.0,0.0,0.0,0.0,0.0,0.0,0.0,0.0,0.0,0.0,0.0,0.0,0.0,0.0,0.0,0.0,0.0,0.0,0.0,0.0,0.0,-1.5181,-1.5181,-1.5181,-1.5181,-1.5181,-1.5181,-1.5087,-1.4899,-1.2622,-1.2999,-1.4993,-1.4892,-1.214,-0.8254,-0.7406,-0.4563,0.0,0.0,0.0,0.0,0.0,0.0,0.0,0.0,0.0,0.0,0.0,0.0,0.0,0.0,0.0,0.0,0.0,0.0,0.0,0.0,0.0,0.0,0.0,0.0,0.0,0.0,0.0,0.0,0.0,0.0,0.0,0.0,0.0,0.0,0.0,0.0,0.0,0.0,0.0,0.0,0.0,0.0,0.0,0.0,0.0,0.0,0.0,0.0,0.0,0.0,0.0,0.0,0.0,0.0,0.0,0.0,0.0,0.0,0.0,0.0,0.0,0.0,0.0,0.0,0.0,0.0,0.0,0.0,0.0,0.0,0.0,0.0,0.0,0.0,0.0,0.0,0.0,0.0,0.0,0.0,0.0,0.0,0.0,0.0,0.0,0.0,0.0,0.0,0.0,0.0,0.0,0.0,0.0,0.0,0.0,0.0,0.0,0.0,0.0,-1.5181,-1.5181,-1.5181,-1.5181,-1.5181,-1.5181,-1.5181,-1.5087,-1.4328,-1.4704,-1.5181,-1.5181,-1.2328,-0.7876,-0.7497,-0.4375,0.0,0.0,0.0,0.0,0.0,0.0,0.0,0.0,0.0,0.0,0.0,0.0,0.0,0.0,0.0,0.0,0.0,0.0,0.0,0.0,0.0,0.0,0.0,0.0,0.0,0.0,0.0,0.0,0.0,0.0,0.0,0.0,0.0,0.0,0.0,0.0,0.0,0.0,0.0,0.0,0.0,0.0,0.0,0.0,0.0,0.0,0.0,0.0,0.0,0.0,0.0,0.0,0.0,0.0,0.0,0.0,0.0,0.0,0.0,0.0,0.0,0.0,0.0,0.0,0.0,0.0,0.0,0.0,0.0,0.0,0.0,0.0,0.0,0.0,0.0,0.0,0.0,0.0,0.0,0.0,0.0,0.0,0.0,0.0,0.0,0.0,0.0,0.0,0.0,0.0,0.0,0.0,0.0,0.0,0.0,0.0,0.0,0.0,0.0,-1.5181,-1.5181,-1.5181,-1.5181,-1.5181,-1.5181,-1.5181,-1.5181,-1.5181,-1.5181,-1.5181,-1.5181,-1.2428,-0.816,-0.7311,0.0,0.0,0.0,0.0,0.0,0.0,0.0,0.0,0.0,0.0,0.0,0.0,0.0,0.0,0.0,0.0,0.0,0.0,0.0,0.0,0.0,0.0,0.0,0.0,0.0,0.0,0.0,0.0,0.0,0.0,0.0,0.0,0.0,0.0,0.0,0.0,0.0,0.0,0.0,0.0,0.0,0.0,0.0,0.0,0.0,0.0,0.0,0.0,0.0,0.0,0.0,0.0,0.0,0.0,0.0,0.0,0.0,0.0,0.0,0.0,0.0,0.0,0.0,0.0,0.0,0.0,0.0,0.0,0.0,0.0,0.0,0.0,0.0,0.0,0.0,0.0,0.0,0.0,0.0,0.0,0.0,0.0,0.0,0.0,0.0,0.0,0.0,0.0,0.0,0.0,0.0,0.0,0.0,0.0,0.0,0.0,0.0,0.0,0.0,0.0,-1.5147,-1.514,-1.516,-1.5167,-1.5181,-1.5181,-1.5181,-1.5181,-1.5181,-1.5181,-1.5181,-1.5181,-1.2422,-0.8349,-0.7501,-0.4658,0.0,0.0,0.0,0.0,0.0,0.0,0.0,0.0,0.0,0.0,0.0,0.0,0.0,0.0,0.0,0.0,0.0,0.0,0.0,0.0,0.0,0.0,0.0,0.0,0.0,0.0,0.0,0.0,0.0,0.0,0.0,0.0,0.0,0.0,0.0,0.0,0.0,0.0,0.0,0.0,0.0,0.0,0.0,0.0,0.0,0.0,0.0,0.0,0.0,0.0,0.0,0.0,0.0,0.0,0.0,0.0,0.0,0.0,0.0,0.0,0.0,0.0,0.0,0.0,0.0,0.0,0.0,0.0,0.0,0.0,0.0,0.0,0.0,0.0,0.0,0.0,0.0,0.0,0.0,0.0,0.0,0.0,0.0,0.0,0.0,0.0,0.0,0.0,0.0,0.0,0.0,0.0,0.0,0.0,0.0,0.0,0.0,0.0,0.0,-1.4841,-1.4855,-1.4977,-1.5079,-1.5174,-1.5181,-1.5181,-1.5181,-1.5181,-1.5181,-1.5181,-1.4798,-1.2422,-0.8164,-0.7592,-0.4846,0.0,0.0,0.0,0.0,0.0,0.0,0.0,0.0,0.0,0.0,0.0,0.0,0.0,0.0,0.0,0.0,0.0,0.0,0.0,0.0,0.0,0.0,0.0,0.0,0.0,0.0,0.0,0.0,0.0,0.0,0.0,0.0,0.0,0.0,0.0,0.0,0.0,0.0,0.0,0.0,0.0,0.0,0.0,0.0,0.0,0.0,0.0,0.0,0.0,0.0,0.0,0.0,0.0,0.0,0.0,0.0,0.0,0.0,0.0,0.0,0.0,0.0,0.0,0.0,0.0,0.0,0.0,0.0,0.0,0.0,0.0,0.0,0.0,0.0,0.0,0.0,0.0,0.0,0.0,0.0,0.0,0.0,0.0,0.0,0.0,0.0,0.0,0.0,0.0,0.0,0.0,0.0,0.0,0.0,0.0,0.0,0.0,0.0,0.0,-1.474,-1.4753,-1.4828,-1.4909,-1.4991,-1.5059,-1.5086,-1.5099,-1.5153,-1.5181,-1.5181,-1.4798,-1.2328,-0.816,-0.7592,-0.4831,0.0,0.0,0.0,0.0,0.0,0.0,0.0,0.0,0.0,0.0,0.0,0.0,0.0,0.0,0.0,0.0,0.0,0.0,0.0,0.0,0.0,0.0,0.0,0.0,0.0,0.0,0.0,0.0,0.0,0.0,0.0,0.0,0.0,0.0,0.0,0.0,0.0,0.0,0.0,0.0,0.0,0.0,0.0,0.0,0.0,0.0,0.0,0.0,0.0,0.0,0.0,0.0,0.0,0.0,0.0,0.0,0.0,0.0,0.0,0.0,0.0,0.0,0.0,0.0,0.0,0.0,0.0,0.0,0.0,0.0,0.0,0.0,0.0,0.0,0.0,0.0,0.0,0.0,0.0,0.0,0.0,0.0,0.0,0.0,0.0,0.0,0.0,0.0,0.0,0.0,0.0,0.0,0.0,0.0,0.0,0.0,0.0,0.0,0.0,-1.4685,-1.4706,-1.4713,-1.4726,-1.476,-1.4882,-1.4943,-1.4957,-1.5065,-1.5113,-1.5099,-1.5099,-1.2008,-0.9011,-0.6914,-0.3585,0.0,0.0,0.0,0.0,0.0,0.0,0.0,0.0,0.0,0.0,0.0,0.0,0.0,0.0,0.0,0.0,0.0,0.0,0.0,0.0,0.0,0.0,0.0,0.0,0.0,0.0,0.0,0.0,0.0,0.0,0.0,0.0,0.0,0.0,0.0,0.0,0.0,0.0,0.0,0.0,0.0,0.0,0.0,0.0,0.0,0.0,0.0,0.0,0.0,0.0,0.0,0.0,0.0,0.0,0.0,0.0,0.0,0.0,0.0,0.0,0.0,0.0,0.0,0.0,0.0,0.0,0.0,0.0,0.0,0.0,0.0,0.0,0.0,0.0,0.0,0.0,0.0,0.0,0.0,0.0,0.0,0.0,0.0,0.0,0.0,0.0,0.0,0.0,0.0,0.0,0.0,0.0,0.0,0.0,0.0,0.0,0.0,0.0,0.0,-1.4448,-1.4557,-1.4557,-1.4624,-1.4726,-1.4774,-1.478,-1.4787,-1.4814,-1.4828,-1.4756,-1.4389,-1.2129,-0.7494,-0.527,0.0,0.0,0.0,0.0,0.0,0.0,0.0,0.0,0.0,0.0,0.0,0.0,0.0,0.0,0.0,0.0,0.0,0.0,0.0,0.0,0.0,0.0,0.0,0.0,0.0,0.0,0.0,0.0,0.0,0.0,0.0,0.0,0.0,0.0,0.0,0.0,0.0,0.0,0.0,0.0,0.0,0.0,0.0,0.0,0.0,0.0,0.0,0.0,0.0,0.0,0.0,0.0,0.0,0.0,0.0,0.0,0.0,0.0,0.0,0.0,0.0,0.0,0.0,0.0,0.0,0.0,0.0,0.0,0.0,0.0,0.0,0.0,0.0,0.0,0.0,0.0,0.0,0.0,0.0,0.0,0.0,0.0,0.0,0.0,0.0,0.0,0.0,0.0,0.0,0.0,0.0,0.0,0.0,0.0,0.0,0.0,0.0,0.0,0.0,0.0]}]]